[[{"header":{"parameterUnit":"m.s-1","parameterCategory":1,"la1":31.0,"la2":29.5877,"lo1":-88.7671,"lo2":-86.6584,"dy":0.0162,"dx":0.0185,"nx":115,"ny":88,"refTime":"2023-08-17T12:00:00:Z","depth":0,"parameterNumber":2,"parameterNumberName":"U-component_of_WINDS"},"data":[0.0,0.0,0.0,0.0,0.0,0.0,0.0,0.0,0.0,0.0,0.0,0.0,0.0,0.0,0.0,0.0,0.0,0.0,0.0,0.0,0.0,0.0,0.0,0.0,0.0,0.0,0.0,0.0,0.0,0.0,0.0,0.0,0.0,0.0,0.0,0.0,0.0,0.0,0.0,0.0,0.0,0.0,0.0,0.0,0.0,0.0,0.0,0.0,0.0,0.0,0.0,0.0,0.0,0.0,0.0,0.0,0.0,0.0,0.0,0.0,0.0,0.0,0.0,0.0,0.0,0.0,0.0,0.0,0.0,0.0,0.0,0.0,0.0,0.0,0.0,0.0,0.0,0.0,0.0,0.0,0.0,0.0,0.0,0.0,0.0,0.0,0.0,0.0,0.0,0.0,0.0,0.0,0.0,0.0,0.0,0.0,0.0,0.0,0.0,0.0,0.0,0.0,0.0,0.0,0.0,0.0,0.0,0.0,0.0,0.0,0.0,0.0,0.0,0.0,0.0,0.0,0.0,0.0,0.0,0.0,0.0,0.0,0.0,0.0,0.0,0.0,0.0,0.0,0.0,0.0,0.0,0.0,0.0,0.0,0.0,0.0,0.0,0.0,0.0,0.0,0.0,0.0,0.0,0.0,0.0,0.0,0.0,0.0,0.0,0.0,0.0,0.0,0.0,0.0,0.0,0.0,0.0,0.0,0.0,0.0,0.0,0.0,0.0,0.0,0.0,0.0,0.0,0.0,0.0,0.0,0.0,0.0,0.0,0.0,0.0,0.0,0.0,0.0,0.0,0.0,0.0,0.0,0.0,0.0,0.0,0.0,0.0,0.0,0.0,0.0,0.0,0.0,0.0,0.0,0.0,0.0,0.0,0.0,0.0,0.0,0.0,0.0,0.0,0.0,0.0,0.0,0.0,0.0,0.0,0.0,0.0,0.0,0.0,0.0,0.0,0.0,0.0,0.0,0.0,0.0,0.0,0.0,0.0,0.0,0.0,0.0,0.0,0.0,0.0,0.0,0.0,0.0,0.0,0.0,0.0,0.0,0.0,0.0,0.0,0.0,0.0,0.0,0.0,0.0,0.0,0.0,0.0,0.0,0.0,0.0,0.0,0.0,0.0,0.0,0.0,0.0,0.0,0.0,0.0,0.0,0.0,0.0,0.0,0.0,0.0,0.0,0.0,0.0,0.0,0.0,0.0,0.0,0.0,0.0,0.0,0.0,0.0,0.0,0.0,0.0,0.0,0.0,0.0,0.0,0.0,0.0,0.0,0.0,0.0,0.0,0.0,0.0,0.0,0.0,0.0,0.0,0.0,0.0,0.0,0.0,0.0,0.0,0.0,0.0,0.0,0.0,0.0,0.0,0.0,0.0,0.0,0.0,0.0,0.0,0.0,0.0,0.0,0.0,0.0,0.0,0.0,0.0,0.0,0.0,0.0,0.0,0.0,0.0,0.0,0.0,0.0,0.0,0.0,0.0,0.0,0.0,0.0,0.0,0.0,0.0,0.0,0.0,0.0,0.0,0.0,0.0,0.0,0.0,0.0,0.0,0.0,0.0,0.0,0.0,0.0,0.0,0.0,0.0,0.0,0.0,0.0,0.0,0.0,0.0,0.0,0.0,0.0,0.0,0.0,0.0,0.0,0.0,0.0,0.0,0.0,0.0,0.0,0.0,0.0,0.0,0.0,0.0,0.0,0.0,0.0,0.0,0.0,0.0,0.0,0.0,0.0,0.0,0.0,0.0,0.0,0.0,0.0,0.0,0.0,0.0,0.0,0.0,0.0,0.0,0.0,0.0,0.0,0.0,0.0,0.0,0.0,0.0,0.0,0.0,0.0,0.0,0.0,0.0,0.0,0.0,0.0,0.0,0.0,0.0,0.0,0.0,0.0,0.0,0.0,0.0,0.0,0.0,0.0,0.0,0.0,0.0,0.0,0.0,0.0,0.0,0.0,0.0,0.0,0.0,0.0,0.0,0.0,0.0,0.0,0.0,0.0,0.0,0.0,0.0,0.0,0.0,0.0,0.0,0.0,0.0,0.0,0.0,0.0,0.0,0.0,0.0,0.0,0.0,0.0,0.0,0.0,0.0,0.0,0.0,0.0,0.0,0.0,0.0,0.0,0.0,0.0,0.0,0.0,0.0,0.0,0.0,0.0,0.0,0.0,0.0,0.0,0.0,0.0,0.0,0.0,0.0,0.0,0.0,0.0,0.0,0.0,0.0,0.0,0.0,0.0,0.0,0.0,0.0,0.0,0.0,0.0,0.0,0.0,0.0,0.0,0.0,0.0,0.0,0.0,0.0,0.0,0.0,0.0,0.0,0.0,0.0,0.0,0.0,0.0,0.0,0.0,0.0,0.0,0.0,0.0,0.0,0.0,0.0,0.0,0.0,0.0,0.0,0.0,0.0,0.0,0.0,0.0,0.0,0.0,0.0,0.0,0.0,0.0,0.0,0.0,0.0,0.0,0.0,0.0,0.0,0.0,0.0,0.0,0.0,0.0,0.0,0.0,0.0,0.0,0.0,0.0,0.0,0.0,0.0,0.0,0.0,0.0,0.0,0.0,0.0,0.0,0.0,0.0,0.0,0.0,0.0,0.0,0.0,0.0,0.0,0.0,0.0,0.0,0.0,0.0,0.0,0.0,0.0,0.0,0.0,0.0,0.0,0.0,0.0,0.0,0.0,0.0,0.0,0.0,0.0,0.0,0.0,0.0,0.0,0.0,0.0,0.0,0.0,0.0,0.0,0.0,0.0,0.0,0.0,0.0,0.0,0.0,0.0,0.0,0.0,0.0,0.0,0.0,0.0,0.0,0.0,0.0,0.0,0.0,0.0,0.0,0.0,0.0,0.0,0.0,0.0,0.0,0.0,0.0,0.0,0.0,0.0,0.0,0.0,0.0,0.0,0.0,0.0,0.0,0.0,0.0,0.0,0.0,0.0,0.0,0.0,0.0,0.0,0.0,0.0,0.0,0.0,0.0,0.0,0.0,0.0,0.0,0.0,0.0,0.0,0.0,0.0,0.0,0.0,0.0,0.0,0.0,0.0,0.0,0.0,0.0,0.0,0.0,0.0,0.0,0.0,0.0,0.0,0.0,0.0,0.0,0.0,0.0,0.0,0.0,0.0,0.0,0.0,0.0,0.0,0.0,0.0,0.0,0.0,0.0,0.0,0.0,0.0,0.0,0.0,0.0,0.0,0.0,0.0,0.0,0.0,0.0,0.0,0.0,0.0,0.0,0.0,0.0,0.0,0.0,0.0,0.0,0.0,0.0,0.0,0.0,0.0,0.0,0.0,0.0,0.0,0.0,0.0,0.0,0.0,0.0,0.0,0.0,0.0,0.0,0.0,0.0,0.0,0.0,0.0,0.0,0.0,0.0,0.0,0.0,0.0,0.0,0.0,0.0,0.0,0.0,0.0,0.0,0.0,0.0,0.0,0.0,0.0,0.0,0.0,0.0,0.0,0.0,0.0,0.0,0.0,0.0,0.0,0.0,0.0,0.0,0.0,0.0,0.0,0.0,0.0,0.0,0.0,0.0,0.0,0.0,0.0,0.0,0.0,0.0,0.0,0.0,0.0,0.0,0.0,0.0,0.0,0.0,0.0,0.0,0.0,0.0,0.0,0.0,0.0,0.0,0.0,0.0,0.0,0.0,0.0,0.0,0.0,0.0,0.0,0.0,0.0,0.0,0.0,0.0,0.0,0.0,0.0,0.0,0.0,0.0,0.0,0.0,0.0,0.0,0.0,0.0,0.0,0.0,0.0,0.0,0.0,0.0,0.0,0.0,0.0,0.0,0.0,0.0,0.0,0.0,0.0,0.0,0.0,0.0,0.0,0.0,0.0,0.0,0.0,0.0,0.0,0.0,0.0,0.0,0.0,0.0,0.0,0.0,0.0,0.0,0.0,0.0,0.0,0.0,0.0,0.0,0.0,0.0,0.0,0.0,0.0,0.0,0.0,0.0,0.0,0.0,0.0,0.0,0.0,0.0,0.0,0.0,0.0,0.0,0.0,0.0,0.0,0.0,0.0,0.0,0.0,0.0,0.0,0.0,0.0,0.0,0.0,0.0,0.0,0.0,0.0,0.0,0.0,0.0,0.0,0.0,0.0,0.0,0.0,0.0,0.0,0.0,0.0,0.0,0.0,0.0,0.0,0.0,0.0,0.0,0.0,0.0,0.0,0.0,0.0,0.0,0.0,0.0,0.0,0.0,0.0,0.0,0.0,0.0,0.0,0.0,0.0,0.0,0.0,0.0,0.0,0.0,0.0,0.0,0.0,-1.9444,0.0,0.0,0.0,0.0,0.0,0.0,0.0,0.0,0.0,0.0,0.0,0.0,0.0,0.0,0.0,0.0,0.0,0.0,0.0,0.0,0.0,0.0,0.0,0.0,0.0,0.0,0.0,0.0,0.0,0.0,0.0,0.0,0.0,0.0,0.0,0.0,0.0,0.0,0.0,0.0,0.0,0.0,0.0,0.0,0.0,0.0,0.0,0.0,0.0,0.0,0.0,0.0,0.0,0.0,0.0,0.0,0.0,0.0,0.0,0.0,0.0,0.0,0.0,0.0,0.0,0.0,0.0,0.0,0.0,0.0,0.0,0.0,0.0,0.0,0.0,0.0,0.0,0.0,0.0,0.0,0.0,0.0,0.0,0.0,0.0,0.0,0.0,0.0,0.0,0.0,0.0,0.0,0.0,0.0,0.0,0.0,0.0,0.0,0.0,0.0,0.0,0.0,0.0,0.0,0.0,0.0,0.0,0.0,0.0,0.0,-2.0386,-2.114,-1.8784,-1.8274,-1.9904,0.0,0.0,0.0,0.0,0.0,0.0,0.0,0.0,0.0,0.0,0.0,0.0,0.0,0.0,0.0,0.0,0.0,0.0,0.0,0.0,0.0,0.0,0.0,0.0,0.0,0.0,0.0,0.0,0.0,0.0,0.0,0.0,0.0,0.0,0.0,0.0,0.0,0.0,0.0,0.0,0.0,0.0,0.0,0.0,0.0,0.0,0.0,0.0,0.0,0.0,0.0,0.0,0.0,0.0,0.0,0.0,0.0,0.0,0.0,0.0,0.0,0.0,0.0,0.0,0.0,0.0,0.0,0.0,0.0,0.0,0.0,0.0,0.0,0.0,0.0,0.0,0.0,0.0,0.0,0.0,0.0,0.0,0.0,0.0,0.0,0.0,0.0,0.0,0.0,0.0,0.0,0.0,0.0,0.0,0.0,0.0,0.0,0.0,0.0,0.0,0.0,0.0,0.0,0.0,0.0,0.0,0.0,0.0,0.0,0.0,0.0,0.0,-1.9039,-1.8503,-1.9927,0.0,0.0,0.0,0.0,0.0,0.0,0.0,0.0,0.0,0.0,0.0,0.0,0.0,0.0,0.0,0.0,0.0,0.0,0.0,0.0,0.0,0.0,0.0,0.0,0.0,0.0,0.0,0.0,0.0,0.0,0.0,0.0,0.0,0.0,0.0,0.0,0.0,0.0,0.0,0.0,0.0,0.0,0.0,0.0,0.0,0.0,0.0,0.0,0.0,0.0,0.0,0.0,0.0,0.0,0.0,0.0,0.0,0.0,0.0,0.0,0.0,0.0,0.0,0.0,0.0,0.0,0.0,0.0,0.0,0.0,0.0,0.0,0.0,0.0,0.0,0.0,0.0,0.0,0.0,0.0,0.0,0.0,0.0,0.0,0.0,0.0,0.0,0.0,0.0,0.0,0.0,0.0,0.0,0.0,0.0,0.0,0.0,0.0,0.0,0.0,0.0,0.0,0.0,0.0,0.0,0.0,0.0,0.0,0.0,0.0,-2.1493,-2.1543,-2.0338,0.0,-1.9979,0.0,0.0,0.0,0.0,0.0,0.0,0.0,0.0,0.0,0.0,0.0,0.0,0.0,0.0,0.0,0.0,0.0,0.0,0.0,0.0,0.0,0.0,0.0,0.0,0.0,0.0,0.0,0.0,0.0,0.0,0.0,0.0,0.0,0.0,0.0,0.0,0.0,0.0,0.0,0.0,0.0,0.0,0.0,0.0,0.0,0.0,0.0,0.0,0.0,0.0,0.0,0.0,0.0,0.0,0.0,0.0,0.0,0.0,0.0,0.0,0.0,0.0,0.0,0.0,0.0,0.0,0.0,0.0,0.0,0.0,0.0,0.0,0.0,0.0,0.0,0.0,0.0,0.0,0.0,0.0,0.0,0.0,0.0,0.0,0.0,0.0,0.0,0.0,0.0,0.0,0.0,0.0,0.0,0.0,0.0,0.0,0.0,0.0,0.0,0.0,0.0,0.0,0.0,0.0,0.0,0.0,0.0,0.0,0.0,0.0,-2.1733,-2.2017,-2.1289,-2.0809,0.0,0.0,0.0,0.0,0.0,0.0,0.0,0.0,0.0,0.0,0.0,0.0,0.0,0.0,0.0,0.0,0.0,0.0,0.0,0.0,0.0,0.0,0.0,0.0,0.0,0.0,0.0,0.0,0.0,0.0,0.0,0.0,0.0,0.0,0.0,0.0,0.0,0.0,0.0,0.0,0.0,0.0,0.0,0.0,0.0,0.0,0.0,0.0,0.0,0.0,0.0,0.0,0.0,0.0,0.0,0.0,0.0,0.0,0.0,0.0,0.0,0.0,0.0,0.0,0.0,0.0,0.0,0.0,0.0,0.0,0.0,0.0,0.0,0.0,0.0,0.0,0.0,0.0,0.0,0.0,0.0,0.0,0.0,0.0,0.0,0.0,0.0,0.0,0.0,0.0,0.0,0.0,0.0,0.0,0.0,0.0,0.0,0.0,0.0,0.0,0.0,0.0,0.0,0.0,0.0,0.0,0.0,0.0,0.0,0.0,-2.1322,-2.1353,-2.1554,-2.1368,-2.1071,-2.0649,0.0,0.0,0.0,0.0,0.0,0.0,0.0,0.0,0.0,0.0,0.0,0.0,0.0,0.0,0.0,0.0,0.0,0.0,0.0,0.0,0.0,0.0,0.0,0.0,0.0,0.0,0.0,0.0,0.0,0.0,0.0,0.0,0.0,0.0,0.0,0.0,0.0,0.0,0.0,0.0,0.0,0.0,0.0,0.0,0.0,0.0,0.0,0.0,0.0,0.0,0.0,0.0,0.0,0.0,0.0,0.0,0.0,0.0,0.0,0.0,0.0,0.0,0.0,0.0,0.0,0.0,0.0,0.0,0.0,0.0,0.0,0.0,0.0,0.0,0.0,0.0,0.0,0.0,0.0,0.0,0.0,0.0,0.0,0.0,0.0,0.0,0.0,0.0,0.0,0.0,0.0,0.0,0.0,0.0,0.0,0.0,0.0,0.0,0.0,0.0,0.0,0.0,0.0,0.0,0.0,0.0,0.0,0.0,-2.1007,-2.06,-2.0193,-1.9892,-2.016,-2.0158,0.0,0.0,0.0,0.0,0.0,0.0,0.0,0.0,0.0,0.0,0.0,0.0,0.0,0.0,0.0,0.0,0.0,0.0,0.0,0.0,0.0,0.0,0.0,0.0,0.0,0.0,0.0,0.0,0.0,0.0,0.0,0.0,0.0,0.0,0.0,0.0,0.0,0.0,0.0,0.0,0.0,0.0,0.0,0.0,0.0,0.0,0.0,0.0,0.0,0.0,0.0,0.0,0.0,0.0,0.0,0.0,0.0,0.0,0.0,0.0,0.0,0.0,0.0,0.0,0.0,0.0,0.0,0.0,0.0,0.0,0.0,0.0,0.0,0.0,0.0,0.0,0.0,0.0,0.0,0.0,0.0,0.0,0.0,0.0,0.0,0.0,0.0,0.0,0.0,0.0,0.0,0.0,0.0,0.0,0.0,0.0,0.0,0.0,0.0,0.0,0.0,0.0,0.0,0.0,0.0,0.0,0.0,0.0,0.0,-2.0549,-2.0698,-2.0682,-2.0548,-2.0398,-2.0229,0.0,0.0,0.0,0.0,0.0,0.0,0.0,0.0,0.0,0.0,0.0,0.0,0.0,0.0,0.0,0.0,0.0,0.0,0.0,0.0,0.0,0.0,0.0,0.0,0.0,0.0,0.0,0.0,0.0,0.0,0.0,0.0,0.0,0.0,0.0,0.0,0.0,0.0,0.0,0.0,0.0,0.0,0.0,0.0,0.0,0.0,0.0,0.0,0.0,0.0,0.0,0.0,0.0,0.0,0.0,0.0,0.0,0.0,0.0,0.0,0.0,0.0,0.0,0.0,0.0,0.0,0.0,0.0,0.0,0.0,0.0,0.0,0.0,0.0,0.0,0.0,0.0,0.0,0.0,0.0,0.0,0.0,0.0,0.0,0.0,0.0,0.0,0.0,0.0,0.0,0.0,0.0,0.0,0.0,0.0,0.0,0.0,0.0,0.0,0.0,0.0,0.0,0.0,0.0,0.0,0.0,0.0,0.0,0.0,-1.9785,0.0,-2.0033,-2.0236,-1.9954,-1.9892,0.0,0.0,0.0,0.0,0.0,0.0,0.0,0.0,0.0,0.0,0.0,0.0,0.0,0.0,0.0,0.0,0.0,0.0,0.0,0.0,0.0,0.0,0.0,0.0,0.0,0.0,0.0,0.0,0.0,0.0,0.0,0.0,0.0,0.0,0.0,0.0,0.0,0.0,0.0,0.0,0.0,0.0,0.0,0.0,0.0,0.0,0.0,0.0,0.0,0.0,0.0,0.0,0.0,0.0,0.0,0.0,0.0,0.0,0.0,0.0,0.0,0.0,0.0,0.0,0.0,0.0,0.0,0.0,0.0,0.0,0.0,0.0,0.0,0.0,0.0,0.0,0.0,0.0,0.0,0.0,0.0,0.0,0.0,0.0,0.0,0.0,0.0,0.0,0.0,0.0,0.0,0.0,0.0,0.0,0.0,0.0,0.0,0.0,0.0,0.0,0.0,0.0,0.0,0.0,0.0,0.0,0.0,0.0,-1.9378,-1.8732,-1.815,-1.8228,-1.8749,-1.8811,-1.9049,0.0,0.0,0.0,0.0,0.0,0.0,0.0,0.0,0.0,0.0,0.0,0.0,0.0,0.0,0.0,0.0,0.0,0.0,0.0,0.0,0.0,0.0,0.0,0.0,0.0,0.0,0.0,0.0,0.0,0.0,0.0,0.0,0.0,0.0,0.0,0.0,0.0,0.0,0.0,0.0,0.0,0.0,0.0,0.0,0.0,0.0,0.0,0.0,0.0,0.0,0.0,0.0,0.0,0.0,0.0,0.0,0.0,0.0,0.0,0.0,0.0,0.0,0.0,0.0,0.0,0.0,0.0,0.0,0.0,0.0,0.0,0.0,0.0,0.0,0.0,0.0,0.0,0.0,0.0,0.0,0.0,0.0,0.0,0.0,0.0,0.0,0.0,0.0,0.0,0.0,0.0,0.0,0.0,0.0,0.0,0.0,0.0,0.0,0.0,0.0,0.0,0.0,0.0,0.0,0.0,0.0,0.0,0.0,0.0,-1.9361,-1.8732,-1.9151,-2.0632,-1.942,-1.945,0.0,0.0,0.0,0.0,0.0,0.0,0.0,0.0,0.0,0.0,0.0,0.0,0.0,0.0,0.0,0.0,0.0,0.0,0.0,0.0,0.0,0.0,0.0,0.0,0.0,0.0,0.0,0.0,0.0,0.0,0.0,0.0,0.0,0.0,0.0,0.0,0.0,0.0,0.0,0.0,0.0,0.0,0.0,0.0,0.0,0.0,0.0,0.0,0.0,0.0,0.0,0.0,0.0,0.0,0.0,0.0,0.0,0.0,0.0,0.0,0.0,0.0,0.0,0.0,0.0,0.0,0.0,0.0,0.0,0.0,0.0,0.0,0.0,0.0,0.0,0.0,0.0,0.0,0.0,0.0,0.0,0.0,0.0,0.0,0.0,0.0,0.0,0.0,0.0,0.0,0.0,0.0,0.0,0.0,0.0,0.0,0.0,0.0,0.0,0.0,0.0,0.0,0.0,0.0,0.0,0.0,0.0,0.0,0.0,-1.979,-1.9096,-1.942,-2.0902,-1.9738,-1.9645,-2.0857,0.0,0.0,0.0,0.0,0.0,0.0,0.0,0.0,0.0,0.0,0.0,0.0,0.0,0.0,0.0,0.0,0.0,0.0,0.0,0.0,0.0,0.0,0.0,0.0,0.0,0.0,0.0,0.0,0.0,0.0,0.0,0.0,0.0,0.0,0.0,0.0,0.0,0.0,0.0,0.0,0.0,0.0,0.0,0.0,0.0,0.0,0.0,0.0,0.0,0.0,0.0,0.0,0.0,0.0,0.0,0.0,0.0,0.0,0.0,0.0,0.0,0.0,0.0,0.0,0.0,0.0,0.0,0.0,0.0,0.0,0.0,0.0,0.0,0.0,0.0,0.0,0.0,0.0,0.0,0.0,0.0,0.0,0.0,0.0,0.0,0.0,0.0,0.0,0.0,0.0,0.0,0.0,0.0,0.0,0.0,0.0,0.0,0.0,0.0,0.0,0.0,0.0,0.0,0.0,0.0,0.0,0.0,0.0,-2.0205,-1.9401,-1.9331,-1.9962,-1.9857,-1.9783,0.0,0.0,0.0,0.0,0.0,0.0,0.0,0.0,0.0,0.0,0.0,0.0,0.0,0.0,0.0,0.0,0.0,0.0,0.0,0.0,0.0,0.0,0.0,0.0,0.0,0.0,0.0,0.0,0.0,0.0,0.0,0.0,0.0,0.0,0.0,0.0,0.0,0.0,0.0,0.0,0.0,0.0,0.0,0.0,0.0,0.0,0.0,0.0,0.0,0.0,0.0,0.0,0.0,0.0,0.0,0.0,0.0,0.0,0.0,0.0,0.0,0.0,0.0,0.0,0.0,0.0,0.0,0.0,0.0,0.0,0.0,0.0,0.0,0.0,0.0,0.0,0.0,0.0,0.0,0.0,0.0,0.0,0.0,0.0,0.0,0.0,0.0,0.0,0.0,0.0,0.0,0.0,0.0,0.0,0.0,0.0,0.0,0.0,0.0,0.0,0.0,0.0,0.0,0.0,0.0,0.0,0.0,0.0,0.0,-2.147,-2.2014,-2.2398,-2.2532,-2.1201,-2.0677,0.0,0.0,0.0,0.0,0.0,0.0,0.0,0.0,0.0,0.0,0.0,0.0,0.0,0.0,0.0,0.0,0.0,0.0,0.0,0.0,0.0,0.0,0.0,0.0,0.0,0.0,0.0,0.0,0.0,0.0,0.0,0.0,0.0,0.0,0.0,0.0,0.0,0.0,0.0,0.0,0.0,0.0,0.0,0.0,0.0,0.0,0.0,0.0,0.0,0.0,0.0,0.0,0.0,0.0,0.0,0.0,0.0,0.0,0.0,0.0,0.0,0.0,0.0,0.0,0.0,0.0,0.0,0.0,0.0,0.0,0.0,0.0,0.0,0.0,0.0,0.0,0.0,0.0,0.0,0.0,0.0,0.0,0.0,0.0,0.0,0.0,0.0,0.0,0.0,0.0,0.0,0.0,0.0,0.0,0.0,0.0,0.0,0.0,0.0,0.0,0.0,0.0,0.0,0.0,0.0,0.0,0.0,0.0,-2.0571,-2.2074,-2.3608,-2.4524,-2.4866,-2.315,-2.1898,0.0,0.0,0.0,0.0,0.0,0.0,0.0,0.0,0.0,0.0,0.0,0.0,0.0,0.0,0.0,0.0,0.0,0.0,0.0,0.0,0.0,0.0,0.0,0.0,0.0,0.0,0.0,0.0,0.0,0.0,0.0,0.0,0.0,0.0,0.0,0.0,0.0,0.0,0.0,0.0,0.0,0.0,0.0,0.0,0.0,0.0,0.0,0.0,0.0,0.0,0.0,0.0,0.0,0.0,0.0,0.0,0.0,0.0,0.0,0.0,0.0,0.0,0.0,0.0,0.0,0.0,0.0,0.0,0.0,0.0,0.0,0.0,0.0,0.0,0.0,0.0,0.0,0.0,0.0,0.0,0.0,0.0,0.0,0.0,0.0,0.0,0.0,0.0,0.0,0.0,0.0,0.0,0.0,0.0,0.0,0.0,0.0,0.0,0.0,0.0,0.0,0.0,0.0,0.0,0.0,0.0,0.0,0.0,-2.0616,-2.224,-2.4444,-2.5985,-2.6669,-2.5193,-2.3198,0.0,0.0,0.0,0.0,0.0,0.0,0.0,0.0,0.0,0.0,0.0,0.0,0.0,0.0,0.0,0.0,0.0,0.0,0.0,0.0,0.0,0.0,0.0,0.0,0.0,0.0,0.0,0.0,0.0,0.0,0.0,0.0,0.0,0.0,0.0,0.0,0.0,0.0,0.0,0.0,0.0,0.0,0.0,0.0,0.0,0.0,0.0,0.0,0.0,0.0,0.0,0.0,0.0,0.0,0.0,0.0,0.0,0.0,0.0,0.0,0.0,0.0,0.0,0.0,0.0,0.0,0.0,0.0,0.0,0.0,0.0,0.0,0.0,0.0,0.0,0.0,0.0,0.0,0.0,0.0,0.0,0.0,0.0,0.0,0.0,0.0,0.0,0.0,0.0,0.0,0.0,0.0,0.0,0.0,0.0,0.0,0.0,0.0,0.0,0.0,0.0,0.0,0.0,0.0,0.0,0.0,0.0,0.0,-2.0847,-2.2662,-2.5029,-2.6796,-2.7914,-2.5742,-2.3371,0.0,0.0,0.0,0.0,0.0,0.0,0.0,0.0,0.0,0.0,0.0,0.0,0.0,0.0,0.0,0.0,0.0,0.0,0.0,0.0,0.0,0.0,0.0,0.0,0.0,0.0,0.0,0.0,0.0,0.0,0.0,0.0,0.0,0.0,0.0,0.0,0.0,0.0,0.0,0.0,0.0,0.0,0.0,0.0,0.0,0.0,0.0,0.0,-0.8975,0.0,0.0,0.0,0.0,0.0,0.0,0.0,0.0,0.0,0.0,0.0,0.0,0.0,0.0,0.0,0.0,0.0,0.0,0.0,0.0,0.0,0.0,0.0,0.0,0.0,0.0,0.0,0.0,0.0,0.0,0.0,0.0,0.0,0.0,0.0,0.0,0.0,0.0,0.0,0.0,0.0,0.0,0.0,0.0,0.0,0.0,0.0,0.0,0.0,0.0,0.0,0.0,0.0,0.0,0.0,0.0,0.0,0.0,0.0,-2.1263,-2.3165,-2.5883,-2.7769,-2.8642,-2.64,-2.4218,0.0,0.0,0.0,0.0,0.0,0.0,0.0,0.0,0.0,0.0,0.0,0.0,0.0,0.0,0.0,0.0,0.0,0.0,0.0,0.0,0.0,0.0,0.0,0.0,0.0,0.0,0.0,0.0,0.0,0.0,0.0,0.0,0.0,0.0,0.0,0.0,0.0,0.0,0.0,0.0,0.0,0.0,0.0,0.0,0.0,0.0,0.0,0.0,0.0,0.0,0.0,0.0,0.0,0.0,0.0,0.0,0.0,0.0,0.0,0.0,0.0,0.0,0.0,0.0,0.0,0.0,0.0,0.0,0.0,0.0,0.0,0.0,0.0,0.0,0.0,0.0,0.0,0.0,0.0,0.0,0.0,0.0,0.0,0.0,0.0,0.0,0.0,0.0,0.0,0.0,0.0,0.0,0.0,0.0,0.0,0.0,0.0,0.0,0.0,0.0,0.0,0.0,0.0,0.0,0.0,0.0,0.0,-1.9937,-2.169,-2.3527,-2.6446,-2.836,-2.899,-2.6866,-2.5059,-2.3839,0.0,0.0,0.0,0.0,0.0,0.0,0.0,0.0,0.0,0.0,0.0,0.0,0.0,0.0,0.0,0.0,0.0,0.0,0.0,0.0,0.0,0.0,0.0,0.0,0.0,0.0,0.0,0.0,0.0,0.0,0.0,0.0,0.0,0.0,0.0,0.0,0.0,0.0,-1.1132,-1.1058,0.0,0.0,0.0,0.0,0.0,0.0,0.0,0.0,-0.9748,0.0,0.0,0.0,0.0,0.0,0.0,0.0,0.0,0.0,0.0,0.0,0.0,0.0,0.0,0.0,0.0,0.0,0.0,0.0,0.0,0.0,0.0,0.0,0.0,0.0,0.0,0.0,0.0,0.0,0.0,0.0,0.0,0.0,0.0,0.0,0.0,0.0,0.0,0.0,0.0,0.0,0.0,0.0,0.0,0.0,0.0,0.0,0.0,0.0,0.0,0.0,0.0,0.0,0.0,0.0,0.0,-1.8216,-2.0288,-2.1968,-2.3183,-2.5761,-2.7378,-2.7889,-2.6342,-2.5094,-2.4188,0.0,0.0,0.0,0.0,0.0,0.0,0.0,0.0,0.0,0.0,0.0,0.0,0.0,0.0,0.0,0.0,0.0,0.0,0.0,0.0,0.0,0.0,0.0,0.0,0.0,0.0,0.0,0.0,0.0,0.0,0.0,0.0,0.0,0.0,0.0,0.0,0.0,0.0,0.0,-1.1287,-1.1312,0.0,0.0,0.0,0.0,0.0,0.0,0.0,0.0,-1.0576,0.0,0.0,0.0,0.0,0.0,0.0,0.0,0.0,0.0,0.0,0.0,0.0,0.0,0.0,0.0,0.0,0.0,0.0,0.0,0.0,0.0,0.0,0.0,0.0,0.0,0.0,0.0,0.0,0.0,0.0,0.0,0.0,0.0,0.0,0.0,0.0,0.0,0.0,0.0,0.0,0.0,0.0,0.0,0.0,0.0,0.0,0.0,0.0,0.0,0.0,0.0,0.0,0.0,0.0,0.0,-1.9058,-2.0665,-2.202,-2.3138,-2.5875,-2.7301,-2.7235,-2.5461,-2.4296,0.0,0.0,0.0,0.0,0.0,0.0,0.0,0.0,0.0,0.0,0.0,0.0,0.0,0.0,0.0,0.0,0.0,0.0,0.0,0.0,0.0,0.0,0.0,0.0,0.0,0.0,0.0,0.0,0.0,0.0,0.0,0.0,0.0,0.0,0.0,0.0,0.0,0.0,0.0,0.0,-1.148,-1.1379,-1.0801,0.0,0.0,0.0,0.0,0.0,0.0,-1.0928,-1.0996,0.0,0.0,0.0,0.0,0.0,0.0,0.0,0.0,0.0,0.0,0.0,0.0,0.0,0.0,0.0,0.0,0.0,0.0,0.0,0.0,0.0,0.0,0.0,0.0,0.0,0.0,0.0,0.0,0.0,0.0,0.0,0.0,0.0,0.0,0.0,0.0,0.0,0.0,0.0,0.0,0.0,0.0,0.0,0.0,0.0,0.0,0.0,0.0,0.0,0.0,0.0,0.0,0.0,0.0,0.0,-1.961,-2.0865,-2.197,-2.3,-2.5672,-2.6922,-2.647,-2.435,-2.3235,0.0,0.0,0.0,0.0,0.0,0.0,0.0,0.0,0.0,0.0,0.0,0.0,0.0,0.0,0.0,0.0,0.0,0.0,0.0,0.0,0.0,0.0,0.0,0.0,0.0,0.0,0.0,0.0,0.0,0.0,0.0,0.0,0.0,0.0,0.0,0.0,0.0,0.0,0.0,0.0,0.0,-1.1633,-1.1365,-1.1545,0.0,0.0,0.0,0.0,-1.1682,-1.1396,0.0,0.0,0.0,0.0,0.0,0.0,0.0,0.0,0.0,0.0,0.0,0.0,0.0,0.0,0.0,0.0,0.0,0.0,0.0,0.0,0.0,0.0,0.0,0.0,0.0,0.0,0.0,0.0,0.0,0.0,0.0,0.0,0.0,0.0,0.0,0.0,0.0,0.0,0.0,0.0,0.0,0.0,0.0,0.0,0.0,0.0,0.0,0.0,0.0,0.0,0.0,0.0,0.0,0.0,0.0,0.0,-1.9121,-2.069,-2.1782,-2.2447,-2.4198,-2.51,-2.4999,-2.2896,-2.1977,0.0,0.0,0.0,0.0,0.0,0.0,0.0,0.0,0.0,0.0,0.0,0.0,0.0,0.0,0.0,0.0,0.0,0.0,0.0,0.0,0.0,0.0,0.0,0.0,0.0,0.0,0.0,0.0,0.0,0.0,0.0,0.0,0.0,0.0,0.0,0.0,0.0,0.0,0.0,0.0,0.0,-1.2116,-1.2077,-1.2012,-1.2171,0.0,0.0,-1.2529,-1.2184,-1.2086,0.0,0.0,0.0,0.0,0.0,0.0,0.0,0.0,0.0,0.0,0.0,0.0,0.0,0.0,0.0,0.0,0.0,0.0,0.0,0.0,0.0,0.0,0.0,0.0,0.0,0.0,0.0,0.0,0.0,0.0,0.0,0.0,0.0,0.0,0.0,0.0,0.0,0.0,0.0,0.0,0.0,0.0,0.0,0.0,0.0,0.0,0.0,0.0,0.0,0.0,0.0,0.0,0.0,0.0,0.0,-1.8618,-1.9434,-2.0501,-2.1471,-2.2309,-2.3653,-2.4161,-2.3835,-2.1694,-2.079,0.0,0.0,0.0,0.0,0.0,0.0,0.0,0.0,0.0,0.0,0.0,0.0,0.0,0.0,0.0,0.0,0.0,0.0,0.0,0.0,0.0,0.0,0.0,0.0,0.0,0.0,0.0,0.0,0.0,0.0,0.0,0.0,0.0,0.0,0.0,0.0,0.0,0.0,0.0,0.0,0.0,0.0,-1.2598,-1.2549,0.0,0.0,0.0,-1.3193,-1.2686,0.0,0.0,0.0,0.0,0.0,0.0,0.0,0.0,0.0,0.0,0.0,0.0,0.0,0.0,0.0,0.0,0.0,0.0,0.0,0.0,0.0,0.0,0.0,0.0,0.0,0.0,0.0,0.0,0.0,0.0,0.0,0.0,0.0,0.0,0.0,0.0,0.0,0.0,0.0,0.0,0.0,0.0,0.0,0.0,0.0,0.0,0.0,0.0,0.0,0.0,0.0,0.0,0.0,0.0,0.0,0.0,0.0,-1.9999,-2.0465,-2.1157,-2.2096,-2.3201,-2.3484,-2.2882,-2.1041,0.0,0.0,0.0,0.0,0.0,0.0,0.0,0.0,0.0,0.0,0.0,0.0,0.0,0.0,0.0,0.0,0.0,0.0,0.0,0.0,0.0,0.0,0.0,0.0,0.0,0.0,0.0,-1.4299,0.0,0.0,0.0,0.0,0.0,0.0,0.0,0.0,0.0,0.0,0.0,0.0,0.0,0.0,-1.2915,-1.2915,-1.2915,-1.2915,0.0,0.0,-1.3369,-1.2974,-1.2915,-1.2915,0.0,0.0,0.0,0.0,0.0,0.0,0.0,0.0,0.0,0.0,0.0,0.0,0.0,0.0,0.0,0.0,0.0,0.0,0.0,0.0,0.0,0.0,0.0,0.0,0.0,0.0,0.0,0.0,0.0,0.0,0.0,0.0,0.0,0.0,0.0,0.0,0.0,0.0,0.0,0.0,0.0,0.0,0.0,0.0,0.0,0.0,0.0,0.0,0.0,0.0,0.0,0.0,0.0,0.0,0.0,-2.0591,-2.0666,-2.0981,-2.1556,-2.2623,-2.2895,-2.2372,-2.1245,-2.0629,0.0,0.0,0.0,0.0,0.0,0.0,0.0,0.0,0.0,0.0,0.0,0.0,0.0,0.0,0.0,0.0,0.0,0.0,0.0,0.0,0.0,0.0,0.0,0.0,0.0,0.0,0.0,0.0,0.0,0.0,0.0,0.0,0.0,0.0,0.0,0.0,0.0,0.0,0.0,0.0,0.0,-1.2915,-1.2915,-1.2915,-1.2915,0.0,0.0,-1.2944,-1.2915,-1.2915,-1.2915,-1.2915,0.0,0.0,0.0,0.0,0.0,0.0,0.0,0.0,0.0,0.0,0.0,0.0,0.0,0.0,0.0,0.0,0.0,0.0,0.0,0.0,0.0,0.0,0.0,0.0,0.0,0.0,0.0,0.0,0.0,0.0,0.0,0.0,0.0,0.0,0.0,0.0,0.0,0.0,0.0,0.0,0.0,0.0,0.0,0.0,0.0,0.0,0.0,0.0,0.0,0.0,0.0,0.0,0.0,-1.9572,-2.0693,-2.0691,-2.0968,-2.1481,-2.1907,-2.202,-2.1807,-2.0413,-1.966,0.0,0.0,0.0,0.0,0.0,0.0,0.0,0.0,0.0,0.0,0.0,0.0,0.0,0.0,0.0,0.0,0.0,0.0,0.0,0.0,0.0,0.0,0.0,0.0,0.0,0.0,0.0,0.0,-1.47,-1.409,-1.374,0.0,0.0,0.0,0.0,0.0,0.0,0.0,0.0,0.0,0.0,-1.3174,-1.292,-1.2915,0.0,0.0,-1.2915,-1.2915,-1.2915,-1.3105,-1.3184,-1.292,-1.2915,0.0,0.0,0.0,0.0,0.0,0.0,0.0,0.0,0.0,0.0,0.0,0.0,0.0,0.0,0.0,0.0,0.0,0.0,0.0,0.0,0.0,0.0,0.0,0.0,0.0,0.0,0.0,0.0,0.0,0.0,0.0,0.0,0.0,0.0,0.0,0.0,0.0,0.0,0.0,0.0,0.0,0.0,0.0,0.0,0.0,0.0,0.0,0.0,0.0,0.0,0.0,0.0,-2.0062,-2.1169,-2.1031,-2.1119,-2.1481,-2.1656,-2.1581,-2.123,-2.0125,-1.9434,0.0,0.0,0.0,0.0,0.0,0.0,0.0,0.0,0.0,0.0,0.0,0.0,0.0,0.0,0.0,0.0,0.0,0.0,0.0,0.0,0.0,0.0,0.0,0.0,0.0,0.0,0.0,0.0,-1.5259,-1.4248,-1.2892,0.0,0.0,0.0,0.0,0.0,0.0,0.0,0.0,0.0,0.0,-1.3359,-1.2949,-1.3027,-1.3115,-1.3076,-1.3277,-1.332,-1.3096,-1.332,-1.3398,-1.3115,0.0,0.0,0.0,0.0,0.0,0.0,0.0,0.0,0.0,0.0,0.0,0.0,0.0,0.0,0.0,0.0,0.0,0.0,0.0,0.0,0.0,0.0,0.0,0.0,0.0,0.0,0.0,0.0,0.0,0.0,-2.7803,0.0,0.0,0.0,0.0,0.0,0.0,0.0,0.0,0.0,0.0,0.0,0.0,0.0,0.0,0.0,0.0,0.0,0.0,0.0,0.0,0.0,0.0,-2.1182,-2.2234,-2.1732,-2.1481,-2.1546,-2.2008,-2.1769,-2.0779,-2.0666,-2.0365,-1.9786,0.0,0.0,0.0,0.0,0.0,0.0,0.0,0.0,0.0,0.0,0.0,0.0,0.0,0.0,0.0,0.0,0.0,0.0,0.0,0.0,0.0,0.0,0.0,0.0,0.0,0.0,-1.6364,-1.541,-1.4041,0.0,0.0,0.0,0.0,0.0,0.0,0.0,0.0,0.0,0.0,-1.3496,-1.3334,-1.2959,-1.3334,-1.3607,-1.3496,-1.4053,-1.4294,-1.3564,-1.3486,-1.348,0.0,0.0,0.0,0.0,0.0,0.0,0.0,0.0,0.0,0.0,0.0,0.0,0.0,0.0,0.0,0.0,0.0,0.0,0.0,0.0,0.0,0.0,0.0,0.0,0.0,0.0,0.0,-2.9388,-2.9453,0.0,0.0,0.0,0.0,0.0,0.0,0.0,0.0,0.0,0.0,0.0,-2.534,-2.5105,0.0,0.0,0.0,0.0,0.0,0.0,0.0,0.0,0.0,0.0,0.0,0.0,-2.1581,-2.2272,-2.2133,-2.2046,-2.2033,-2.1857,-2.1594,-2.1245,-2.0476,-1.9999,-1.9811,0.0,0.0,0.0,0.0,0.0,0.0,0.0,0.0,0.0,0.0,0.0,0.0,0.0,0.0,0.0,0.0,0.0,0.0,0.0,0.0,0.0,0.0,0.0,0.0,0.0,-1.5499,0.0,0.0,0.0,0.0,0.0,0.0,0.0,0.0,0.0,0.0,0.0,-1.4258,-1.3938,-1.3899,-1.3743,-1.3359,-1.3519,-1.3558,0.0,0.0,0.0,0.0,0.0,0.0,0.0,0.0,0.0,0.0,0.0,0.0,0.0,0.0,-1.0137,-0.9667,-0.9847,-0.988,-0.9072,0.0,0.0,0.0,0.0,0.0,0.0,0.0,0.0,0.0,0.0,0.0,0.0,0.0,0.0,-2.8965,0.0,-2.8477,0.0,0.0,0.0,0.0,0.0,0.0,0.0,0.0,-2.4798,-2.5109,-2.6091,-2.5623,-2.5573,0.0,-2.5749,-2.5096,0.0,0.0,0.0,0.0,0.0,0.0,0.0,0.0,-2.2234,-2.2543,-2.238,-2.2322,-2.2297,-2.197,-2.1681,-2.1481,-2.0589,-2.01,-2.0126,-1.9559,-1.9271,0.0,0.0,0.0,0.0,0.0,0.0,0.0,0.0,0.0,0.0,0.0,0.0,0.0,0.0,0.0,0.0,0.0,0.0,0.0,0.0,0.0,0.0,0.0,-1.5331,0.0,0.0,0.0,0.0,0.0,0.0,0.0,0.0,0.0,-1.3955,-1.4434,-1.4678,-1.4367,-1.4328,-1.4182,-1.3753,0.0,0.0,0.0,0.0,0.0,0.0,0.0,-1.3643,-1.3906,-1.3818,-1.3458,-1.2814,-1.1784,-1.1217,-1.162,0.0,0.0,-1.0114,-1.0017,-0.9897,-0.9362,-0.9384,-0.9511,-0.9517,-0.9619,-0.9655,0.0,0.0,0.0,0.0,0.0,0.0,0.0,0.0,-2.7542,-2.8121,0.0,-2.7882,0.0,0.0,0.0,0.0,0.0,-2.4946,0.0,0.0,-2.5686,-2.6009,-2.6559,-2.6562,-2.6587,-2.66,-2.7077,-2.6716,-2.5598,-2.4017,0.0,0.0,0.0,0.0,0.0,0.0,-2.3095,-2.307,-2.2581,-2.2347,-2.233,-2.2309,-2.2046,-2.1493,-2.0968,-2.0679,-2.0666,-2.0087,-1.9798,-1.9798,-1.9786,0.0,0.0,0.0,0.0,0.0,0.0,0.0,0.0,0.0,0.0,0.0,0.0,0.0,0.0,0.0,0.0,0.0,0.0,0.0,0.0,-1.5232,0.0,0.0,0.0,0.0,0.0,0.0,0.0,0.0,0.0,0.0,-1.4814,-1.4824,-1.4814,-1.4834,0.0,0.0,0.0,0.0,-1.4803,-1.4736,-1.5107,-1.5215,-1.4795,-1.4736,-1.4774,-1.4766,0.0,0.0,-1.227,-1.3853,-1.4114,-1.0855,-1.1813,-1.2651,-1.1547,-1.0873,-1.0416,-1.0114,-1.0047,-1.0077,-1.0094,-0.99,-0.9775,-3.0758,0.0,0.0,0.0,0.0,-2.9666,-3.0244,-3.0809,-3.0796,-3.0532,-3.0068,-2.895,0.0,0.0,0.0,0.0,0.0,0.0,-2.6653,-2.6864,-2.7205,-2.7482,-2.7632,-2.8034,-2.8222,-2.8222,-2.7984,-2.7507,-2.6801,-2.5511,-2.4795,-2.4569,0.0,0.0,0.0,0.0,-2.3095,-2.3083,-2.2945,-2.2869,-2.2869,-2.251,-2.2046,-2.1534,-2.0981,-2.0691,-2.0691,-2.0112,-1.9798,-1.9798,-1.9798,0.0,0.0,0.0,0.0,0.0,0.0,0.0,0.0,0.0,0.0,0.0,0.0,0.0,0.0,0.0,0.0,0.0,0.0,0.0,-1.4453,-1.5293,-1.5463,0.0,0.0,0.0,0.0,0.0,0.0,0.0,0.0,0.0,-1.5635,-1.542,-1.5352,0.0,0.0,-1.4853,-1.4991,-1.4902,-1.4668,-1.4338,-1.4687,0.0,0.0,-1.4299,-1.4424,-1.4764,-1.4932,-1.4868,-1.4477,-1.4324,-1.4159,-1.3782,-1.3681,-1.3322,-1.2581,-1.1085,-1.0023,-0.984,-0.9967,-1.0077,-1.012,-1.02,-1.0278,-3.3307,-3.0884,-3.067,-3.0645,-3.0796,-3.1361,-3.1825,-3.219,-3.1976,-3.1775,-3.1486,-2.9955,-2.9026,-2.8549,-2.757,0.0,0.0,0.0,-2.772,-2.7959,-2.8285,-2.8561,-2.8787,-2.9114,-2.9264,-2.9214,-2.8925,-2.8486,-2.7921,-2.703,-2.644,-2.6076,0.0,0.0,-2.4607,-2.428,-2.3904,-2.3459,-2.3446,-2.3333,-2.3108,-2.2782,-2.2485,-2.2146,-2.1606,-2.1317,-2.1305,-2.0564,-2.015,-2.0137,-1.9924,-1.9798,0.0,0.0,0.0,0.0,0.0,0.0,0.0,0.0,0.0,0.0,0.0,-1.7038,0.0,0.0,0.0,0.0,-1.4775,-1.4634,-1.4996,-1.55,0.0,0.0,0.0,0.0,0.0,0.0,0.0,-1.5829,-1.5713,-1.5752,-1.625,-1.5977,-1.5703,-1.5831,-1.5352,-1.5127,-1.5381,0.0,-1.4941,-1.4678,-1.4863,-1.4941,-1.466,-1.4611,-1.4708,-1.499,-1.5234,-1.5255,-1.4962,-1.4628,-1.4451,-1.4392,-1.4085,-1.3846,-1.3936,-1.2341,-1.076,-1.0184,-1.0198,-1.0287,-1.0294,-1.0472,-1.0533,-3.5579,-3.411,-3.3558,-3.2955,-3.2403,-3.2955,-3.2918,-3.2453,-3.1913,-3.2215,-3.2955,-3.0871,-3.0156,-3.0457,-2.8875,0.0,-2.8235,-2.8197,-2.8461,-2.895,-2.8963,-2.9277,-2.9779,-2.9779,-2.9779,-2.9779,-2.9779,-2.9515,-2.895,-2.8423,-2.8172,-2.8122,-2.654,-2.5711,-2.5674,-2.5573,-2.5046,-2.4079,-2.4067,-2.3791,-2.3183,-2.317,-2.3145,-2.3083,-2.2556,-2.2255,-2.2192,-2.1257,-2.0679,-2.0616,-2.0113,-1.9798,-1.9798,0.0,0.0,0.0,0.0,0.0,0.0,0.0,0.0,0.0,0.0,0.0,0.0,0.0,0.0,0.0,-1.5635,0.0,-1.5906,-1.5855,0.0,0.0,0.0,-1.5654,-1.6075,-1.6134,-1.632,-1.6687,0.0,0.0,-1.6746,-1.6396,-1.5997,-1.5566,-1.5459,-1.5439,-1.5478,-1.5469,-1.542,-1.5361,-1.54,-1.541,-1.5332,-1.5332,-1.5342,-1.5371,-1.542,-1.5167,-1.456,-1.4903,-1.4726,-1.3636,-1.3614,-1.4213,-1.5225,-1.396,-1.2551,-1.1173,-1.0793,-1.0706,-1.0604,-1.0586,-1.0586,-3.7149,-3.6358,-3.5852,-3.4776,-3.3558,-3.4085,-3.4487,-3.4655,-3.4116,-3.3847,-3.3583,-3.18,-3.0633,-2.9942,-2.9114,-2.8938,-2.9377,-2.89,-2.9038,-2.9566,-2.9578,-2.9666,-2.9779,-2.9779,-2.9779,-2.9779,-2.9779,-2.9729,-2.9566,-2.9013,-2.87,-2.8624,-2.7494,-2.67,-2.6273,-2.5423,-2.4883,-2.46,-2.46,-2.4356,-2.3816,-2.3791,-2.359,-2.3108,-2.2569,-2.2108,-2.1694,-2.1056,-2.049,-2.0037,-1.9874,-1.9798,-1.9798,-2.0251,0.0,0.0,0.0,0.0,0.0,0.0,0.0,0.0,0.0,-1.841,-1.7032,0.0,-1.6224,0.0,-1.6595,-1.6413,-1.56,-1.6088,0.0,0.0,-1.6234,-1.6367,-1.625,-1.6436,-1.6658,-1.698,-1.6833,-1.6824,-1.7187,-1.6855,-1.6502,-1.6395,-1.581,-1.5615,-1.6248,-1.579,-1.542,-1.542,-1.542,-1.542,-1.542,-1.542,-1.542,-1.542,-1.542,-1.5323,-1.5147,-1.5255,-1.5255,-1.4903,-1.4894,-1.5108,-1.5352,-1.4085,-1.3161,-1.294,-1.2228,-1.132,-1.0744,-1.0618,-1.0618,-3.7688,-3.7136,-3.6644,-3.5877,-3.5027,-3.5328,-3.5617,-3.583,-3.5064,-3.455,-3.4148,-3.2491,-3.1286,-3.0482,-2.9891,-2.9816,-3.0118,-2.9829,-2.9854,-3.0156,-3.0156,-3.0156,-3.0143,-2.9905,-2.9779,-2.9779,-2.9779,-2.9779,-2.9767,-2.9465,-2.9302,-2.9289,-2.8436,-2.7745,-2.7168,-2.6088,-2.5423,-2.5172,-2.4901,-2.4556,-2.4017,-2.3991,-2.3853,-2.3496,-2.2945,-2.2661,-2.2598,-2.182,-2.1255,-2.0941,-2.0677,-2.0552,-2.0552,-2.088,-2.0918,0.0,0.0,0.0,0.0,0.0,0.0,0.0,0.0,0.0,0.0,0.0,-1.6597,-1.6587,-1.682,-1.6718,-1.6056,-1.659,-1.6924,-1.6701,-1.7041,-1.7236,-1.707,-1.7197,-1.7321,-1.7467,-1.736,-1.736,-1.7627,-1.7295,-1.7067,-1.7233,-1.6377,-1.5879,-1.626,-1.584,-1.542,-1.542,-1.542,-1.542,-1.542,-1.542,-1.542,-1.542,-1.542,-1.542,-1.542,-1.542,-1.542,-1.542,-1.542,-1.542,-1.5352,-1.4421,-1.3575,-1.3257,-1.2437,-1.1676,-1.1657,-1.1528,-1.1424,-3.7626,-3.7136,-3.6631,-3.6417,-3.6417,-3.6417,-3.6417,-3.6342,-3.5278,-3.4705,-3.448,-3.2993,-3.2051,-3.1574,-3.106,-3.0821,-3.0809,-3.067,-3.062,-3.062,-3.062,-3.057,-3.0495,-3.0093,-2.9854,-2.9792,-2.9779,-2.9779,-2.9779,-2.9779,-2.9779,-2.9767,-2.9214,-2.865,-2.8185,-2.7118,-2.6311,-2.5711,-2.5272,-2.477,-2.4217,-2.4192,-2.413,-2.3991,-2.3484,-2.3384,-2.374,-2.2836,-2.2272,-2.2184,-2.1744,-2.1481,-2.1493,-2.1556,-2.1597,0.0,-2.1556,0.0,0.0,0.0,0.0,0.0,0.0,0.0,0.0,-1.7522,-1.6765,-1.6697,-1.6755,-1.6785,-1.6775,-1.7207,-1.7461,-1.7471,-1.7793,-1.8008,-1.8008,-1.8008,-1.8008,-1.8008,-1.8008,-1.8008,-1.7978,-1.7676,-1.7607,-1.7803,-1.6946,-1.6222,-1.6163,-1.5742,-1.542,-1.542,-1.542,-1.542,-1.542,-1.542,-1.542,-1.542,-1.542,-1.542,-1.542,-1.542,-1.542,-1.542,-1.542,-1.5371,-1.5293,-1.4586,-1.3898,-1.3326,-1.2228,-1.1574,-1.2139,-1.2218,-1.2365,-3.7274,-3.7123,-3.6644,-3.6417,-3.6417,-3.6417,-3.6417,-3.6367,-3.568,-3.4843,-3.401,-3.3244,-3.2898,-3.2717,-3.2164,-3.1872,-3.1863,-3.1009,-3.062,-3.062,-3.062,-3.0369,-2.998,-3.0294,-3.0218,-2.9804,-2.9779,-2.9779,-2.9779,-2.9779,-2.9779,-2.9767,-2.9214,-2.885,-2.8687,0.0,0.0,0.0,-2.6248,-2.5896,-2.531,-2.5297,-2.487,-2.4042,-2.3904,0.0,-2.2673,-2.2393,-2.2096,-2.1681,-2.1543,0.0,0.0,0.0,0.0,0.0,0.0,0.0,0.0,0.0,0.0,0.0,-1.9814,-1.8918,-1.7809,-1.7451,-1.7109,-1.6746,-1.7051,-1.7266,-1.7266,-1.7646,-1.7891,-1.7891,-1.7969,-1.8008,-1.8008,-1.8008,-1.8008,-1.8008,-1.8008,-1.8008,-1.7998,-1.793,-1.791,-1.7939,-1.7165,-1.6619,-1.656,-1.5908,-1.5439,-1.542,-1.542,-1.542,-1.542,-1.542,-1.542,-1.542,-1.542,-1.542,-1.542,-1.542,-1.542,-1.542,-1.542,-1.5147,-1.4513,-1.3989,-1.3749,-1.3857,-1.2497,-1.1161,-1.075,-1.1122,-1.1425,-3.7425,0.0,-3.6631,-3.6417,0.0,-3.6417,-3.6241,-3.5906,-3.5332,-3.4525,-3.3483,-3.3194,-3.3124,-3.3043,-3.2466,-3.2202,-3.2177,-3.165,-3.1399,-3.1399,-3.1399,-3.126,-3.0984,-3.0733,-3.047,-3.0193,-2.993,-2.9779,-2.9779,-2.9779,-2.9779,-2.9779,-2.9503,-2.9214,-2.8863,-2.7833,-2.704,-2.6499,-2.6487,-2.6223,-2.5624,-2.5586,-2.5335,-2.4795,0.0,0.0,0.0,0.0,0.0,0.0,0.0,0.0,0.0,0.0,0.0,-2.2334,-2.2794,-2.3025,-2.2774,-2.2632,-2.2252,-2.1507,-2.0118,-1.8996,-1.8372,-1.7942,-1.7598,-1.7393,-1.7568,-1.7695,-1.7705,-1.7891,-1.8008,-1.8008,-1.8008,-1.8008,-1.8008,-1.8008,-1.8008,-1.8008,-1.8008,-1.8008,-1.8008,-1.8008,-1.8008,-1.7978,-1.7471,-1.6973,-1.6668,-1.5977,-1.542,-1.542,-1.542,-1.542,-1.542,-1.542,-1.542,-1.542,-1.542,-1.542,-1.542,-1.542,-1.542,-1.542,-1.542,-1.5137,-1.4303,-1.383,-1.3595,-1.3414,-1.2324,-1.1223,-1.0797,-1.1331,-1.2019,-3.745,-3.6998,-3.6606,-3.6417,-3.6417,-3.6417,-3.5994,-3.5307,0.0,0.0,0.0,-3.3119,-3.3124,-3.3074,-3.2579,-3.2365,-3.2353,-3.2252,-3.2202,-3.2202,-3.2202,-3.2152,-3.2026,-3.1173,-3.0708,-3.0583,-3.0055,-2.9779,-2.9779,-2.9779,-2.9779,-2.9779,-2.9779,-2.949,-2.8863,-2.7934,-2.719,-2.6663,-2.6537,-2.6273,-2.5774,-2.5749,-2.5699,-2.5598,-2.4745,-2.4456,-2.4763,-2.3898,-2.3409,-2.3396,-2.3396,-2.3396,-2.3409,-2.3396,-2.3409,-2.3421,-2.3879,-2.4142,-2.4155,-2.4537,-2.412,-2.2593,-2.0618,-1.9349,-1.9119,-1.8395,-1.8008,-1.8008,-1.8008,-1.8008,-1.8008,-1.8008,-1.8008,-1.8008,-1.8008,-1.8008,-1.8008,-1.8008,-1.8008,-1.8008,-1.8008,-1.8008,-1.8008,-1.8008,-1.8008,-1.7959,-1.7627,-1.7197,-1.667,-1.5898,-1.542,-1.542,-1.542,-1.542,-1.542,-1.542,-1.542,-1.542,-1.542,-1.542,-1.542,-1.542,-1.542,-1.542,-1.5371,-1.4961,-1.4282,-1.3817,-1.3451,-1.2987,-1.2104,-1.1425,-1.1591,-1.2,-1.255,-3.6606,-3.6518,-3.6443,-3.6417,-3.6417,-3.6417,-3.578,-3.4801,-3.4261,-3.3922,-3.3759,-3.3282,-3.3124,-3.3068,-3.2993,-3.2968,-3.2918,-3.2428,-3.2202,0.0,-3.2202,-3.1964,-3.1499,-3.1348,-3.1047,-3.0555,-3.0068,-2.9779,-2.9779,-2.9779,-2.9779,-2.9779,-2.9779,-2.9503,-2.8925,-2.8298,-2.772,-2.7203,-2.6738,-2.6461,-2.6373,-2.6373,-2.6122,-2.5624,-2.5448,-2.5184,-2.4788,-2.4625,-2.455,-2.455,-2.455,-2.455,-2.455,-2.4525,-2.4562,-2.455,-2.4625,-2.4662,-2.4675,-2.475,-2.4678,-2.4406,-2.343,-2.1531,-1.8484,-1.8076,-1.8008,-1.8008,-1.8027,-1.8008,-1.8008,-1.8008,-1.8008,-1.8008,-1.8008,-1.8008,-1.8008,-1.8008,-1.8008,-1.8008,-1.8008,-1.8008,-1.8008,-1.8008,-1.8008,-1.7949,-1.7598,-1.7129,-1.6494,-1.582,-1.5459,-1.542,-1.542,-1.542,-1.542,-1.542,-1.542,-1.542,-1.542,-1.542,-1.542,-1.5381,-1.5361,-1.5391,-1.5127,-1.4697,-1.4153,-1.3788,-1.3429,-1.3014,-1.2282,-1.1986,-1.2438,-1.2302,-1.2059,-3.7073,-3.682,-3.6531,-3.6417,-3.6392,-3.6044,-3.5642,-3.5082,-3.4575,-3.3997,-3.3483,-3.3495,-3.3357,-3.3136,-3.3124,-3.3124,-3.3068,-3.2805,-3.2692,-3.2679,-3.2679,-3.2541,-3.2294,-3.1687,-3.126,-3.0997,-3.0181,-2.9779,-2.9779,-2.9779,-2.9779,-2.9779,-2.9779,-2.9503,-2.8913,-2.8674,-2.8134,-2.7329,-2.6776,-2.6487,-2.6487,-2.6487,-2.6361,-2.6097,-2.5774,-2.5498,-2.5247,-2.4938,-2.48,-2.48,-2.48,-2.48,-2.48,-2.48,-2.48,-2.48,-2.5084,-2.5234,-2.5234,-2.5043,-2.4798,-2.4539,-2.3681,-2.24,-2.0439,-1.9824,-1.9178,-1.8414,-1.8315,-1.8217,-1.8037,-1.8008,-1.8008,-1.8008,-1.8008,-1.8008,-1.8008,-1.8008,-1.8008,-1.8008,-1.8008,-1.8008,-1.8008,-1.8008,-1.8008,-1.7959,-1.7471,-1.6894,-1.6553,-1.5879,-1.542,-1.542,-1.542,-1.542,-1.542,-1.542,-1.542,-1.542,-1.542,-1.542,-1.5391,-1.5254,-1.5059,-1.4999,-1.4862,-1.4451,-1.3721,-1.389,-1.376,-1.3042,-1.2903,-1.2857,-1.2861,-1.2618,-1.2427,-3.7575,-3.7149,-3.6644,-3.6417,-3.6355,-3.578,-3.5495,-3.5458,-3.5031,-3.4286,-3.3407,-3.3721,-3.3596,-3.3149,-3.3124,-3.3124,-3.3124,-3.3124,-3.3124,-3.3124,-3.3124,-3.3124,-3.2998,-3.1913,-3.1386,-3.126,-3.0306,-2.9779,-2.9779,-2.9779,-2.9779,-2.9779,-2.9779,-2.9566,-2.9139,-2.8963,-2.8474,-2.767,-2.7027,-2.6625,-2.6499,-2.6487,-2.6487,-2.6461,-2.6059,-2.5787,-2.5774,-2.541,-2.5184,-2.5197,-2.5197,-2.5197,-2.5184,-2.5197,-2.5184,-2.5234,-2.5573,-2.5787,-2.5778,-2.5512,-2.5177,-2.4824,-2.391,-2.3116,-2.252,-2.162,-2.0533,-1.9319,-1.8787,-1.8451,-1.8213,-1.8057,-1.8008,-1.8008,-1.8008,-1.8008,-1.8008,-1.8008,-1.8008,-1.8008,-1.8008,-1.8008,-1.8008,-1.8008,-1.8008,-1.791,-1.7243,-1.6726,-1.6609,-1.5946,-1.5459,-1.542,-1.542,-1.542,-1.542,-1.542,-1.542,-1.542,-1.542,-1.542,-1.5352,-1.5068,-1.4745,-1.4588,-1.449,-1.4343,-1.3672,-1.3887,-1.406,-1.3389,-1.3328,-1.3289,-1.2969,-1.2881,-1.2881,-3.7236,-3.7098,-3.6644,-3.6417,-3.6355,-3.5793,-3.5508,-3.5508,-3.5445,-3.4806,-3.3922,-3.3884,-3.3621,-3.3174,-3.3136,-3.3149,-3.3124,-3.3124,-3.3124,-3.3124,-3.3124,-3.3124,-3.3036,-3.1926,-3.1386,-3.1286,-3.0344,-2.9867,-2.9842,-2.9804,-2.9779,-2.9779,-2.9779,-2.9767,-2.9654,-2.9189,-2.8838,-2.8725,-2.7745,-2.7002,-2.6524,-2.6487,-2.6487,-2.6487,-2.6436,-2.6424,-2.6373,-2.6373,-2.6336,-2.6336,-2.6311,-2.6323,-2.6323,-2.6323,-2.6323,-2.6311,-2.6373,-2.6411,-2.6411,-2.6393,-2.6289,-2.6239,-2.5332,-2.44,-2.348,-2.2513,-2.1534,-2.0621,-1.9399,-1.8643,-1.852,-1.8208,-1.8018,-1.8008,-1.8008,-1.8008,-1.8008,-1.8008,-1.8008,-1.8008,-1.8008,-1.8008,-1.8008,-1.8008,-1.8008,-1.7998,-1.7324,-1.6746,-1.6638,-1.6035,-1.5449,-1.543,-1.542,-1.542,-1.542,-1.542,-1.542,-1.542,-1.542,-1.542,-1.5332,-1.5068,-1.4705,-1.4434,-1.3997,-1.4102,-1.4443,-1.4502,-1.3812,-1.3857,-1.3662,-1.3389,-1.3042,-1.2915,-1.2915,-3.7663,-3.7588,-3.6769,-3.6417,-3.638,-3.6107,-3.6031,-3.6031,-3.6031,-3.5592,-3.4881,-3.4831,-3.4211,-3.3119,-3.3451,-3.3438,-3.3093,-3.3124,-3.3124,-3.3124,-3.3124,-3.3124,-3.3023,-3.2265,-3.1876,-3.1825,-3.1097,-3.057,-3.0269,-2.9955,-2.9779,-2.9779,-2.9779,-2.9779,-2.9767,-2.9553,-2.9277,-2.8888,-2.8486,-2.7833,-2.7052,-2.6663,-2.6487,-2.6487,-2.6487,-2.6487,-2.6487,-2.6487,-2.6487,-2.6487,-2.6487,-2.6487,-2.6487,-2.6487,-2.6487,-2.6487,-2.6487,-2.6487,-2.6487,-2.6487,-2.6487,-2.6487,-2.6129,-2.5687,-2.5276,-2.4361,-2.3371,-2.2321,-2.0329,-1.8936,-1.8637,-1.8271,-1.8008,-1.8008,-1.8008,-1.8008,-1.8008,-1.8008,-1.8008,-1.8008,-1.8008,-1.8008,-1.8008,-1.8008,-1.8008,-1.7949,-1.7461,-1.7051,-1.6736,-1.6191,-1.5732,-1.5478,-1.542,-1.542,-1.542,-1.542,-1.542,-1.542,-1.542,-1.542,-1.5361,-1.5068,-1.4707,-1.4531,-1.4297,-1.4172,-1.4436,-1.4786,-1.4582,-1.4338,-1.3782,-1.3389,-1.2993,-1.2915,-1.2915,-3.7902,-3.7651,-3.6795,-3.6417,-3.6417,-3.6417,-3.6417,-3.6417,-3.6417,-3.6056,-3.5533,-3.5658,-3.4851,-3.3508,-3.3721,-3.3596,-3.3174,-3.3124,-3.3124,-3.3124,-3.3124,-3.3124,-3.3061,-3.2478,-3.2202,-3.2127,-3.1637,-3.1185,-3.0796,-3.0281,-3.0018,-3.0005,-2.9867,-2.9779,-2.9779,-2.9779,-2.9591,-2.9202,-2.8976,-2.8499,-2.7783,-2.7241,-2.6801,-2.6549,-2.665,-2.6663,-2.6499,-2.6637,-2.665,-2.6512,-2.6487,-2.6487,-2.6487,-2.6487,-2.6487,-2.6487,-2.6487,-2.6487,-2.6487,-2.6487,-2.6487,-2.6452,-2.628,-2.6094,-2.5873,-2.4921,-2.3891,-2.2996,-2.0884,-1.9316,-1.8978,-1.8461,-1.8169,-1.8149,-1.8096,-1.8008,-1.8008,-1.8008,-1.8008,-1.8008,-1.8008,-1.8008,-1.8008,-1.8008,-1.8008,-1.7959,-1.7646,-1.7373,-1.6989,-1.6533,-1.5968,-1.5684,-1.5547,-1.542,-1.542,-1.542,-1.542,-1.542,-1.542,-1.542,-1.5381,-1.5049,-1.4912,-1.4853,-1.4766,-1.4756,-1.4824,-1.5098,-1.5011,-1.4338,-1.3851,-1.3486,-1.3003,-1.2935,-1.2915,-3.7701,-3.7161,-3.6656,-3.6417,-3.6417,-3.6417,-3.6417,-3.6417,-3.6417,-3.6056,-3.5633,-3.6081,-3.5403,-3.3935,-3.3985,-3.3633,-3.3187,-3.3174,-3.3199,-3.3212,-3.3149,-3.3124,-3.3074,-3.2491,-3.2227,-3.2252,-3.1813,-3.1461,-3.1336,-3.0821,-3.057,-3.0545,-3.0043,-2.9779,-2.9779,-2.9779,-2.9767,-2.9654,-2.9239,-2.8863,-2.8725,-2.8273,-2.7519,-2.6738,-2.7014,-2.7052,-2.6675,-2.7014,-2.7052,-2.6512,-2.6524,-2.6512,-2.6487,-2.6487,-2.6487,-2.6487,-2.6487,-2.6487,-2.6487,-2.6487,-2.6487,-2.6383,-2.5699,-2.5123,-2.5252,-2.3734,-2.2664,-2.214,-2.1022,-2.0068,-1.9746,-1.8978,-1.8539,-1.85,-1.8188,-1.8037,-1.8008,-1.8008,-1.8008,-1.8008,-1.8008,-1.8008,-1.8008,-1.8008,-1.8008,-1.7939,-1.7656,-1.749,-1.7617,-1.6877,-1.629,-1.6095,-1.5771,-1.542,-1.542,-1.542,-1.542,-1.542,-1.542,-1.542,-1.5273,-1.5146,-1.5176,-1.5088,-1.4738,-1.4728,-1.5107,-1.5088,-1.4775,-1.4358,-1.4143,-1.3734,-1.3154,-1.2974,-1.2915,-3.7475,-3.6694,-3.6493,-3.6417,-3.6417,-3.6417,-3.6417,-3.6417,-3.6417,-3.6317,-3.6132,-3.6329,-3.5843,-3.4951,-3.4919,-3.4462,-3.3658,-3.3608,-3.3784,-3.401,-3.3407,-3.3257,-3.3533,-3.3031,-3.2767,-3.2729,-3.2566,-3.2277,-3.1825,-3.1047,-3.062,-3.0532,-3.0055,-2.9779,-2.9779,-2.9779,-2.9779,-2.9767,-2.9566,-2.9315,-2.8925,-2.8687,-2.826,-2.7618,-2.7695,-2.772,-2.7519,-2.7708,-2.7557,-2.704,-2.7027,-2.6864,-2.6537,-2.6487,-2.6487,-2.6487,-2.6487,-2.6487,-2.6487,-2.6487,-2.6487,-2.6418,-2.5558,-2.53,-2.5629,-2.4731,-2.3672,-2.3003,-2.2583,-2.1796,-2.0411,-1.9316,-1.8598,-1.8539,-1.8271,-1.8008,-1.8008,-1.8008,-1.8008,-1.8008,-1.8008,-1.8008,-1.8008,-1.8008,-1.8008,-1.7988,-1.7871,-1.7861,-1.7832,-1.7246,-1.6631,-1.6269,-1.5811,-1.542,-1.542,-1.542,-1.542,-1.542,-1.542,-1.542,-1.5322,-1.5303,-1.5312,-1.5303,-1.4903,-1.4894,-1.5342,-1.5303,-1.4912,-1.4551,-1.4346,-1.389,-1.3398,-1.3081,-1.2944,-3.7149,-3.6681,-3.6493,-3.6518,-3.6596,-3.648,-3.6417,-3.6417,-3.6417,-3.6417,-3.6417,-3.6417,-3.6056,-3.5608,-3.5683,-3.5328,-3.4462,-3.4274,-3.4361,-3.4625,-3.3947,-3.3721,-3.3809,-3.352,-3.3244,-3.3136,-3.3124,-3.2855,-3.2441,-3.1574,-3.106,-3.0859,-3.0319,-2.9955,-2.9829,-2.9779,-2.9779,-2.9779,-2.9779,-2.9591,-2.9214,-2.9202,-2.9038,-2.8699,-2.8662,-2.8461,-2.8147,-2.8273,-2.8122,-2.762,-2.7381,-2.7065,-2.6575,-2.6487,-2.6487,-2.6487,-2.6487,-2.6487,-2.6487,-2.6487,-2.6487,-2.6487,-2.5921,-2.5804,-2.6349,-2.5594,-2.46,-2.3734,-2.3147,-2.2291,-2.0887,-1.9648,-1.8968,-1.8773,-1.835,-1.8018,-1.8008,-1.8008,-1.8008,-1.8008,-1.8008,-1.8008,-1.8008,-1.8008,-1.8008,-1.8008,-1.8008,-1.8008,-1.7939,-1.7467,-1.695,-1.6475,-1.584,-1.5498,-1.542,-1.542,-1.542,-1.542,-1.542,-1.542,-1.542,-1.542,-1.542,-1.542,-1.542,-1.542,-1.542,-1.541,-1.5137,-1.4717,-1.4326,-1.389,-1.3477,-1.3091,-1.2974,-3.6757,-3.7036,-3.6609,-3.6769,-3.7121,-3.6837,-3.649,-3.648,-3.6512,-3.6546,-3.6417,-3.6417,-3.6094,-3.578,-3.6081,-3.6006,-3.5433,-3.5014,-3.4851,-3.4864,-3.4675,-3.4374,-3.4048,-3.3884,-3.3533,-3.3136,-3.3124,-3.3111,-3.3011,-3.2353,-3.1813,-3.1336,-3.0796,-3.0256,-2.9792,-2.9779,-2.9779,-2.9779,-2.9779,-2.9767,-2.9779,-2.9716,-2.9691,-2.9666,-2.9654,-2.9202,-2.826,-2.8637,-2.8687,-2.8134,-2.7657,-2.7115,-2.6738,-2.6587,-2.6537,-2.6562,-2.6512,-2.6487,-2.6487,-2.6487,-2.6487,-2.6452,-2.6383,-2.628,-2.6314,-2.5581,-2.46,-2.3588,-2.2739,-2.1735,-2.0836,-2.0088,-1.9648,-1.9287,-1.8584,-1.8105,-1.8057,-1.8018,-1.8008,-1.8008,-1.8008,-1.8008,-1.8008,-1.8008,-1.8008,-1.8008,-1.8008,-1.8008,-1.7978,-1.7545,-1.7087,-1.6619,-1.5966,-1.5449,-1.542,-1.542,-1.542,-1.542,-1.542,-1.542,-1.542,-1.542,-1.542,-1.542,-1.542,-1.541,-1.5371,-1.5342,-1.5088,-1.4697,-1.4289,-1.3938,-1.3588,-1.3252,-1.2993,-3.6719,-3.7149,-3.701,-3.7249,-3.7785,-3.8007,-3.7728,-3.7051,-3.7376,-3.7116,-3.6499,-3.6417,-3.6304,-3.6169,-3.6342,-3.6317,-3.6094,-3.5918,-3.5843,-3.5705,-3.509,-3.4851,-3.4793,-3.4236,-3.3621,-3.3156,-3.3124,-3.3124,-3.298,-3.2491,-3.1938,-3.1386,-3.0871,-3.0331,-2.9817,-2.9779,-2.9779,-2.9779,-2.9779,-2.9779,-2.9779,-2.9779,-2.9779,-2.9779,-2.9779,-2.9591,-2.9302,-2.944,-2.9239,-2.8662,-2.8511,-2.8172,-2.7645,-2.7231,-2.7042,-2.7027,-2.6688,-2.6487,-2.6487,-2.6499,-2.6512,-2.6383,-2.5908,-2.5886,-2.628,-2.5629,-2.4636,-2.3672,-2.3184,-2.2403,-2.0941,-2.0176,-1.9883,-1.9727,-1.8965,-1.8373,-1.8334,-1.8149,-1.8027,-1.8008,-1.8008,-1.8008,-1.8008,-1.8008,-1.8008,-1.8008,-1.8008,-1.8008,-1.7959,-1.7832,-1.7389,-1.6794,-1.6074,-1.543,-1.542,-1.542,-1.542,-1.542,-1.542,-1.542,-1.542,-1.542,-1.542,-1.542,-1.542,-1.54,-1.5332,-1.5157,-1.4932,-1.464,-1.427,-1.3977,-1.3724,-1.3408,-1.3027,-3.7299,-3.7764,-3.7575,-3.8144,-3.8979,-3.9228,-3.9154,-3.8841,-3.855,-3.8024,-3.7386,-3.6657,-3.6417,-3.6417,-3.6417,-3.6417,-3.6417,-3.6417,-3.6417,-3.6342,-3.573,-3.5353,-3.5094,-3.411,-3.3445,-3.3187,-3.3124,-3.3124,-3.3099,-3.2704,-3.2152,-3.1436,-3.106,-3.052,-2.9867,-2.9779,-2.9779,-2.9779,-2.9779,-2.9779,-2.9779,-2.9779,-2.9779,-2.9779,-2.9779,-2.9779,-2.9779,-2.9779,-2.9628,-2.9189,-2.8838,-2.8411,-2.8084,-2.7406,-2.7067,-2.7228,-2.7014,-2.6738,-2.6562,-2.67,-2.6688,-2.6411,-2.5921,-2.5804,-2.628,-2.5838,-2.5028,-2.3781,-2.3441,-2.2702,-2.0999,-2.039,-2.0166,-2.0146,-1.9228,-1.8656,-1.8539,-1.8227,-1.8135,-1.8164,-1.8125,-1.8037,-1.8008,-1.8008,-1.8008,-1.8008,-1.8008,-1.8008,-1.8008,-1.7998,-1.75,-1.6824,-1.5976,-1.5556,-1.5439,-1.542,-1.542,-1.542,-1.542,-1.542,-1.542,-1.542,-1.542,-1.542,-1.542,-1.542,-1.5371,-1.5059,-1.4785,-1.4502,-1.4202,-1.376,-1.3398,-1.3193,-1.2925,-3.8329,-3.8818,-3.8378,-3.9218,-4.0619,-4.0473,-4.0794,-4.1256,-3.9949,-3.909,-3.8556,-3.7075,-3.6417,-3.6417,-3.6417,-3.6417,-3.6417,-3.6417,-3.6417,-3.6417,-3.6216,-3.5768,-3.4763,-3.3796,-3.3257,-3.3136,-3.3124,-3.3124,-3.3124,-3.3048,-3.2558,-3.1587,-3.1373,-3.0884,-3.008,-2.9829,-2.9779,-2.9779,-2.9779,-2.9779,-2.9779,-2.9779,-2.9779,-2.9779,-2.9779,-2.9779,-2.9779,-2.9779,-2.9779,-2.9641,-2.8863,-2.8398,-2.8021,-2.7178,-2.7077,-2.7354,-2.7281,-2.6977,-2.6738,-2.6839,-2.6939,-2.6537,-2.6418,-2.6487,-2.6452,-2.6314,-2.5616,-2.4,-2.3745,-2.2936,-2.1413,-2.0971,-2.0864,-2.0505,-1.9534,-1.8799,-1.8617,-1.833,-1.8271,-1.8412,-1.8291,-1.8027,-1.8037,-1.8008,-1.8008,-1.8008,-1.8008,-1.8008,-1.8008,-1.791,-1.7555,-1.6892,-1.6132,-1.5801,-1.5674,-1.543,-1.543,-1.542,-1.542,-1.542,-1.542,-1.542,-1.542,-1.542,-1.542,-1.542,-1.5312,-1.5019,-1.4746,-1.4502,-1.4062,-1.3457,-1.3184,-1.3086,-1.2969,-3.8341,-3.8969,-3.9724,-4.0559,-4.1542,-4.2606,-4.2597,-4.1684,-4.0807,-3.9667,-3.8339,-3.6994,-3.6452,-3.6417,-3.6417,-3.6417,-3.6417,-3.6417,-3.6417,-3.6417,-3.6417,-3.5742,-3.4788,-3.4022,-3.3445,-3.3174,-3.3124,-3.3124,-3.3124,-3.3124,-3.2679,-3.2001,-3.1549,-3.1072,-3.0444,-2.9993,-2.9804,-2.9779,-2.9779,-2.9779,-2.9779,-2.9779,-2.9779,-2.9779,-2.9779,-2.9779,-2.9779,-2.9779,-2.9779,-2.9779,-2.9553,-2.9139,-2.8687,-2.8335,-2.7871,-2.7406,-2.7341,-2.709,-2.6688,-2.6688,-2.6663,-2.6524,-2.6512,-2.6487,-2.6487,-2.6487,-2.5873,-2.485,-2.4564,-2.4084,-2.301,-2.2601,-2.2238,-2.1191,-1.9906,-1.9121,-1.9043,-1.875,-1.849,-1.8559,-1.849,-1.8295,-1.8086,-1.8008,-1.8008,-1.8008,-1.8008,-1.8008,-1.8008,-1.7978,-1.7734,-1.7266,-1.6641,-1.6221,-1.5879,-1.5596,-1.5439,-1.542,-1.542,-1.542,-1.542,-1.542,-1.542,-1.542,-1.542,-1.542,-1.5273,-1.5059,-1.4795,-1.4406,-1.3906,-1.335,-1.3389,-1.334,-1.3154,-3.9246,-4.0116,-4.0821,-4.1957,-4.3245,-4.4382,-4.4079,-4.2947,-4.2223,-4.0618,-3.87,-3.7539,-3.6837,-3.6417,-3.6417,-3.6417,-3.6417,-3.6417,-3.6417,-3.6367,-3.6107,-3.5516,-3.4751,-3.4148,-3.3608,-3.3174,-3.3124,-3.3124,-3.3124,-3.3124,-3.2754,-3.2202,-3.1662,-3.1135,-3.0595,-3.008,-2.9779,-2.9779,-2.9779,-2.9779,-2.9779,-2.9779,-2.9779,-2.9779,-2.9779,-2.9779,-2.9779,-2.9779,-2.9779,-2.9741,-2.9566,-2.9365,-2.9277,-2.8812,-2.8285,-2.7645,-2.7821,-2.7657,-2.703,-2.704,-2.719,-2.7077,-2.6839,-2.6663,-2.6725,-2.6663,-2.606,-2.5158,-2.5004,-2.448,-2.3672,-2.3147,-2.2312,-2.1142,-2.0168,-1.9561,-1.9541,-1.917,-1.8955,-1.8841,-1.8695,-1.8442,-1.8066,-1.8018,-1.8008,-1.8008,-1.8008,-1.8008,-1.8008,-1.7988,-1.7871,-1.7412,-1.7061,-1.666,-1.6269,-1.5957,-1.5654,-1.5596,-1.542,-1.542,-1.542,-1.542,-1.542,-1.542,-1.542,-1.5381,-1.5273,-1.5019,-1.4513,-1.4131,-1.3652,-1.3369,-1.332,-1.3418,-1.3252,-4.0743,-4.1775,-4.1936,-4.3313,-4.5115,-4.5389,-4.5075,-4.4631,-4.3279,-4.1639,-3.9653,-3.8391,-3.7289,-3.6593,-3.6546,-3.6417,-3.6417,-3.6417,-3.6417,-3.6292,-3.5956,-3.5395,-3.4914,-3.4349,-3.3796,-3.3363,-3.3224,-3.3174,-3.3149,-3.3124,-3.283,-3.2328,-3.175,-3.1198,-3.0721,-3.0131,-2.9817,-2.9779,-2.9779,-2.9779,-2.9779,-2.9779,-2.9779,-2.9779,-2.9779,-2.9779,-2.9779,-2.9779,-2.9779,-2.9779,-2.9251,-2.9315,-2.9528,-2.8662,-2.821,-2.8134,-2.8323,-2.821,-2.7632,-2.7745,-2.7971,-2.7758,-2.7128,-2.6826,-2.7128,-2.6927,-2.6313,-2.5418,-2.5194,-2.4779,-2.3854,-2.2813,-2.1866,-2.1062,-2.0374,-2.001,-1.9902,-1.9609,-1.9346,-1.9277,-1.888,-1.851,-1.8174,-1.8008,-1.8008,-1.8008,-1.8008,-1.8008,-1.8008,-1.7998,-1.7871,-1.7607,-1.7314,-1.7038,-1.6699,-1.6348,-1.6065,-1.5831,-1.5518,-1.542,-1.542,-1.542,-1.542,-1.542,-1.542,-1.541,-1.5371,-1.4952,-1.4455,-1.4055,-1.3763,-1.333,-1.2988,-1.3223,-1.3223,-4.2834,-4.317,-4.4163,-4.4872,-4.5358,-4.5389,-4.5608,-4.5561,-4.2234,-4.1398,-4.0921,-3.8312,-3.7335,-3.7619,-3.6943,-3.6417,-3.6499,-3.6499,-3.6417,-3.6392,-3.6317,-3.5868,-3.532,-3.4826,-3.4261,-3.3809,-3.3709,-3.3483,-3.3237,-3.3111,-3.3031,-3.278,-3.1926,-3.1336,-3.111,-3.0306,-2.9792,-2.9779,-2.9779,-2.9779,-2.9779,-2.9779,-2.9779,-2.9779,-2.9779,-2.9779,-2.9779,-2.9779,-2.9779,-2.9754,-2.9666,-2.9478,-2.9227,-2.89,-2.8537,-2.8298,-2.826,-2.8235,-2.8021,-2.8047,-2.7996,-2.7894,-2.772,-2.7718,-2.7492,-2.7253,-2.6797,-2.63,-2.6129,-2.5616,-2.448,-2.2962,-2.2038,-2.1486,-2.0863,-2.0419,-2.039,-2.0029,-1.9697,-1.9355,-1.918,-1.8857,-1.8135,-1.8018,-1.8008,-1.8008,-1.8008,-1.8008,-1.8008,-1.8008,-1.79,-1.7734,-1.7578,-1.7353,-1.7139,-1.668,-1.6133,-1.586,-1.5557,-1.542,-1.542,-1.542,-1.542,-1.542,-1.542,-1.541,-1.54,-1.5157,-1.4708,-1.4309,-1.386,-1.3408,-1.3086,-1.3213,-1.3193,-4.3834,-4.4456,-4.5115,-4.5734,-4.6255,-4.627,-4.5815,-4.4863,-4.3325,-4.1956,-4.1123,-3.9309,-3.8635,-3.8166,-3.803,-3.7815,-3.7289,-3.7196,-3.6896,-3.6546,-3.6392,-3.6194,-3.5981,-3.5542,-3.5014,-3.411,-3.3897,-3.3596,-3.3262,-3.3136,-3.3124,-3.3074,-3.2177,-3.165,-3.1348,-3.0595,-3.008,-2.9829,-2.9779,-2.9779,-2.9779,-2.9779,-2.9779,-2.9779,-2.9779,-2.9779,-2.9779,-2.9779,-2.9779,-2.9779,-2.9779,-2.9679,-2.9415,-2.9315,-2.9038,-2.8637,-2.8787,-2.8699,-2.8599,-2.8461,-2.8549,-2.8598,-2.8134,-2.7833,-2.7618,-2.7329,-2.6839,-2.6575,-2.6349,-2.5943,-2.4445,-2.3025,-2.214,-2.1849,-2.1193,-2.0818,-2.1038,-2.0639,-1.9951,-1.9482,-1.9258,-1.8799,-1.8369,-1.8223,-1.8052,-1.8086,-1.8027,-1.8027,-1.8008,-1.8008,-1.8008,-1.7891,-1.7793,-1.7646,-1.751,-1.7002,-1.6191,-1.582,-1.5478,-1.542,-1.542,-1.542,-1.542,-1.542,-1.542,-1.542,-1.5371,-1.5137,-1.4806,-1.426,-1.3773,-1.3398,-1.3145,-1.3076,-1.3042,-4.4688,-4.5689,-4.5674,-4.6255,-4.703,-4.684,-4.571,-4.4252,-4.433,-4.2753,-4.1028,-4.1282,-3.9944,-3.9156,-3.939,-3.9139,-3.8334,-3.7984,-3.7415,-3.6499,-3.6417,-3.638,-3.6304,-3.6141,-3.5567,-3.4261,-3.4274,-3.3909,-3.3294,-3.3199,-3.3262,-3.3061,-3.2491,-3.1989,-3.1499,-3.0997,-3.0495,-3.008,-3.0005,-2.9892,-2.9804,-2.9779,-2.9779,-2.9779,-2.9779,-2.9779,-2.9779,-2.9779,-2.9779,-2.9779,-2.9779,-2.9779,-2.9767,-2.9641,-2.9566,-2.9001,-2.9315,-2.9277,-2.9126,-2.9051,-2.9239,-2.9704,-2.8637,-2.7959,-2.7984,-2.7494,-2.7002,-2.6596,-2.631,-2.5546,-2.3938,-2.2962,-2.244,-2.2188,-2.1527,-2.1451,-2.1707,-2.1364,-2.0807,-1.9619,-1.947,-1.9157,-1.8773,-1.8542,-1.8325,-1.8139,-1.8091,-1.8047,-1.8018,-1.8008,-1.8008,-1.8008,-1.79,-1.7676,-1.7519,-1.7178,-1.6356,-1.5928,-1.5547,-1.5449,-1.5439,-1.542,-1.542,-1.542,-1.542,-1.542,-1.5273,-1.499,-1.4572,-1.4085,-1.3685,-1.334,-1.3096,-1.2944,-1.2964,-4.6785,-4.6975,-4.6975,-4.6808,-4.6303,-4.5361,-4.5024,-4.4602,-4.2711,-4.241,-4.3145,-4.1242,-4.0746,-4.0632,-4.0045,-3.9271,-3.8501,-3.8153,-3.7494,-3.6534,-3.6417,-3.6417,-3.6417,-3.6392,-3.5893,-3.5445,-3.5132,-3.4512,-3.3533,-3.3483,-3.3432,-3.3043,-3.2541,-3.2164,-3.1926,-3.1537,-3.0972,-3.0457,-3.0369,-3.0206,-2.9867,-2.9779,-2.9779,-2.9779,-2.9779,-2.9779,-2.9779,-2.9779,-2.9779,-2.9779,-2.9779,-2.9779,-2.9716,-2.9402,-2.9314,-2.9478,-2.934,-2.934,-2.9503,-2.9603,-2.9666,-2.9716,-2.9327,-2.8976,-2.8699,-2.8147,-2.7494,-2.6866,-2.6037,-2.5075,-2.4791,-2.3708,-2.3342,-2.3184,-2.2999,-2.2787,-2.2638,-2.2472,-2.2009,-2.0582,-2.0125,-1.9859,-1.9667,-1.9335,-1.9021,-1.8708,-1.8389,-1.8174,-1.8027,-1.8008,-1.8008,-1.8008,-1.7998,-1.7734,-1.7504,-1.709,-1.6531,-1.6143,-1.5791,-1.5547,-1.5508,-1.5439,-1.542,-1.542,-1.542,-1.542,-1.5186,-1.4883,-1.4531,-1.4143,-1.373,-1.3311,-1.3125,-1.3023,-1.3184,-4.7309,-4.7309,-4.7309,-4.692,-4.6254,-4.5664,-4.513,-4.459,-4.3246,-4.3009,-4.3197,-4.2313,-4.156,-4.1643,-4.1782,-4.0746,-3.9214,-3.8289,-3.7494,-3.664,-3.6417,-3.6417,-3.6417,-3.6417,-3.6031,-3.5708,-3.5717,-3.5102,-3.3671,-3.3746,-3.3596,-3.3144,-3.2767,-3.2528,-3.224,-3.1951,-3.1361,-3.0859,-3.0608,-3.0357,-2.9842,-2.9779,-2.9779,-2.9779,-2.9779,-2.9779,-2.9779,-2.9779,-2.9779,-2.9779,-2.9779,-2.9779,-2.9704,-2.9603,-2.949,-2.9679,-2.9515,-2.9453,-2.9729,-2.9779,-2.9779,-2.9741,-2.9566,-2.9214,-2.885,-2.8361,-2.7908,-2.7153,-2.5957,-2.5004,-2.4933,-2.4131,-2.3854,-2.4084,-2.3891,-2.3697,-2.3708,-2.3624,-2.2834,-2.1882,-2.1758,-2.1503,-2.0989,-2.0567,-1.9917,-1.9383,-1.8843,-1.8453,-1.8144,-1.8144,-1.8202,-1.81,-1.809,-1.7812,-1.7605,-1.7379,-1.6917,-1.6475,-1.6133,-1.5889,-1.5753,-1.5733,-1.5566,-1.542,-1.542,-1.5584,-1.5264,-1.501,-1.4619,-1.4241,-1.3948,-1.3643,-1.3271,-1.316,-1.3359,-4.7309,-4.7309,-4.716,-4.6726,-4.6157,-4.592,-4.5173,-4.4231,-4.4026,-4.3688,-4.3349,-4.321,-4.2684,-4.2275,-4.2249,-4.1657,-3.9593,-3.8424,-3.7507,-3.6593,-3.6417,-3.6417,-3.6417,-3.6367,-3.6144,-3.5943,-3.6056,-3.5504,-3.4161,-3.4048,-3.3696,-3.3232,-3.3068,-3.2893,-3.2491,-3.2416,-3.1712,-3.1223,-3.0783,-3.047,-2.9955,-2.9779,-2.9779,-2.9779,-2.9779,-2.9779,-2.9779,-2.9779,-2.9779,-2.9779,-2.9779,-2.9779,-2.9779,-2.9779,-2.9779,-2.9779,-2.9779,-2.9779,-2.9779,-2.9779,-2.9779,-2.9767,-2.9365,-2.9139,-2.8963,-2.8687,-2.8097,-2.7351,-2.6585,-2.5732,-2.5648,-2.4848,-2.4765,-2.4921,-2.4696,-2.4325,-2.4814,-2.485,-2.4576,-2.3926,-2.3601,-2.3117,-2.2536,-2.1339,-2.0604,-2.0101,-1.9569,-1.8962,-1.8664,-1.8536,-1.8496,-1.8361,-1.8186,-1.7919,-1.7789,-1.7835,-1.7394,-1.6946,-1.6621,-1.6387,-1.6226,-1.6137,-1.5929,-1.5739,-1.5892,-1.5977,-1.557,-1.5107,-1.4746,-1.4453,-1.4231,-1.3977,-1.3662,-1.3525,-1.3652,-4.7309,-4.7249,-4.6666,-4.6037,-4.5394,-4.4855,-4.4142,-4.3514,-4.3469,-4.3379,-4.3305,-4.3305,-4.321,-4.2765,-4.1988,-4.0504,-3.8903,-3.803,-3.7356,-3.6499,-3.6417,-3.6417,-3.6417,-3.6417,-3.6304,-3.6056,-3.6254,-3.5403,-3.4349,-3.4336,-3.401,-3.3294,-3.3124,-3.3018,-3.2893,-3.2842,-3.2641,-3.2014,-3.1499,-3.0771,-2.9967,-2.9779,-2.9779,-2.9779,-2.9779,-2.9779,-2.9779,-2.9779,-2.9779,-2.9779,-2.9779,-2.9779,-2.9779,-2.9779,-2.9779,-2.9779,-2.9779,-2.9779,-2.9779,-2.9779,-2.9779,-2.9779,-2.9654,-2.9679,-2.944,-2.9001,-2.8448,-2.8084,-2.7652,-2.7232,-2.6824,-2.6776,-2.6623,-2.6268,-2.5896,-2.5826,-2.6094,-2.5734,-2.5464,-2.5381,-2.4895,-2.4471,-2.4023,-2.257,-2.1278,-2.0808,-2.0267,-1.9693,-1.9284,-1.923,-1.8921,-1.8754,-1.8911,-1.8675,-1.8448,-1.8455,-1.8104,-1.7556,-1.7308,-1.7038,-1.6938,-1.6838,-1.6422,-1.6324,-1.6436,-1.6187,-1.5563,-1.5146,-1.4853,-1.4668,-1.4531,-1.4309,-1.4065,-1.4016,-1.4092,-4.6157,-4.6142,-4.5843,-4.5349,-4.4736,-4.4421,-4.3902,-4.3394,-4.3305,-4.3305,-4.3305,-4.329,-4.2981,-4.229,-4.1141,-3.9741,-3.8257,-3.7494,-3.693,-3.6508,-3.6392,-3.6392,-3.6417,-3.638,-3.6304,-3.5918,-3.5768,-3.5177,-3.4437,-3.4286,-3.4161,-3.3232,-3.3124,-3.3124,-3.3124,-3.3124,-3.2717,-3.2114,-3.1386,-3.057,-2.9993,-2.9779,-2.9779,-2.9779,-2.9779,-2.9779,-2.9779,-2.9779,-2.9779,-2.9779,-2.9779,-2.9779,-2.9779,-2.9779,-2.9779,-2.9779,-2.9779,-2.9779,-2.9779,-2.9779,-2.9779,-2.9779,-2.9779,-2.9767,-2.9616,-2.9051,-2.8599,-2.8599,-2.7959,-2.7582,-2.7429,-2.7329,-2.7002,-2.67,-2.6499,-2.6487,-2.6487,-2.6487,-2.6267,-2.6245,-2.6082,-2.5467,-2.4785,-2.3547,-2.241,-2.1963,-2.1333,-2.066,-2.0321,-2.0216,-1.9779,-1.9199,-1.9464,-1.9661,-1.9466,-1.9359,-1.9012,-1.8563,-1.8297,-1.807,-1.7874,-1.7634,-1.7323,-1.696,-1.686,-1.6415,-1.5623,-1.5283,-1.5078,-1.4951,-1.4834,-1.4611,-1.4465,-1.4738,-1.4795,-4.496,-4.4825,-4.499,-4.4766,-4.4287,-4.4152,-4.3793,-4.3334,-4.3305,-4.3305,-4.3305,-4.325,-4.2684,-4.1684,-4.0746,-3.9697,-3.8121,-3.7196,-3.6561,-3.6348,-3.6144,-3.6019,-3.5868,-3.5843,-3.568,-3.5295,-3.5295,-3.4743,-3.4336,-3.4148,-3.3972,-3.3106,-3.3124,-3.3124,-3.3124,-3.3061,-3.2742,-3.1926,-3.1273,-3.0545,-2.9942,-2.9792,-2.9779,-2.9779,-2.9779,-2.9779,-2.9779,-2.9779,-2.9779,-2.9779,-2.9779,-2.9779,-2.9779,-2.9779,-2.9779,-2.9779,-2.9779,-2.9779,-2.9779,-2.9779,-2.9779,-2.9779,-2.9779,-2.9779,-2.9704,-2.8938,-2.8637,-2.9126,-2.8398,-2.7858,-2.7494,-2.7419,-2.7027,-2.6725,-2.6487,-2.6487,-2.6487,-2.6487,-2.6452,-2.6314,-2.6094,-2.5838,-2.5083,-2.4237,-2.3511,-2.3119,-2.2446,-2.1664,-2.1279,-2.105,-2.0767,-2.0204,-2.0042,-2.0333,-2.0225,-2.0052,-1.9781,-1.9651,-1.9372,-1.9179,-1.9081,-1.877,-1.8441,-1.8027,-1.7556,-1.6539,-1.5709,-1.5506,-1.5303,-1.5176,-1.505,-1.4933,-1.4923,-1.5196,-1.5254,-4.3977,-4.3484,-4.4137,-4.4332,-4.4227,-4.3618,-4.3349,-4.3305,-4.3305,-4.3305,-4.3305,-4.325,-4.267,-4.1726,-4.1127,-3.9988,-3.8121,-3.8017,-3.6913,-3.6012,-3.5533,-3.5416,-3.5228,-3.5052,-3.4914,-3.4756,-3.4731,-3.4437,-3.401,-3.3834,-3.3596,-3.3156,-3.3136,-3.3124,-3.3124,-3.3086,-3.2503,-3.18,-3.1273,-3.0721,-3.008,-2.9779,-2.9779,-2.9779,-2.9779,-2.9779,-2.9779,-2.9779,-2.9779,-2.9779,-2.9779,-2.9779,-2.9779,-2.9779,-2.9779,-2.9779,-2.9779,-2.9779,-2.9779,-2.9779,-2.9779,-2.9779,-2.9779,-2.9779,-2.9741,-2.9741,-2.9679,-2.9541,-2.8875,-2.8411,-2.7996,-2.7607,-2.7193,-2.67,-2.6487,-2.6487,-2.6487,-2.6487,-2.6418,-2.6302,-2.6129,-2.5943,-2.5791,-2.5036,-2.4413,-2.3956,-2.3184,-2.2402,-2.1905,-2.1686,-2.1706,-2.1396,-2.091,-2.0846,-2.0814,-2.0719,-2.0751,-2.0751,-2.0602,-2.0495,-2.0432,-2.0038,-1.9587,-1.9,-1.8419,-1.7084,-1.6026,-1.6024,-1.5938,-1.5536,-1.5293,-1.5157,-1.5128,-1.5312,-1.5215,-4.3529,-4.3319,-4.3559,-4.3678,-4.3648,-4.3394,-4.3305,-4.3305,-4.3305,-4.3305,-4.3305,-4.325,-4.2684,-4.1726,-4.0703,-3.9683,-3.8107,-3.7289,-3.6434,-3.5831,-3.5433,-3.5157,-3.4856,-3.4613,-3.4587,-3.4299,-3.4198,-3.3947,-3.3432,-3.3458,-3.3332,-3.3119,-3.3124,-3.3124,-3.3124,-3.3061,-3.2416,-3.1712,-3.1311,-3.0859,-3.003,-2.9779,-2.9779,-2.9779,-2.9779,-2.9779,-2.9779,-2.9779,-2.9779,-2.9779,-2.9779,-2.9779,-2.9779,-2.9779,-2.9779,-2.9779,-2.9779,-2.9779,-2.9779,-2.9779,-2.9779,-2.9779,-2.9779,-2.9779,-2.9754,-2.9515,-2.9541,-2.9453,-2.9277,-2.8699,-2.8172,-2.7883,-2.7532,-2.6839,-2.6487,-2.6487,-2.6487,-2.6487,-2.6487,-2.6383,-2.6314,-2.6211,-2.6129,-2.5953,-2.5378,-2.48,-2.3958,-2.3192,-2.2669,-2.2309,-2.2333,-2.2273,-2.1834,-2.1834,-2.1822,-2.1834,-2.1815,-2.1772,-2.171,-2.1585,-2.1409,-2.117,-2.0673,-2.0069,-1.9252,-1.8058,-1.7224,-1.6894,-1.6461,-1.5825,-1.5526,-1.5381,-1.5391,-1.542,-1.5273,-4.3305,-4.3305,-4.3305,-4.3305,-4.3305,-4.3305,-4.3305,-4.3305,-4.3305,-4.3305,-4.3305,-4.3265,-4.2684,-4.1587,-4.0873,-3.9522,-3.8334,-3.7363,-3.6307,-3.5642,-3.5144,-3.4818,-3.4462,-3.4161,-3.3922,-3.3709,-3.3633,-3.3407,-3.3156,-3.3136,-3.3136,-3.3136,-3.3124,-3.3124,-3.3124,-3.3061,-3.2579,-3.1851,-3.1361,-3.0997,-3.0143,-2.9867,-2.9792,-2.9779,-2.9779,-2.9779,-2.9779,-2.9779,-2.9779,-2.9779,-2.9779,-2.9779,-2.9779,-2.9779,-2.9779,-2.9779,-2.9779,-2.9779,-2.9779,-2.9779,-2.9779,-2.9779,-2.9779,-2.9779,-2.9666,-2.9402,-2.9553,-2.9666,-2.9277,-2.8725,-2.8298,-2.8021,-2.7795,-2.7143,-2.6587,-2.6487,-2.6487,-2.6487,-2.6487,-2.6452,-2.6418,-2.6396,-2.6349,-2.6208,-2.5837,-2.5281,-2.4615,-2.385,-2.331,-2.3016,-2.2954,-2.2856,-2.2641,-2.2793,-2.3035,-2.2689,-2.2384,-2.2445,-2.2384,-2.2353,-2.2207,-2.1939,-2.1556,-2.089,-2.0008,-1.9005,-1.8232,-1.7562,-1.6771,-1.5968,-1.5748,-1.5584,-1.542,-1.542,-1.542,-4.329,-4.3305,-4.3305,-4.3305,-4.3305,-4.3305,-4.3305,-4.3305,-4.3305,-4.3305,-4.3305,-4.3305,-4.2625,-4.1695,-4.1194,-3.9922,-3.8238,-3.7742,-3.6722,-3.5196,-3.4705,-3.411,-3.3596,-3.335,-3.3451,-3.3212,-3.3224,-3.325,-3.3124,-3.3124,-3.3124,-3.3124,-3.3124,-3.3074,-3.3111,-3.3111,-3.2742,-3.2177,-3.1587,-3.1009,-3.0545,-3.0043,-2.9817,-2.9779,-2.9779,-2.9779,-2.9779,-2.9779,-2.9779,-2.9779,-2.9779,-2.9779,-2.9779,-2.9779,-2.9779,-2.9779,-2.9779,-2.9779,-2.9779,-2.9779,-2.9779,-2.9779,-2.9779,-2.9779,-2.9779,-2.9729,-2.9679,-2.9754,-2.9352,-2.9013,-2.8561,-2.8134,-2.7946,-2.7507,-2.6939,-2.665,-2.6675,-2.7002,-2.7102,-2.67,-2.6537,-2.6512,-2.6499,-2.6389,-2.6138,-2.5661,-2.5119,-2.4568,-2.3972,-2.3742,-2.3673,-2.3523,-2.3343,-2.3267,-2.3358,-2.317,-2.2987,-2.3047,-2.2957,-2.2823,-2.2662,-2.2372,-2.1954,-2.1562,-2.0813,-1.9873,-1.8935,-1.8066,-1.7413,-1.6828,-1.6054,-1.5777,-1.5555,-1.5468,-1.5555,-4.294,-4.3305,-4.3305,-4.3305,-4.3305,-4.3305,-4.3305,-4.3305,-4.3305,-4.3305,-4.3305,-4.3305,-4.2444,-4.1439,-4.0721,-3.9633,-3.783,-3.695,-3.5862,-3.4841,-3.4412,-3.3771,-3.3312,-3.3187,-3.3162,-3.3124,-3.3124,-3.3162,-3.3124,-3.3124,-3.3124,-3.3124,-3.3099,-3.2842,-3.2604,-3.2466,-3.2202,-3.1662,-3.116,-3.0758,-3.057,-3.0118,-2.9779,-2.9779,-2.9779,-2.9779,-2.9779,-2.9779,-2.9779,-2.9779,-2.9779,-2.9779,-2.9779,-2.9779,-2.9779,-2.9779,-2.9779,-2.9779,-2.9779,-2.9779,-2.9779,-2.9779,-2.9779,-2.9779,-2.9779,-2.9779,-2.9779,-2.9779,-2.9578,-2.9289,-2.885,-2.8662,-2.8386,-2.7758,-2.7304,-2.7153,-2.7216,-2.7794,-2.7946,-2.7115,-2.6688,-2.6612,-2.6575,-2.6512,-2.6285,-2.6122,-2.5624,-2.5114,-2.4548,-2.4461,-2.4405,-2.423,-2.4067,-2.3847,-2.3665,-2.3346,-2.3145,-2.3078,-2.3078,-2.3005,-2.2852,-2.2673,-2.2569,-2.2293,-2.1524,-2.0724,-1.9742,-1.8865,-1.841,-1.7786,-1.7152,-1.6687,-1.6574,-1.6273,-1.595,-4.2267,-4.2602,-4.2656,-4.2791,-4.3015,-4.32,-4.3305,-4.3305,-4.3305,-4.3305,-4.326,-4.3065,-4.2178,-4.0897,-3.9877,-3.8852,-3.6951,-3.6059,-3.5613,-3.4638,-3.4161,-3.3759,-3.3495,-3.34,-3.3432,-3.34,-3.34,-3.3426,-3.3395,-3.3169,-3.3136,-3.3124,-3.3111,-3.2754,-3.2491,-3.2365,-3.2328,-3.1813,-3.1336,-3.0997,-3.0721,-3.0294,-2.9792,-2.9779,-2.9779,-2.9779,-2.9779,-2.9779,-2.9779,-2.9779,-2.9779,-2.9779,-2.9779,-2.9779,-2.9779,-2.9779,-2.9779,-2.9779,-2.9779,-2.9779,-2.9779,-2.9779,-2.9779,-2.9779,-2.9779,-2.9779,-2.9779,-2.9779,-2.9779,-2.9591,-2.9289,-2.9139,-2.8737,-2.8109,-2.7932,-2.7781,-2.7783,-2.8335,-2.8059,-2.7266,-2.6713,-2.6663,-2.6612,-2.6549,-2.6424,-2.6298,-2.6147,-2.5636,-2.5164,-2.5146,-2.5021,-2.4808,-2.4494,-2.4117,-2.3778,-2.3396,-2.3221,-2.312,-2.3095,-2.3095,-2.3045,-2.2869,-2.2945,-2.2907,-2.2122,-2.1309,-2.0431,-1.9679,-1.9027,-1.8715,-1.8501,-1.807,-1.7704,-1.7191,-1.6641,-4.1407,-4.1422,-4.1437,-4.1826,-4.241,-4.2895,-4.3155,-4.3245,-4.3245,-4.323,-4.32,-4.2581,-4.1528,-4.0287,-3.8836,-3.7463,-3.6256,-3.5206,-3.4894,-3.4582,-3.4148,-3.3947,-3.3935,-3.3922,-3.3834,-3.3847,-3.3796,-3.3646,-3.3759,-3.3319,-3.3124,-3.3124,-3.3124,-3.2729,-3.2541,-3.2478,-3.2416,-3.1876,-3.1361,-3.1085,-3.0871,-3.0269,-2.988,-2.9779,-2.9779,-2.9779,-2.9779,-2.9779,-2.9779,-2.9779,-2.9779,-2.9779,-2.9779,-2.9779,-2.9779,-2.9779,-2.9779,-2.9779,-2.9779,-2.9779,-2.9779,-2.9779,-2.9779,-2.9779,-2.9779,-2.9779,-2.9779,-2.9779,-2.9779,-2.9779,-2.9704,-2.9453,-2.9151,-2.8837,-2.8612,-2.8486,-2.8411,-2.831,-2.792,-2.7341,-2.6801,-2.66,-2.6549,-2.6487,-2.6487,-2.6436,-2.6311,-2.6147,-2.5762,-2.5686,-2.5523,-2.5197,-2.482,-2.428,-2.3941,-2.3703,-2.3283,-2.317,-2.3108,-2.3095,-2.307,-2.307,-2.3045,-2.2895,-2.2535,-2.1818,-2.089,-2.0128,-1.9483,-1.9281,-1.9188,-1.8992,-1.8501,-1.7988,-1.744,-4.095,-4.1407,-4.1422,-4.1489,-4.1669,-4.1878,-4.2207,-4.2611,-4.2656,-4.2641,-4.2611,-4.1991,-4.0783,-3.8917,-3.8637,-3.6892,-3.5584,-3.4675,-3.4722,-3.4483,-3.4218,-3.4248,-3.4349,-3.4412,-3.4236,-3.401,-3.3872,-3.3746,-3.3395,-3.3136,-3.3124,-3.3124,-3.3124,-3.2729,-3.2503,-3.239,-3.2089,-3.1687,-3.1173,-3.0984,-3.0758,-3.0168,-2.988,-2.9779,-2.9779,-2.9779,-2.9779,-2.9779,-2.9779,-2.9779,-2.9779,-2.9779,-2.9779,-2.9779,-2.9779,-2.9779,-2.9779,-2.9779,-2.9779,-2.9779,-2.9779,-2.9779,-2.9779,-2.9779,-2.9779,-2.9779,-2.9779,-2.9779,-2.9779,-2.9779,-2.9779,-2.9616,-2.9377,-2.9151,-2.9001,-2.8988,-2.89,-2.8699,-2.8222,-2.7467,-2.6939,-2.6688,-2.6612,-2.6487,-2.6487,-2.6487,-2.6449,-2.6336,-2.626,-2.616,-2.6047,-2.5674,-2.5272,-2.4782,-2.4443,-2.4192,-2.3622,-2.3233,-2.3246,-2.3221,-2.3183,-2.317,-2.312,-2.2869,-2.2468,-2.1951,-2.1278,-2.0565,-1.9817,-1.9682,-1.9579,-1.9449,-1.924,-1.8727,-1.8151,-4.0247,-4.0576,-4.0606,-4.0756,-4.101,-4.1302,-4.1519,-4.1692,-4.1886,-4.2006,-4.1931,-4.1294,-4.0277,-3.9161,-3.8172,-3.6898,-3.5761,-3.4445,-3.4353,-3.5234,-3.4325,-3.4368,-3.455,-3.4643,-3.4361,-3.4085,-3.3872,-3.3771,-3.337,-3.3174,-3.3124,-3.3124,-3.3124,-3.288,-3.2641,-3.2378,-3.1926,-3.1436,-3.0972,-3.0696,-3.0394,-3.008,-2.9867,-2.9779,-2.9779,-2.9779,-2.9779,-2.9779,-2.9779,-2.9779,-2.9779,-2.9779,-2.9779,-2.9779,-2.9779,-2.9779,-2.9779,-2.9779,-2.9779,-2.9779,-2.9779,-2.9779,-2.9779,-2.9779,-2.9779,-2.9779,-2.9779,-2.9779,-2.9779,-2.9779,-2.9779,-2.9741,-2.9541,-2.9327,-2.9352,-2.9402,-2.9315,-2.9214,-2.8511,-2.7681,-2.7216,-2.6939,-2.6751,-2.6587,-2.6487,-2.6487,-2.6487,-2.6449,-2.6411,-2.6373,-2.6336,-2.6185,-2.5762,-2.5335,-2.5008,-2.4669,-2.4268,-2.3835,-2.369,-2.364,-2.3434,-2.3221,-2.312,-2.2807,-2.2406,-2.1901,-2.1425,-2.0801,-2.0174,-1.9999,-1.9798,-1.9695,-1.9566,-1.9397,-1.8833,-3.9254,-3.9379,-3.9358,-3.9843,-4.0367,-4.0905,-4.0846,-4.0427,-4.0935,-4.125,-4.1145,-4.0606,-4.0219,-3.937,-3.79,-3.7046,-3.5871,-3.4618,-3.4371,-3.6027,-3.4564,-3.4211,-3.4575,-3.4643,-3.4387,-3.4073,-3.3859,-3.3759,-3.3646,-3.3357,-3.3124,-3.3124,-3.2955,-3.2805,-3.2679,-3.2077,-3.1587,-3.1185,-3.0733,-3.0407,-3.0331,-3.0068,-2.9779,-2.9779,-2.9779,-2.9779,-2.9779,-2.9779,-2.9779,-2.9779,-2.9779,-2.9779,-2.9779,-2.9779,-2.9779,-2.9779,-2.9779,-2.9779,-2.9779,-2.9779,-2.9779,-2.9779,-2.9779,-2.9779,-2.9779,-2.9779,-2.9779,-2.9779,-2.9779,-2.9779,-2.9779,-2.9779,-2.9641,-2.9566,-2.9591,-2.9528,-2.9402,-2.9239,-2.8812,-2.8009,-2.748,-2.7165,-2.6663,-2.6487,-2.6487,-2.6487,-2.6487,-2.6487,-2.6487,-2.6487,-2.6487,-2.6487,-2.6197,-2.5774,-2.5423,-2.5109,-2.4895,-2.4582,-2.423,-2.3966,-2.3753,-2.3421,-2.3108,-2.2769,-2.2435,-2.1995,-2.1493,-2.0778,-2.02,-1.9949,-1.9798,-1.9798,-1.9773,-1.9695,-1.9254,-3.8182,-3.8676,-3.92,-3.9478,-3.9649,-3.9813,-3.9828,-3.9664,-3.9798,-4.0217,-4.0442,-3.9949,-3.9447,-3.8923,-3.7844,-3.688,-3.5413,-3.4703,-3.4477,-3.461,-3.4067,-3.4135,-3.4542,-3.46,-3.4336,-3.4073,-3.3847,-3.3658,-3.337,-3.3199,-3.3086,-3.2993,-3.2717,-3.2428,-3.2365,-3.1625,-3.1035,-3.0859,-3.0394,-3.0105,-3.0018,-2.9955,-2.9779,-2.9779,-2.9779,-2.9779,-2.9779,-2.9779,-2.9779,-2.9779,-2.9779,-2.9779,-2.9779,-2.9779,-2.9779,-2.9779,-2.9779,-2.9779,-2.9779,-2.9779,-2.9779,-2.9779,-2.9779,-2.9779,-2.9779,-2.9779,-2.9779,-2.9779,-2.9779,-2.9779,-2.9779,-2.9779,-2.9779,-2.9779,-2.9779,-2.9628,-2.9478,-2.9252,-2.9001,-2.8436,-2.7808,-2.7256,-2.6751,-2.6499,-2.6487,-2.6487,-2.6487,-2.6487,-2.6487,-2.6487,-2.6487,-2.6487,-2.6487,-2.6172,-2.5799,-2.5548,-2.5347,-2.4883,-2.4418,-2.4205,-2.3991,-2.3521,-2.307,-2.2799,-2.2435,-2.2046,-2.1468,-2.0577,-2.0087,-1.9886,-1.9798,-1.9798,-1.9798,-1.9747,-1.9333,-3.7629,-3.8033,-3.8676,-3.9155,-3.9358,-3.9388,-3.9388,-3.9388,-3.9388,-3.9619,-3.9888,-3.9546,-3.904,-3.8294,-3.7485,-3.6827,-3.5278,-3.4317,-3.451,-3.4461,-3.4048,-3.406,-3.4274,-3.4336,-3.3947,-3.3658,-3.3545,-3.3332,-3.3099,-3.2767,-3.2641,-3.2591,-3.2164,-3.1825,-3.1725,-3.1047,-3.0595,-3.0608,-3.0043,-2.9829,-2.9779,-2.9779,-2.9779,-2.9779,-2.9779,-2.9779,-2.9779,-2.9779,-2.9779,-2.9779,-2.9779,-2.9779,-2.9779,-2.9779,-2.9779,-2.9779,-2.9779,-2.9779,-2.9779,-2.9779,-2.9779,-2.9779,-2.9779,-2.9779,-2.9779,-2.9779,-2.9779,-2.9779,-2.9779,-2.9779,-2.9779,-2.9779,-2.9779,-2.9779,-2.9779,-2.9704,-2.9654,-2.9566,-2.9214,-2.8737,-2.8134,-2.7595,-2.709,-2.6575,-2.6562,-2.6487,-2.6487,-2.6487,-2.6487,-2.6487,-2.6487,-2.6487,-2.6487,-2.6461,-2.6223,-2.6009,-2.5799,-2.5272,-2.4644,-2.4111,-2.3735,-2.3384,-2.302,-2.2844,-2.2598,-2.2196,-2.1531,-2.0727,-2.015,-1.9911,-1.9849,-1.9798,-1.9798,-1.9798,-1.9527,-3.718,-3.7375,-3.7988,-3.8586,-3.9125,-3.9089,-3.9149,-3.926,-3.926,-3.9275,-3.9275,-3.926,-3.8679,-3.7942,-3.7137,-3.6721,-3.6013,-3.4966,-3.4895,-3.4666,-3.4119,-3.3865,-3.3746,-3.3759,-3.3495,-3.335,-3.3237,-3.3056,-3.2855,-3.2541,-3.2265,-3.2051,-3.1675,-3.1286,-3.1135,-3.0809,-3.0432,-3.0319,-3.0018,-2.9817,-2.9779,-2.9779,-2.9779,-2.9779,-2.9779,-2.9779,-2.9779,-2.9779,-2.9779,-2.9779,-2.9779,-2.9779,-2.9779,-2.9779,-2.9779,-2.9779,-2.9779,-2.9779,-2.9779,-2.9779,-2.9779,-2.9779,-2.9779,-2.9779,-2.9779,-2.9779,-2.9779,-2.9779,-2.9779,-2.9779,-2.9779,-2.9779,-2.9779,-2.9779,-2.9779,-2.9779,-2.9779,-2.9767,-2.939,-2.8913,-2.8411,-2.7858,-2.7344,-2.6851,-2.6587,-2.6512,-2.6487,-2.6487,-2.6487,-2.6487,-2.6487,-2.6487,-2.6487,-2.6461,-2.6436,-2.6273,-2.6059,-2.5548,-2.4863,-2.4136,-2.3521,-2.3258,-2.3095,-2.3083,-2.2782,-2.238,-2.1845,-2.1117,-2.0589,-2.0012,-1.9861,-1.9798,-1.9798,-1.9798,-1.9798,-3.6193,-3.6716,-3.733,-3.7689,-3.7789,-3.7823,-3.8078,-3.8542,-3.8586,-3.8586,-3.8586,-3.8646,-3.8662,-3.9053,-3.8943,-3.808,-3.6248,-3.5345,-3.4939,-3.4739,-3.3594,-3.3298,-3.3282,-3.3345,-3.3194,-3.3068,-3.293,-3.2792,-3.2516,-3.2265,-3.1951,-3.1537,-3.1035,-3.0746,-3.0658,-3.0331,-3.0018,-2.9967,-2.9967,-2.9779,-2.9779,-2.9779,-2.9779,-2.9779,-2.9779,-2.9779,-2.9779,-2.9779,-2.9779,-2.9779,-2.9779,-2.9779,-2.9779,-2.9779,-2.9779,-2.9779,-2.9779,-2.9779,-2.9779,-2.9779,-2.9779,-2.9779,-2.9779,-2.9779,-2.9779,-2.9779,-2.9779,-2.9779,-2.9779,-2.9779,-2.9779,-2.9779,-2.9779,-2.9779,-2.9779,-2.9779,-2.9779,-2.9729,-2.9541,-2.9026,-2.8473,-2.7946,-2.7444,-2.6977,-2.6537,-2.6487,-2.6487,-2.6487,-2.6487,-2.6487,-2.6487,-2.6487,-2.6487,-2.6487,-2.6474,-2.6336,-2.6097,-2.5624,-2.4988,-2.4073,-2.3446,-2.3208,-2.3095,-2.3095,-2.2957,-2.2619,-2.2046,-2.1481,-2.0765,-2.02,-1.9924,-1.9798,-1.9798,-1.9798,-1.9798]},{"header":{"parameterUnit":"m.s-1","parameterCategory":1,"la1":31.0,"la2":29.5877,"lo1":-88.7671,"lo2":-86.6584,"dy":0.0162,"dx":0.0185,"nx":115,"ny":88,"refTime":"2023-08-17T12:00:00:Z","depth":0,"parameterNumber":3,"parameterNumberName":"V-component_of_WINDS"},"data":[0.0,0.0,0.0,0.0,0.0,0.0,0.0,0.0,0.0,0.0,0.0,0.0,0.0,0.0,0.0,0.0,0.0,0.0,0.0,0.0,0.0,0.0,0.0,0.0,0.0,0.0,0.0,0.0,0.0,0.0,0.0,0.0,0.0,0.0,0.0,0.0,0.0,0.0,0.0,0.0,0.0,0.0,0.0,0.0,0.0,0.0,0.0,0.0,0.0,0.0,0.0,0.0,0.0,0.0,0.0,0.0,0.0,0.0,0.0,0.0,0.0,0.0,0.0,0.0,0.0,0.0,0.0,0.0,0.0,0.0,0.0,0.0,0.0,0.0,0.0,0.0,0.0,0.0,0.0,0.0,0.0,0.0,0.0,0.0,0.0,0.0,0.0,0.0,0.0,0.0,0.0,0.0,0.0,0.0,0.0,0.0,0.0,0.0,0.0,0.0,0.0,0.0,0.0,0.0,0.0,0.0,0.0,0.0,0.0,0.0,0.0,0.0,0.0,0.0,0.0,0.0,0.0,0.0,0.0,0.0,0.0,0.0,0.0,0.0,0.0,0.0,0.0,0.0,0.0,0.0,0.0,0.0,0.0,0.0,0.0,0.0,0.0,0.0,0.0,0.0,0.0,0.0,0.0,0.0,0.0,0.0,0.0,0.0,0.0,0.0,0.0,0.0,0.0,0.0,0.0,0.0,0.0,0.0,0.0,0.0,0.0,0.0,0.0,0.0,0.0,0.0,0.0,0.0,0.0,0.0,0.0,0.0,0.0,0.0,0.0,0.0,0.0,0.0,0.0,0.0,0.0,0.0,0.0,0.0,0.0,0.0,0.0,0.0,0.0,0.0,0.0,0.0,0.0,0.0,0.0,0.0,0.0,0.0,0.0,0.0,0.0,0.0,0.0,0.0,0.0,0.0,0.0,0.0,0.0,0.0,0.0,0.0,0.0,0.0,0.0,0.0,0.0,0.0,0.0,0.0,0.0,0.0,0.0,0.0,0.0,0.0,0.0,0.0,0.0,0.0,0.0,0.0,0.0,0.0,0.0,0.0,0.0,0.0,0.0,0.0,0.0,0.0,0.0,0.0,0.0,0.0,0.0,0.0,0.0,0.0,0.0,0.0,0.0,0.0,0.0,0.0,0.0,0.0,0.0,0.0,0.0,0.0,0.0,0.0,0.0,0.0,0.0,0.0,0.0,0.0,0.0,0.0,0.0,0.0,0.0,0.0,0.0,0.0,0.0,0.0,0.0,0.0,0.0,0.0,0.0,0.0,0.0,0.0,0.0,0.0,0.0,0.0,0.0,0.0,0.0,0.0,0.0,0.0,0.0,0.0,0.0,0.0,0.0,0.0,0.0,0.0,0.0,0.0,0.0,0.0,0.0,0.0,0.0,0.0,0.0,0.0,0.0,0.0,0.0,0.0,0.0,0.0,0.0,0.0,0.0,0.0,0.0,0.0,0.0,0.0,0.0,0.0,0.0,0.0,0.0,0.0,0.0,0.0,0.0,0.0,0.0,0.0,0.0,0.0,0.0,0.0,0.0,0.0,0.0,0.0,0.0,0.0,0.0,0.0,0.0,0.0,0.0,0.0,0.0,0.0,0.0,0.0,0.0,0.0,0.0,0.0,0.0,0.0,0.0,0.0,0.0,0.0,0.0,0.0,0.0,0.0,0.0,0.0,0.0,0.0,0.0,0.0,0.0,0.0,0.0,0.0,0.0,0.0,0.0,0.0,0.0,0.0,0.0,0.0,0.0,0.0,0.0,0.0,0.0,0.0,0.0,0.0,0.0,0.0,0.0,0.0,0.0,0.0,0.0,0.0,0.0,0.0,0.0,0.0,0.0,0.0,0.0,0.0,0.0,0.0,0.0,0.0,0.0,0.0,0.0,0.0,0.0,0.0,0.0,0.0,0.0,0.0,0.0,0.0,0.0,0.0,0.0,0.0,0.0,0.0,0.0,0.0,0.0,0.0,0.0,0.0,0.0,0.0,0.0,0.0,0.0,0.0,0.0,0.0,0.0,0.0,0.0,0.0,0.0,0.0,0.0,0.0,0.0,0.0,0.0,0.0,0.0,0.0,0.0,0.0,0.0,0.0,0.0,0.0,0.0,0.0,0.0,0.0,0.0,0.0,0.0,0.0,0.0,0.0,0.0,0.0,0.0,0.0,0.0,0.0,0.0,0.0,0.0,0.0,0.0,0.0,0.0,0.0,0.0,0.0,0.0,0.0,0.0,0.0,0.0,0.0,0.0,0.0,0.0,0.0,0.0,0.0,0.0,0.0,0.0,0.0,0.0,0.0,0.0,0.0,0.0,0.0,0.0,0.0,0.0,0.0,0.0,0.0,0.0,0.0,0.0,0.0,0.0,0.0,0.0,0.0,0.0,0.0,0.0,0.0,0.0,0.0,0.0,0.0,0.0,0.0,0.0,0.0,0.0,0.0,0.0,0.0,0.0,0.0,0.0,0.0,0.0,0.0,0.0,0.0,0.0,0.0,0.0,0.0,0.0,0.0,0.0,0.0,0.0,0.0,0.0,0.0,0.0,0.0,0.0,0.0,0.0,0.0,0.0,0.0,0.0,0.0,0.0,0.0,0.0,0.0,0.0,0.0,0.0,0.0,0.0,0.0,0.0,0.0,0.0,0.0,0.0,0.0,0.0,0.0,0.0,0.0,0.0,0.0,0.0,0.0,0.0,0.0,0.0,0.0,0.0,0.0,0.0,0.0,0.0,0.0,0.0,0.0,0.0,0.0,0.0,0.0,0.0,0.0,0.0,0.0,0.0,0.0,0.0,0.0,0.0,0.0,0.0,0.0,0.0,0.0,0.0,0.0,0.0,0.0,0.0,0.0,0.0,0.0,0.0,0.0,0.0,0.0,0.0,0.0,0.0,0.0,0.0,0.0,0.0,0.0,0.0,0.0,0.0,0.0,0.0,0.0,0.0,0.0,0.0,0.0,0.0,0.0,0.0,0.0,0.0,0.0,0.0,0.0,0.0,0.0,0.0,0.0,0.0,0.0,0.0,0.0,0.0,0.0,0.0,0.0,0.0,0.0,0.0,0.0,0.0,0.0,0.0,0.0,0.0,0.0,0.0,0.0,0.0,0.0,0.0,0.0,0.0,0.0,0.0,0.0,0.0,0.0,0.0,0.0,0.0,0.0,0.0,0.0,0.0,0.0,0.0,0.0,0.0,0.0,0.0,0.0,0.0,0.0,0.0,0.0,0.0,0.0,0.0,0.0,0.0,0.0,0.0,0.0,0.0,0.0,0.0,0.0,0.0,0.0,0.0,0.0,0.0,0.0,0.0,0.0,0.0,0.0,0.0,0.0,0.0,0.0,0.0,0.0,0.0,0.0,0.0,0.0,0.0,0.0,0.0,0.0,0.0,0.0,0.0,0.0,0.0,0.0,0.0,0.0,0.0,0.0,0.0,0.0,0.0,0.0,0.0,0.0,0.0,0.0,0.0,0.0,0.0,0.0,0.0,0.0,0.0,0.0,0.0,0.0,0.0,0.0,0.0,0.0,0.0,0.0,0.0,0.0,0.0,0.0,0.0,0.0,0.0,0.0,0.0,0.0,0.0,0.0,0.0,0.0,0.0,0.0,0.0,0.0,0.0,0.0,0.0,0.0,0.0,0.0,0.0,0.0,0.0,0.0,0.0,0.0,0.0,0.0,0.0,0.0,0.0,0.0,0.0,0.0,0.0,0.0,0.0,0.0,0.0,0.0,0.0,0.0,0.0,0.0,0.0,0.0,0.0,0.0,0.0,0.0,0.0,0.0,0.0,0.0,0.0,0.0,0.0,0.0,0.0,0.0,0.0,0.0,0.0,0.0,0.0,0.0,0.0,0.0,0.0,0.0,0.0,0.0,0.0,0.0,0.0,0.0,0.0,0.0,0.0,0.0,0.0,0.0,0.0,0.0,0.0,0.0,0.0,0.0,0.0,0.0,0.0,0.0,0.0,0.0,0.0,0.0,0.0,0.0,0.0,0.0,0.0,0.0,0.0,0.0,0.0,0.0,0.0,0.0,0.0,0.0,0.0,0.0,0.0,0.0,0.0,0.0,0.0,0.0,0.0,0.0,0.0,0.0,0.0,0.0,0.0,0.0,0.0,0.0,0.0,0.0,0.0,0.0,0.0,0.0,0.0,0.0,0.0,0.0,0.0,0.0,0.0,0.0,0.0,0.0,0.0,0.0,0.0,0.0,0.0,0.0,0.0,0.0,0.0,0.0,0.0,0.0,0.0,0.0,0.0,0.0,0.0,0.0,0.0,0.0,0.0,0.0,-1.1283,0.0,0.0,0.0,0.0,0.0,0.0,0.0,0.0,0.0,0.0,0.0,0.0,0.0,0.0,0.0,0.0,0.0,0.0,0.0,0.0,0.0,0.0,0.0,0.0,0.0,0.0,0.0,0.0,0.0,0.0,0.0,0.0,0.0,0.0,0.0,0.0,0.0,0.0,0.0,0.0,0.0,0.0,0.0,0.0,0.0,0.0,0.0,0.0,0.0,0.0,0.0,0.0,0.0,0.0,0.0,0.0,0.0,0.0,0.0,0.0,0.0,0.0,0.0,0.0,0.0,0.0,0.0,0.0,0.0,0.0,0.0,0.0,0.0,0.0,0.0,0.0,0.0,0.0,0.0,0.0,0.0,0.0,0.0,0.0,0.0,0.0,0.0,0.0,0.0,0.0,0.0,0.0,0.0,0.0,0.0,0.0,0.0,0.0,0.0,0.0,0.0,0.0,0.0,0.0,0.0,0.0,0.0,0.0,0.0,0.0,-1.18,-1.2174,-1.1287,-1.1035,-1.1579,0.0,0.0,0.0,0.0,0.0,0.0,0.0,0.0,0.0,0.0,0.0,0.0,0.0,0.0,0.0,0.0,0.0,0.0,0.0,0.0,0.0,0.0,0.0,0.0,0.0,0.0,0.0,0.0,0.0,0.0,0.0,0.0,0.0,0.0,0.0,0.0,0.0,0.0,0.0,0.0,0.0,0.0,0.0,0.0,0.0,0.0,0.0,0.0,0.0,0.0,0.0,0.0,0.0,0.0,0.0,0.0,0.0,0.0,0.0,0.0,0.0,0.0,0.0,0.0,0.0,0.0,0.0,0.0,0.0,0.0,0.0,0.0,0.0,0.0,0.0,0.0,0.0,0.0,0.0,0.0,0.0,0.0,0.0,0.0,0.0,0.0,0.0,0.0,0.0,0.0,0.0,0.0,0.0,0.0,0.0,0.0,0.0,0.0,0.0,0.0,0.0,0.0,0.0,0.0,0.0,0.0,0.0,0.0,0.0,0.0,0.0,0.0,-1.21,-1.1959,-1.2152,0.0,0.0,0.0,0.0,0.0,0.0,0.0,0.0,0.0,0.0,0.0,0.0,0.0,0.0,0.0,0.0,0.0,0.0,0.0,0.0,0.0,0.0,0.0,0.0,0.0,0.0,0.0,0.0,0.0,0.0,0.0,0.0,0.0,0.0,0.0,0.0,0.0,0.0,0.0,0.0,0.0,0.0,0.0,0.0,0.0,0.0,0.0,0.0,0.0,0.0,0.0,0.0,0.0,0.0,0.0,0.0,0.0,0.0,0.0,0.0,0.0,0.0,0.0,0.0,0.0,0.0,0.0,0.0,0.0,0.0,0.0,0.0,0.0,0.0,0.0,0.0,0.0,0.0,0.0,0.0,0.0,0.0,0.0,0.0,0.0,0.0,0.0,0.0,0.0,0.0,0.0,0.0,0.0,0.0,0.0,0.0,0.0,0.0,0.0,0.0,0.0,0.0,0.0,0.0,0.0,0.0,0.0,0.0,0.0,0.0,-1.3627,-1.3658,-1.3751,0.0,-1.3827,0.0,0.0,0.0,0.0,0.0,0.0,0.0,0.0,0.0,0.0,0.0,0.0,0.0,0.0,0.0,0.0,0.0,0.0,0.0,0.0,0.0,0.0,0.0,0.0,0.0,0.0,0.0,0.0,0.0,0.0,0.0,0.0,0.0,0.0,0.0,0.0,0.0,0.0,0.0,0.0,0.0,0.0,0.0,0.0,0.0,0.0,0.0,0.0,0.0,0.0,0.0,0.0,0.0,0.0,0.0,0.0,0.0,0.0,0.0,0.0,0.0,0.0,0.0,0.0,0.0,0.0,0.0,0.0,0.0,0.0,0.0,0.0,0.0,0.0,0.0,0.0,0.0,0.0,0.0,0.0,0.0,0.0,0.0,0.0,0.0,0.0,0.0,0.0,0.0,0.0,0.0,0.0,0.0,0.0,0.0,0.0,0.0,0.0,0.0,0.0,0.0,0.0,0.0,0.0,0.0,0.0,0.0,0.0,0.0,0.0,-1.3613,-1.3262,-1.3693,-1.4102,0.0,0.0,0.0,0.0,0.0,0.0,0.0,0.0,0.0,0.0,0.0,0.0,0.0,0.0,0.0,0.0,0.0,0.0,0.0,0.0,0.0,0.0,0.0,0.0,0.0,0.0,0.0,0.0,0.0,0.0,0.0,0.0,0.0,0.0,0.0,0.0,0.0,0.0,0.0,0.0,0.0,0.0,0.0,0.0,0.0,0.0,0.0,0.0,0.0,0.0,0.0,0.0,0.0,0.0,0.0,0.0,0.0,0.0,0.0,0.0,0.0,0.0,0.0,0.0,0.0,0.0,0.0,0.0,0.0,0.0,0.0,0.0,0.0,0.0,0.0,0.0,0.0,0.0,0.0,0.0,0.0,0.0,0.0,0.0,0.0,0.0,0.0,0.0,0.0,0.0,0.0,0.0,0.0,0.0,0.0,0.0,0.0,0.0,0.0,0.0,0.0,0.0,0.0,0.0,0.0,0.0,0.0,0.0,0.0,0.0,-1.4213,-1.4167,-1.3931,-1.4143,-1.4583,-1.5175,0.0,0.0,0.0,0.0,0.0,0.0,0.0,0.0,0.0,0.0,0.0,0.0,0.0,0.0,0.0,0.0,0.0,0.0,0.0,0.0,0.0,0.0,0.0,0.0,0.0,0.0,0.0,0.0,0.0,0.0,0.0,0.0,0.0,0.0,0.0,0.0,0.0,0.0,0.0,0.0,0.0,0.0,0.0,0.0,0.0,0.0,0.0,0.0,0.0,0.0,0.0,0.0,0.0,0.0,0.0,0.0,0.0,0.0,0.0,0.0,0.0,0.0,0.0,0.0,0.0,0.0,0.0,0.0,0.0,0.0,0.0,0.0,0.0,0.0,0.0,0.0,0.0,0.0,0.0,0.0,0.0,0.0,0.0,0.0,0.0,0.0,0.0,0.0,0.0,0.0,0.0,0.0,0.0,0.0,0.0,0.0,0.0,0.0,0.0,0.0,0.0,0.0,0.0,0.0,0.0,0.0,0.0,0.0,-1.4675,-1.5208,-1.5776,-1.6216,-1.5786,-1.582,0.0,0.0,0.0,0.0,0.0,0.0,0.0,0.0,0.0,0.0,0.0,0.0,0.0,0.0,0.0,0.0,0.0,0.0,0.0,0.0,0.0,0.0,0.0,0.0,0.0,0.0,0.0,0.0,0.0,0.0,0.0,0.0,0.0,0.0,0.0,0.0,0.0,0.0,0.0,0.0,0.0,0.0,0.0,0.0,0.0,0.0,0.0,0.0,0.0,0.0,0.0,0.0,0.0,0.0,0.0,0.0,0.0,0.0,0.0,0.0,0.0,0.0,0.0,0.0,0.0,0.0,0.0,0.0,0.0,0.0,0.0,0.0,0.0,0.0,0.0,0.0,0.0,0.0,0.0,0.0,0.0,0.0,0.0,0.0,0.0,0.0,0.0,0.0,0.0,0.0,0.0,0.0,0.0,0.0,0.0,0.0,0.0,0.0,0.0,0.0,0.0,0.0,0.0,0.0,0.0,0.0,0.0,0.0,0.0,-1.531,-1.5107,-1.513,-1.5344,-1.5511,-1.5698,0.0,0.0,0.0,0.0,0.0,0.0,0.0,0.0,0.0,0.0,0.0,0.0,0.0,0.0,0.0,0.0,0.0,0.0,0.0,0.0,0.0,0.0,0.0,0.0,0.0,0.0,0.0,0.0,0.0,0.0,0.0,0.0,0.0,0.0,0.0,0.0,0.0,0.0,0.0,0.0,0.0,0.0,0.0,0.0,0.0,0.0,0.0,0.0,0.0,0.0,0.0,0.0,0.0,0.0,0.0,0.0,0.0,0.0,0.0,0.0,0.0,0.0,0.0,0.0,0.0,0.0,0.0,0.0,0.0,0.0,0.0,0.0,0.0,0.0,0.0,0.0,0.0,0.0,0.0,0.0,0.0,0.0,0.0,0.0,0.0,0.0,0.0,0.0,0.0,0.0,0.0,0.0,0.0,0.0,0.0,0.0,0.0,0.0,0.0,0.0,0.0,0.0,0.0,0.0,0.0,0.0,0.0,0.0,0.0,-1.5632,0.0,-1.4858,-1.5043,-1.5415,-1.5717,0.0,0.0,0.0,0.0,0.0,0.0,0.0,0.0,0.0,0.0,0.0,0.0,0.0,0.0,0.0,0.0,0.0,0.0,0.0,0.0,0.0,0.0,0.0,0.0,0.0,0.0,0.0,0.0,0.0,0.0,0.0,0.0,0.0,0.0,0.0,0.0,0.0,0.0,0.0,0.0,0.0,0.0,0.0,0.0,0.0,0.0,0.0,0.0,0.0,0.0,0.0,0.0,0.0,0.0,0.0,0.0,0.0,0.0,0.0,0.0,0.0,0.0,0.0,0.0,0.0,0.0,0.0,0.0,0.0,0.0,0.0,0.0,0.0,0.0,0.0,0.0,0.0,0.0,0.0,0.0,0.0,0.0,0.0,0.0,0.0,0.0,0.0,0.0,0.0,0.0,0.0,0.0,0.0,0.0,0.0,0.0,0.0,0.0,0.0,0.0,0.0,0.0,0.0,0.0,0.0,0.0,0.0,0.0,-1.6224,-1.5718,-1.5196,-1.5194,-1.5698,-1.5715,-1.5948,0.0,0.0,0.0,0.0,0.0,0.0,0.0,0.0,0.0,0.0,0.0,0.0,0.0,0.0,0.0,0.0,0.0,0.0,0.0,0.0,0.0,0.0,0.0,0.0,0.0,0.0,0.0,0.0,0.0,0.0,0.0,0.0,0.0,0.0,0.0,0.0,0.0,0.0,0.0,0.0,0.0,0.0,0.0,0.0,0.0,0.0,0.0,0.0,0.0,0.0,0.0,0.0,0.0,0.0,0.0,0.0,0.0,0.0,0.0,0.0,0.0,0.0,0.0,0.0,0.0,0.0,0.0,0.0,0.0,0.0,0.0,0.0,0.0,0.0,0.0,0.0,0.0,0.0,0.0,0.0,0.0,0.0,0.0,0.0,0.0,0.0,0.0,0.0,0.0,0.0,0.0,0.0,0.0,0.0,0.0,0.0,0.0,0.0,0.0,0.0,0.0,0.0,0.0,0.0,0.0,0.0,0.0,0.0,0.0,-1.6245,-1.5718,-1.607,-1.7313,-1.6296,-1.6321,0.0,0.0,0.0,0.0,0.0,0.0,0.0,0.0,0.0,0.0,0.0,0.0,0.0,0.0,0.0,0.0,0.0,0.0,0.0,0.0,0.0,0.0,0.0,0.0,0.0,0.0,0.0,0.0,0.0,0.0,0.0,0.0,0.0,0.0,0.0,0.0,0.0,0.0,0.0,0.0,0.0,0.0,0.0,0.0,0.0,0.0,0.0,0.0,0.0,0.0,0.0,0.0,0.0,0.0,0.0,0.0,0.0,0.0,0.0,0.0,0.0,0.0,0.0,0.0,0.0,0.0,0.0,0.0,0.0,0.0,0.0,0.0,0.0,0.0,0.0,0.0,0.0,0.0,0.0,0.0,0.0,0.0,0.0,0.0,0.0,0.0,0.0,0.0,0.0,0.0,0.0,0.0,0.0,0.0,0.0,0.0,0.0,0.0,0.0,0.0,0.0,0.0,0.0,0.0,0.0,0.0,0.0,0.0,0.0,-1.6977,-1.6166,-1.6296,-1.7539,-1.6525,-1.6484,-1.7501,0.0,0.0,0.0,0.0,0.0,0.0,0.0,0.0,0.0,0.0,0.0,0.0,0.0,0.0,0.0,0.0,0.0,0.0,0.0,0.0,0.0,0.0,0.0,0.0,0.0,0.0,0.0,0.0,0.0,0.0,0.0,0.0,0.0,0.0,0.0,0.0,0.0,0.0,0.0,0.0,0.0,0.0,0.0,0.0,0.0,0.0,0.0,0.0,0.0,0.0,0.0,0.0,0.0,0.0,0.0,0.0,0.0,0.0,0.0,0.0,0.0,0.0,0.0,0.0,0.0,0.0,0.0,0.0,0.0,0.0,0.0,0.0,0.0,0.0,0.0,0.0,0.0,0.0,0.0,0.0,0.0,0.0,0.0,0.0,0.0,0.0,0.0,0.0,0.0,0.0,0.0,0.0,0.0,0.0,0.0,0.0,0.0,0.0,0.0,0.0,0.0,0.0,0.0,0.0,0.0,0.0,0.0,0.0,-1.8074,-1.668,-1.622,-1.6713,-1.6626,-1.6563,0.0,0.0,0.0,0.0,0.0,0.0,0.0,0.0,0.0,0.0,0.0,0.0,0.0,0.0,0.0,0.0,0.0,0.0,0.0,0.0,0.0,0.0,0.0,0.0,0.0,0.0,0.0,0.0,0.0,0.0,0.0,0.0,0.0,0.0,0.0,0.0,0.0,0.0,0.0,0.0,0.0,0.0,0.0,0.0,0.0,0.0,0.0,0.0,0.0,0.0,0.0,0.0,0.0,0.0,0.0,0.0,0.0,0.0,0.0,0.0,0.0,0.0,0.0,0.0,0.0,0.0,0.0,0.0,0.0,0.0,0.0,0.0,0.0,0.0,0.0,0.0,0.0,0.0,0.0,0.0,0.0,0.0,0.0,0.0,0.0,0.0,0.0,0.0,0.0,0.0,0.0,0.0,0.0,0.0,0.0,0.0,0.0,0.0,0.0,0.0,0.0,0.0,0.0,0.0,0.0,0.0,0.0,0.0,0.0,-1.9121,-1.8885,-1.8794,-1.8907,-1.779,-1.735,0.0,0.0,0.0,0.0,0.0,0.0,0.0,0.0,0.0,0.0,0.0,0.0,0.0,0.0,0.0,0.0,0.0,0.0,0.0,0.0,0.0,0.0,0.0,0.0,0.0,0.0,0.0,0.0,0.0,0.0,0.0,0.0,0.0,0.0,0.0,0.0,0.0,0.0,0.0,0.0,0.0,0.0,0.0,0.0,0.0,0.0,0.0,0.0,0.0,0.0,0.0,0.0,0.0,0.0,0.0,0.0,0.0,0.0,0.0,0.0,0.0,0.0,0.0,0.0,0.0,0.0,0.0,0.0,0.0,0.0,0.0,0.0,0.0,0.0,0.0,0.0,0.0,0.0,0.0,0.0,0.0,0.0,0.0,0.0,0.0,0.0,0.0,0.0,0.0,0.0,0.0,0.0,0.0,0.0,0.0,0.0,0.0,0.0,0.0,0.0,0.0,0.0,0.0,0.0,0.0,0.0,0.0,0.0,-1.9436,-2.0316,-2.0978,-2.1178,-2.0865,-2.0079,-1.9078,0.0,0.0,0.0,0.0,0.0,0.0,0.0,0.0,0.0,0.0,0.0,0.0,0.0,0.0,0.0,0.0,0.0,0.0,0.0,0.0,0.0,0.0,0.0,0.0,0.0,0.0,0.0,0.0,0.0,0.0,0.0,0.0,0.0,0.0,0.0,0.0,0.0,0.0,0.0,0.0,0.0,0.0,0.0,0.0,0.0,0.0,0.0,0.0,0.0,0.0,0.0,0.0,0.0,0.0,0.0,0.0,0.0,0.0,0.0,0.0,0.0,0.0,0.0,0.0,0.0,0.0,0.0,0.0,0.0,0.0,0.0,0.0,0.0,0.0,0.0,0.0,0.0,0.0,0.0,0.0,0.0,0.0,0.0,0.0,0.0,0.0,0.0,0.0,0.0,0.0,0.0,0.0,0.0,0.0,0.0,0.0,0.0,0.0,0.0,0.0,0.0,0.0,0.0,0.0,0.0,0.0,0.0,0.0,-2.0706,-2.1618,-2.2844,-2.3243,-2.2727,-2.2634,-2.1026,0.0,0.0,0.0,0.0,0.0,0.0,0.0,0.0,0.0,0.0,0.0,0.0,0.0,0.0,0.0,0.0,0.0,0.0,0.0,0.0,0.0,0.0,0.0,0.0,0.0,0.0,0.0,0.0,0.0,0.0,0.0,0.0,0.0,0.0,0.0,0.0,0.0,0.0,0.0,0.0,0.0,0.0,0.0,0.0,0.0,0.0,0.0,0.0,0.0,0.0,0.0,0.0,0.0,0.0,0.0,0.0,0.0,0.0,0.0,0.0,0.0,0.0,0.0,0.0,0.0,0.0,0.0,0.0,0.0,0.0,0.0,0.0,0.0,0.0,0.0,0.0,0.0,0.0,0.0,0.0,0.0,0.0,0.0,0.0,0.0,0.0,0.0,0.0,0.0,0.0,0.0,0.0,0.0,0.0,0.0,0.0,0.0,0.0,0.0,0.0,0.0,0.0,0.0,0.0,0.0,0.0,0.0,0.0,-2.2113,-2.3621,-2.396,-2.45,-2.5245,-2.2575,-2.0361,0.0,0.0,0.0,0.0,0.0,0.0,0.0,0.0,0.0,0.0,0.0,0.0,0.0,0.0,0.0,0.0,0.0,0.0,0.0,0.0,0.0,0.0,0.0,0.0,0.0,0.0,0.0,0.0,0.0,0.0,0.0,0.0,0.0,0.0,0.0,0.0,0.0,0.0,0.0,0.0,0.0,0.0,0.0,0.0,0.0,0.0,0.0,0.0,-1.5544,0.0,0.0,0.0,0.0,0.0,0.0,0.0,0.0,0.0,0.0,0.0,0.0,0.0,0.0,0.0,0.0,0.0,0.0,0.0,0.0,0.0,0.0,0.0,0.0,0.0,0.0,0.0,0.0,0.0,0.0,0.0,0.0,0.0,0.0,0.0,0.0,0.0,0.0,0.0,0.0,0.0,0.0,0.0,0.0,0.0,0.0,0.0,0.0,0.0,0.0,0.0,0.0,0.0,0.0,0.0,0.0,0.0,0.0,0.0,-2.3615,-2.4733,-2.5602,-2.618,-2.636,-2.3511,-2.1379,0.0,0.0,0.0,0.0,0.0,0.0,0.0,0.0,0.0,0.0,0.0,0.0,0.0,0.0,0.0,0.0,0.0,0.0,0.0,0.0,0.0,0.0,0.0,0.0,0.0,0.0,0.0,0.0,0.0,0.0,0.0,0.0,0.0,0.0,0.0,0.0,0.0,0.0,0.0,0.0,0.0,0.0,0.0,0.0,0.0,0.0,0.0,0.0,0.0,0.0,0.0,0.0,0.0,0.0,0.0,0.0,0.0,0.0,0.0,0.0,0.0,0.0,0.0,0.0,0.0,0.0,0.0,0.0,0.0,0.0,0.0,0.0,0.0,0.0,0.0,0.0,0.0,0.0,0.0,0.0,0.0,0.0,0.0,0.0,0.0,0.0,0.0,0.0,0.0,0.0,0.0,0.0,0.0,0.0,0.0,0.0,0.0,0.0,0.0,0.0,0.0,0.0,0.0,0.0,0.0,0.0,0.0,-2.3708,-2.5062,-2.5675,-2.7326,-2.793,-2.739,-2.4944,-2.3215,-2.2376,0.0,0.0,0.0,0.0,0.0,0.0,0.0,0.0,0.0,0.0,0.0,0.0,0.0,0.0,0.0,0.0,0.0,0.0,0.0,0.0,0.0,0.0,0.0,0.0,0.0,0.0,0.0,0.0,0.0,0.0,0.0,0.0,0.0,0.0,0.0,0.0,0.0,0.0,-1.7224,-1.7526,0.0,0.0,0.0,0.0,0.0,0.0,0.0,0.0,-1.697,0.0,0.0,0.0,0.0,0.0,0.0,0.0,0.0,0.0,0.0,0.0,0.0,0.0,0.0,0.0,0.0,0.0,0.0,0.0,0.0,0.0,0.0,0.0,0.0,0.0,0.0,0.0,0.0,0.0,0.0,0.0,0.0,0.0,0.0,0.0,0.0,0.0,0.0,0.0,0.0,0.0,0.0,0.0,0.0,0.0,0.0,0.0,0.0,0.0,0.0,0.0,0.0,0.0,0.0,0.0,0.0,-2.171,-2.4178,-2.6007,-2.7204,-2.8422,-2.9296,-2.9647,-2.6689,-2.5204,-2.5378,0.0,0.0,0.0,0.0,0.0,0.0,0.0,0.0,0.0,0.0,0.0,0.0,0.0,0.0,0.0,0.0,0.0,0.0,0.0,0.0,0.0,0.0,0.0,0.0,0.0,0.0,0.0,0.0,0.0,0.0,0.0,0.0,0.0,0.0,0.0,0.0,0.0,0.0,0.0,-1.8601,-1.9156,0.0,0.0,0.0,0.0,0.0,0.0,0.0,0.0,-1.8318,0.0,0.0,0.0,0.0,0.0,0.0,0.0,0.0,0.0,0.0,0.0,0.0,0.0,0.0,0.0,0.0,0.0,0.0,0.0,0.0,0.0,0.0,0.0,0.0,0.0,0.0,0.0,0.0,0.0,0.0,0.0,0.0,0.0,0.0,0.0,0.0,0.0,0.0,0.0,0.0,0.0,0.0,0.0,0.0,0.0,0.0,0.0,0.0,0.0,0.0,0.0,0.0,0.0,0.0,0.0,-2.2712,-2.4627,-2.6243,-2.7575,-2.9054,-2.9793,-2.9721,-2.6889,-2.5491,0.0,0.0,0.0,0.0,0.0,0.0,0.0,0.0,0.0,0.0,0.0,0.0,0.0,0.0,0.0,0.0,0.0,0.0,0.0,0.0,0.0,0.0,0.0,0.0,0.0,0.0,0.0,0.0,0.0,0.0,0.0,0.0,0.0,0.0,0.0,0.0,0.0,0.0,0.0,0.0,-1.9441,-1.9659,-1.8707,0.0,0.0,0.0,0.0,0.0,0.0,-1.8927,-1.9046,0.0,0.0,0.0,0.0,0.0,0.0,0.0,0.0,0.0,0.0,0.0,0.0,0.0,0.0,0.0,0.0,0.0,0.0,0.0,0.0,0.0,0.0,0.0,0.0,0.0,0.0,0.0,0.0,0.0,0.0,0.0,0.0,0.0,0.0,0.0,0.0,0.0,0.0,0.0,0.0,0.0,0.0,0.0,0.0,0.0,0.0,0.0,0.0,0.0,0.0,0.0,0.0,0.0,0.0,0.0,-2.3422,-2.4866,-2.6183,-2.741,-2.9209,-2.99,-2.9334,-2.6748,-2.5412,0.0,0.0,0.0,0.0,0.0,0.0,0.0,0.0,0.0,0.0,0.0,0.0,0.0,0.0,0.0,0.0,0.0,0.0,0.0,0.0,0.0,0.0,0.0,0.0,0.0,0.0,0.0,0.0,0.0,0.0,0.0,0.0,0.0,0.0,0.0,0.0,0.0,0.0,0.0,0.0,0.0,-2.0099,-1.9735,-1.9947,0.0,0.0,0.0,0.0,-2.0183,-1.9739,0.0,0.0,0.0,0.0,0.0,0.0,0.0,0.0,0.0,0.0,0.0,0.0,0.0,0.0,0.0,0.0,0.0,0.0,0.0,0.0,0.0,0.0,0.0,0.0,0.0,0.0,0.0,0.0,0.0,0.0,0.0,0.0,0.0,0.0,0.0,0.0,0.0,0.0,0.0,0.0,0.0,0.0,0.0,0.0,0.0,0.0,0.0,0.0,0.0,0.0,0.0,0.0,0.0,0.0,0.0,0.0,-2.2838,-2.4657,-2.5959,-2.6752,-2.8648,-2.965,-2.953,-2.6986,-2.5845,0.0,0.0,0.0,0.0,0.0,0.0,0.0,0.0,0.0,0.0,0.0,0.0,0.0,0.0,0.0,0.0,0.0,0.0,0.0,0.0,0.0,0.0,0.0,0.0,0.0,0.0,0.0,0.0,0.0,0.0,0.0,0.0,0.0,0.0,0.0,0.0,0.0,0.0,0.0,0.0,0.0,-2.1038,-2.097,-2.0805,-2.1028,0.0,0.0,-2.1701,-2.1156,-2.0987,0.0,0.0,0.0,0.0,0.0,0.0,0.0,0.0,0.0,0.0,0.0,0.0,0.0,0.0,0.0,0.0,0.0,0.0,0.0,0.0,0.0,0.0,0.0,0.0,0.0,0.0,0.0,0.0,0.0,0.0,0.0,0.0,0.0,0.0,0.0,0.0,0.0,0.0,0.0,0.0,0.0,0.0,0.0,0.0,0.0,0.0,0.0,0.0,0.0,0.0,0.0,0.0,0.0,0.0,0.0,-2.2188,-2.3212,-2.4433,-2.5531,-2.6587,-2.8188,-2.8858,-2.8468,-2.5854,-2.4777,0.0,0.0,0.0,0.0,0.0,0.0,0.0,0.0,0.0,0.0,0.0,0.0,0.0,0.0,0.0,0.0,0.0,0.0,0.0,0.0,0.0,0.0,0.0,0.0,0.0,0.0,0.0,0.0,0.0,0.0,0.0,0.0,0.0,0.0,0.0,0.0,0.0,0.0,0.0,0.0,0.0,0.0,-2.182,-2.1735,0.0,0.0,0.0,-2.2852,-2.1972,0.0,0.0,0.0,0.0,0.0,0.0,0.0,0.0,0.0,0.0,0.0,0.0,0.0,0.0,0.0,0.0,0.0,0.0,0.0,0.0,0.0,0.0,0.0,0.0,0.0,0.0,0.0,0.0,0.0,0.0,0.0,0.0,0.0,0.0,0.0,0.0,0.0,0.0,0.0,0.0,0.0,0.0,0.0,0.0,0.0,0.0,0.0,0.0,0.0,0.0,0.0,0.0,0.0,0.0,0.0,0.0,0.0,-2.3834,-2.4335,-2.5158,-2.6333,-2.7649,-2.8049,-2.733,-2.5076,0.0,0.0,0.0,0.0,0.0,0.0,0.0,0.0,0.0,0.0,0.0,0.0,0.0,0.0,0.0,0.0,0.0,0.0,0.0,0.0,0.0,0.0,0.0,0.0,0.0,0.0,0.0,-1.6965,0.0,0.0,0.0,0.0,0.0,0.0,0.0,0.0,0.0,0.0,0.0,0.0,0.0,0.0,-2.2313,-2.2313,-2.2313,-2.2313,0.0,0.0,-2.3156,-2.2415,-2.2313,-2.2313,0.0,0.0,0.0,0.0,0.0,0.0,0.0,0.0,0.0,0.0,0.0,0.0,0.0,0.0,0.0,0.0,0.0,0.0,0.0,0.0,0.0,0.0,0.0,0.0,0.0,0.0,0.0,0.0,0.0,0.0,0.0,0.0,0.0,0.0,0.0,0.0,0.0,0.0,0.0,0.0,0.0,0.0,0.0,0.0,0.0,0.0,0.0,0.0,0.0,0.0,0.0,0.0,0.0,0.0,0.0,-2.4485,-2.4575,-2.4948,-2.5689,-2.6961,-2.7345,-2.6662,-2.5262,-2.453,0.0,0.0,0.0,0.0,0.0,0.0,0.0,0.0,0.0,0.0,0.0,0.0,0.0,0.0,0.0,0.0,0.0,0.0,0.0,0.0,0.0,0.0,0.0,0.0,0.0,0.0,0.0,0.0,0.0,0.0,0.0,0.0,0.0,0.0,0.0,0.0,0.0,0.0,0.0,0.0,0.0,-2.2313,-2.2313,-2.2313,-2.2313,0.0,0.0,-2.2364,-2.2313,-2.2313,-2.2313,-2.2313,0.0,0.0,0.0,0.0,0.0,0.0,0.0,0.0,0.0,0.0,0.0,0.0,0.0,0.0,0.0,0.0,0.0,0.0,0.0,0.0,0.0,0.0,0.0,0.0,0.0,0.0,0.0,0.0,0.0,0.0,0.0,0.0,0.0,0.0,0.0,0.0,0.0,0.0,0.0,0.0,0.0,0.0,0.0,0.0,0.0,0.0,0.0,0.0,0.0,0.0,0.0,0.0,0.0,-2.3325,-2.4552,-2.4605,-2.4933,-2.56,-2.6108,-2.6243,-2.5989,-2.4328,-2.343,0.0,0.0,0.0,0.0,0.0,0.0,0.0,0.0,0.0,0.0,0.0,0.0,0.0,0.0,0.0,0.0,0.0,0.0,0.0,0.0,0.0,0.0,0.0,0.0,0.0,0.0,0.0,0.0,-1.848,-1.8998,-2.0039,0.0,0.0,0.0,0.0,0.0,0.0,0.0,0.0,0.0,0.0,-2.2818,-2.2378,-2.2313,0.0,0.0,-2.2313,-2.2313,-2.2313,-2.2699,-2.2835,-2.2378,-2.2313,0.0,0.0,0.0,0.0,0.0,0.0,0.0,0.0,0.0,0.0,0.0,0.0,0.0,0.0,0.0,0.0,0.0,0.0,0.0,0.0,0.0,0.0,0.0,0.0,0.0,0.0,0.0,0.0,0.0,0.0,0.0,0.0,0.0,0.0,0.0,0.0,0.0,0.0,0.0,0.0,0.0,0.0,0.0,0.0,0.0,0.0,0.0,0.0,0.0,0.0,0.0,0.0,-2.3909,-2.5173,-2.5008,-2.5113,-2.56,-2.5809,-2.5719,-2.53,-2.3984,-2.3161,0.0,0.0,0.0,0.0,0.0,0.0,0.0,0.0,0.0,0.0,0.0,0.0,0.0,0.0,0.0,0.0,0.0,0.0,0.0,0.0,0.0,0.0,0.0,0.0,0.0,0.0,0.0,0.0,-1.9531,-2.0113,-2.0732,0.0,0.0,0.0,0.0,0.0,0.0,0.0,0.0,0.0,0.0,-2.3139,-2.2429,-2.2564,-2.2716,-2.2649,-2.2939,-2.3071,-2.2682,-2.3071,-2.3207,-2.2716,0.0,0.0,0.0,0.0,0.0,0.0,0.0,0.0,0.0,0.0,0.0,0.0,0.0,0.0,0.0,0.0,0.0,0.0,0.0,0.0,0.0,0.0,0.0,0.0,0.0,0.0,0.0,0.0,0.0,0.0,-2.8047,0.0,0.0,0.0,0.0,0.0,0.0,0.0,0.0,0.0,0.0,0.0,0.0,0.0,0.0,0.0,0.0,0.0,0.0,0.0,0.0,0.0,0.0,-2.5187,-2.6497,-2.5899,-2.56,-2.5621,-2.6228,-2.5944,-2.4709,-2.4575,-2.4216,-2.358,0.0,0.0,0.0,0.0,0.0,0.0,0.0,0.0,0.0,0.0,0.0,0.0,0.0,0.0,0.0,0.0,0.0,0.0,0.0,0.0,0.0,0.0,0.0,0.0,0.0,0.0,-1.9719,-2.0449,-2.1014,0.0,0.0,0.0,0.0,0.0,0.0,0.0,0.0,0.0,0.0,-2.3376,-2.3154,-2.2446,-2.3154,-2.3628,-2.3376,-2.434,-2.4697,-2.3494,-2.3359,-2.3408,0.0,0.0,0.0,0.0,0.0,0.0,0.0,0.0,0.0,0.0,0.0,0.0,0.0,0.0,0.0,0.0,0.0,0.0,0.0,0.0,0.0,0.0,0.0,0.0,0.0,0.0,0.0,-3.0566,-2.9711,0.0,0.0,0.0,0.0,0.0,0.0,0.0,0.0,0.0,0.0,0.0,-2.7775,-2.8066,0.0,0.0,0.0,0.0,0.0,0.0,0.0,0.0,0.0,0.0,0.0,0.0,-2.5719,-2.6542,-2.6378,-2.6273,-2.6258,-2.6048,-2.5734,-2.5262,-2.4403,-2.3834,-2.361,0.0,0.0,0.0,0.0,0.0,0.0,0.0,0.0,0.0,0.0,0.0,0.0,0.0,0.0,0.0,0.0,0.0,0.0,0.0,0.0,0.0,0.0,0.0,0.0,0.0,-2.0382,0.0,0.0,0.0,0.0,0.0,0.0,0.0,0.0,0.0,0.0,0.0,-2.4695,-2.4203,-2.4135,-2.3864,-2.3139,-2.3475,-2.3543,0.0,0.0,0.0,0.0,0.0,0.0,0.0,0.0,0.0,0.0,0.0,0.0,0.0,0.0,-2.757,-2.5599,-2.4838,-2.453,-2.4591,0.0,0.0,0.0,0.0,0.0,0.0,0.0,0.0,0.0,0.0,0.0,0.0,0.0,0.0,-3.2028,0.0,-3.1627,0.0,0.0,0.0,0.0,0.0,0.0,0.0,0.0,-2.9035,-2.9334,-2.949,-3.0,-3.0477,0.0,-3.0687,-2.9909,0.0,0.0,0.0,0.0,0.0,0.0,0.0,0.0,-2.6497,-2.6926,-2.6731,-2.6602,-2.6572,-2.6183,-2.5839,-2.56,-2.4537,-2.3954,-2.3932,-2.3362,-2.3017,0.0,0.0,0.0,0.0,0.0,0.0,0.0,0.0,0.0,0.0,0.0,0.0,0.0,0.0,0.0,0.0,0.0,0.0,0.0,0.0,0.0,0.0,0.0,-2.0484,0.0,0.0,0.0,0.0,0.0,0.0,0.0,0.0,0.0,-2.4171,-2.5,-2.5423,-2.4948,-2.488,-2.4626,-2.3881,0.0,0.0,0.0,0.0,0.0,0.0,0.0,-2.363,-2.4086,-2.3934,-2.4093,-2.5014,-2.5128,-2.5493,-2.6724,0.0,0.0,-2.6348,-2.5758,-2.5532,-2.5462,-2.587,-2.6219,-2.6237,-2.6429,-2.6437,0.0,0.0,0.0,0.0,0.0,0.0,0.0,0.0,-3.2751,-3.3439,0.0,-3.3155,0.0,0.0,0.0,0.0,0.0,-2.9729,0.0,0.0,-3.0612,-3.0928,-3.1511,-3.1585,-3.1615,-3.163,-3.2198,-3.1839,-3.0507,-2.8622,0.0,0.0,0.0,0.0,0.0,0.0,-2.7585,-2.7555,-2.6971,-2.6632,-2.6671,-2.6587,-2.6273,-2.5615,-2.4933,-2.459,-2.4575,-2.3939,-2.3595,-2.3595,-2.358,0.0,0.0,0.0,0.0,0.0,0.0,0.0,0.0,0.0,0.0,0.0,0.0,0.0,0.0,0.0,0.0,0.0,0.0,0.0,0.0,-2.0679,0.0,0.0,0.0,0.0,0.0,0.0,0.0,0.0,0.0,0.0,-2.5659,-2.5676,-2.5659,-2.5693,0.0,0.0,0.0,0.0,-2.5576,-2.5524,-2.6167,-2.6353,-2.5625,-2.5524,-2.5525,-2.5575,0.0,0.0,-2.5438,-2.6191,-2.6826,-2.7296,-2.7661,-2.7761,-2.7286,-2.796,-2.8425,-2.7787,-2.7603,-2.778,-2.7732,-2.72,-2.6767,-3.6656,0.0,0.0,0.0,0.0,-3.5355,-3.6043,-3.6716,-3.6701,-3.6387,-3.5833,-3.4502,0.0,0.0,0.0,0.0,0.0,0.0,-3.1764,-3.1944,-3.2422,-3.2751,-3.2931,-3.341,-3.3634,-3.3634,-3.335,-3.2781,-3.1869,-3.0402,-2.9549,-2.928,0.0,0.0,0.0,0.0,-2.7585,-2.757,-2.7405,-2.7315,-2.7315,-2.6826,-2.6273,-2.5606,-2.4948,-2.4605,-2.4605,-2.3969,-2.3595,-2.3595,-2.3595,0.0,0.0,0.0,0.0,0.0,0.0,0.0,0.0,0.0,0.0,0.0,0.0,0.0,0.0,0.0,0.0,0.0,0.0,0.0,-2.2309,-2.2996,-2.3141,0.0,0.0,0.0,0.0,0.0,0.0,0.0,0.0,0.0,-2.7012,-2.6708,-2.659,0.0,0.0,-2.5727,-2.6031,-2.5812,-2.5406,-2.4897,-2.5439,0.0,0.0,-2.4829,-2.4983,-2.5508,-2.5862,-2.6146,-2.632,-2.6869,-2.7199,-2.6976,-2.729,-2.7619,-2.7686,-2.7435,-2.7259,-2.7034,-2.7383,-2.778,-2.7805,-2.8026,-2.8143,-3.9694,-3.6806,-3.6552,-3.6522,-3.6701,-3.7375,-3.7928,-3.8362,-3.8108,-3.7868,-3.7524,-3.5699,-3.4592,-3.4023,-3.2856,0.0,0.0,0.0,-3.3036,-3.332,-3.3709,-3.4038,-3.4307,-3.4696,-3.4876,-3.4893,-3.4472,-3.3948,-3.3275,-3.2213,-3.1509,-3.1076,0.0,0.0,-2.9325,-2.8936,-2.8487,-2.8019,-2.8004,-2.7869,-2.76,-2.721,-2.6797,-2.6393,-2.5749,-2.5405,-2.539,-2.4507,-2.4014,-2.3999,-2.3744,-2.3595,0.0,0.0,0.0,0.0,0.0,0.0,0.0,0.0,0.0,0.0,0.0,-2.2205,0.0,0.0,0.0,0.0,-2.3702,-2.3881,-2.2982,-2.4098,0.0,0.0,0.0,0.0,0.0,0.0,0.0,-2.7486,-2.7215,-2.7283,-2.8146,-2.7604,-2.7199,-2.735,-2.659,-2.6201,-2.664,0.0,-2.5879,-2.5423,-2.5744,-2.5879,-2.5455,-2.5371,-2.554,-2.5964,-2.6387,-2.6758,-2.6923,-2.7083,-2.7178,-2.721,-2.7348,-2.747,-2.7424,-2.7237,-2.7228,-2.7512,-2.7923,-2.8264,-2.8282,-2.8675,-2.884,-4.2402,-4.0651,-3.9993,-3.9275,-3.8616,-3.9275,-3.923,-3.8676,-3.8033,-3.8392,-3.9275,-3.6791,-3.5938,-3.6297,-3.4412,0.0,-3.3649,-3.3604,-3.3918,-3.4578,-3.4593,-3.4891,-3.5489,-3.5489,-3.5489,-3.5489,-3.5489,-3.5175,-3.4578,-3.3873,-3.3574,-3.3514,-3.1629,-3.0642,-3.0597,-3.0477,-2.9849,-2.8697,-2.8682,-2.8353,-2.769,-2.7675,-2.7645,-2.757,-2.6941,-2.6581,-2.6507,-2.5277,-2.459,-2.4515,-2.3917,-2.3595,-2.3595,0.0,0.0,0.0,0.0,0.0,0.0,0.0,0.0,0.0,0.0,0.0,0.0,0.0,0.0,0.0,-2.3847,0.0,-2.3526,-2.459,0.0,0.0,0.0,-2.7114,-2.7773,-2.7874,-2.8196,-2.8976,0.0,0.0,-2.9077,-2.8399,-2.7638,-2.6962,-2.6776,-2.6742,-2.6877,-2.6793,-2.6708,-2.6607,-2.6674,-2.6691,-2.6556,-2.6556,-2.6573,-2.6623,-2.6708,-2.6808,-2.7098,-2.6955,-2.7052,-2.7574,-2.7607,-2.7303,-2.6774,-2.7324,-2.8106,-2.864,-2.8868,-2.8922,-2.8938,-2.8987,-2.8987,-4.4272,-4.3329,-4.2632,-4.1444,-3.9993,-4.0621,-4.11,-4.1392,-4.0748,-4.0337,-4.0023,-3.7898,-3.6507,-3.5684,-3.4696,-3.4563,-3.5011,-3.4518,-3.4607,-3.5235,-3.525,-3.5355,-3.5489,-3.5489,-3.5489,-3.5489,-3.5489,-3.5429,-3.5235,-3.4577,-3.4279,-3.4189,-3.2766,-3.175,-3.1241,-3.0298,-2.9654,-2.9382,-2.9382,-2.9026,-2.8382,-2.8353,-2.8113,-2.76,-2.6956,-2.6348,-2.5854,-2.5038,-2.4365,-2.3879,-2.3684,-2.3595,-2.3595,-2.4081,0.0,0.0,0.0,0.0,0.0,0.0,0.0,0.0,0.0,-2.4766,-2.4957,0.0,-2.5466,0.0,-2.5924,-2.6202,-2.5899,-2.7177,0.0,0.0,-2.7907,-2.8349,-2.8146,-2.8467,-2.8925,-2.9484,-2.923,-2.9213,-2.977,-2.9194,-2.8654,-2.8468,-2.7453,-2.7114,-2.8214,-2.7419,-2.6708,-2.6708,-2.6708,-2.6708,-2.6708,-2.6708,-2.6708,-2.6708,-2.6708,-2.6741,-2.6841,-2.6758,-2.6758,-2.6955,-2.6938,-2.6841,-2.6725,-2.7348,-2.7826,-2.7908,-2.8206,-2.8645,-2.8929,-2.8975,-2.8975,-4.4915,-4.4257,-4.3574,-4.2662,-4.1743,-4.2102,-4.2447,-4.2701,-4.1788,-4.1175,-4.0696,-3.8721,-3.7285,-3.6327,-3.5701,-3.5612,-3.5893,-3.5549,-3.5579,-3.5938,-3.5938,-3.5938,-3.5923,-3.5639,-3.5489,-3.5489,-3.5489,-3.5489,-3.5474,-3.5115,-3.4921,-3.4906,-3.3888,-3.3066,-3.2377,-3.1091,-3.0298,-2.9998,-2.9741,-2.9265,-2.8622,-2.8592,-2.8427,-2.8064,-2.7405,-2.7006,-2.6931,-2.6004,-2.533,-2.4956,-2.4642,-2.4492,-2.4492,-2.4829,-2.4874,0.0,0.0,0.0,0.0,0.0,0.0,0.0,0.0,0.0,0.0,0.0,-2.735,-2.7334,-2.7718,-2.7893,-2.7739,-2.8807,-2.9313,-2.8855,-2.9516,-2.9854,-2.9567,-2.9786,-3.0076,-3.033,-3.0144,-3.0144,-3.0531,-2.9956,-2.9636,-2.9924,-2.8366,-2.7503,-2.8163,-2.7435,-2.6708,-2.6708,-2.6708,-2.6708,-2.6708,-2.6708,-2.6708,-2.6708,-2.6708,-2.6708,-2.6708,-2.6708,-2.6708,-2.6708,-2.6708,-2.6708,-2.6725,-2.7194,-2.7604,-2.7715,-2.7772,-2.8016,-2.8404,-2.8267,-2.8098,-4.484,-4.4257,-4.3559,-4.3305,-4.3305,-4.3305,-4.3305,-4.3215,-4.2043,-4.1452,-4.1183,-3.932,-3.8197,-3.7629,-3.7015,-3.6731,-3.6716,-3.6552,-3.6492,-3.6492,-3.6492,-3.6432,-3.6342,-3.5863,-3.5579,-3.5504,-3.5489,-3.5489,-3.5489,-3.5489,-3.5489,-3.5474,-3.4816,-3.4219,-3.3589,-3.2317,-3.1286,-3.0642,-3.0118,-2.952,-2.8861,-2.8831,-2.8757,-2.8592,-2.8049,-2.7929,-2.8293,-2.7215,-2.6542,-2.6437,-2.5914,-2.56,-2.5615,-2.5689,-2.5681,0.0,-2.5689,0.0,0.0,0.0,0.0,0.0,0.0,0.0,0.0,-2.8593,-2.9111,-2.8993,-2.9094,-2.9145,-2.9128,-2.9803,-3.0243,-3.026,-3.0818,-3.119,-3.119,-3.119,-3.119,-3.119,-3.119,-3.119,-3.114,-3.0615,-3.0497,-3.0835,-2.9277,-2.8027,-2.7925,-2.7266,-2.6708,-2.6708,-2.6708,-2.6708,-2.6708,-2.6708,-2.6708,-2.6708,-2.6708,-2.6708,-2.6708,-2.6708,-2.6708,-2.6708,-2.6708,-2.6623,-2.6488,-2.6795,-2.7202,-2.7248,-2.6988,-2.702,-2.7669,-2.7442,-2.7054,-4.4421,-4.4242,-4.3574,-4.3305,-4.3305,-4.3305,-4.3305,-4.3245,-4.2521,-4.1617,-4.0531,-3.9619,-3.9119,-3.899,-3.8332,-3.8068,-3.7973,-3.6956,-3.6492,-3.6492,-3.6492,-3.6193,-3.5729,-3.6103,-3.6013,-3.5519,-3.5489,-3.5489,-3.5489,-3.5489,-3.5489,-3.5474,-3.4816,-3.4459,-3.4264,0.0,0.0,0.0,-3.1212,-3.0793,-3.0163,-3.0148,-2.9639,-2.8652,-2.8487,0.0,-2.7021,-2.6746,-2.6333,-2.5839,-2.5674,0.0,0.0,0.0,0.0,0.0,0.0,0.0,0.0,0.0,0.0,0.0,-2.7778,-2.8514,-2.9493,-2.9774,-2.9634,-2.9077,-2.9533,-2.9905,-2.9905,-3.0565,-3.0987,-3.0987,-3.1123,-3.119,-3.119,-3.119,-3.119,-3.119,-3.119,-3.119,-3.1173,-3.1055,-3.1021,-3.1072,-2.9805,-2.8857,-2.8756,-2.7554,-2.6742,-2.6708,-2.6708,-2.6708,-2.6708,-2.6708,-2.6708,-2.6708,-2.6708,-2.6708,-2.6708,-2.6708,-2.6708,-2.6708,-2.6708,-2.6302,-2.5202,-2.5697,-2.6202,-2.5324,-2.5065,-2.5517,-2.7379,-2.7441,-2.6998,-4.4601,0.0,-4.3559,-4.3305,0.0,-4.3305,-4.3095,-4.2791,-4.2201,-4.1145,-3.9903,-3.9559,-3.9388,-3.9379,-3.8691,-3.8377,-3.8347,-3.7719,-3.7419,-3.7419,-3.7419,-3.7255,-3.6926,-3.6626,-3.6312,-3.5983,-3.5669,-3.5489,-3.5489,-3.5489,-3.5489,-3.5489,-3.516,-3.4816,-3.4474,-3.317,-3.2153,-3.1511,-3.1496,-3.1182,-3.0537,-3.0492,-3.0193,-2.9549,0.0,0.0,0.0,0.0,0.0,0.0,0.0,0.0,0.0,0.0,0.0,-2.6617,-2.7225,-2.744,-2.7141,-2.7639,-2.8418,-2.9399,-2.9967,-3.0253,-3.0202,-3.046,-3.048,-3.0125,-3.0429,-3.0649,-3.0666,-3.0987,-3.119,-3.119,-3.119,-3.119,-3.119,-3.119,-3.119,-3.119,-3.119,-3.119,-3.119,-3.119,-3.119,-3.114,-3.026,-2.9397,-2.8942,-2.7672,-2.6708,-2.6708,-2.6708,-2.6708,-2.6708,-2.6708,-2.6708,-2.6708,-2.6708,-2.6708,-2.6708,-2.6708,-2.6708,-2.6708,-2.6708,-2.6218,-2.4962,-2.5405,-2.5908,-2.5031,-2.4584,-2.4698,-2.5906,-2.5827,-2.5557,-4.4631,-4.4092,-4.3529,-4.3305,-4.3305,-4.3305,-4.2895,-4.2171,0.0,0.0,0.0,-3.9469,-3.9388,-3.9328,-3.8826,-3.8571,-3.8556,-3.8437,-3.8377,-3.8377,-3.8377,-3.8317,-3.8167,-3.715,-3.6596,-3.6447,-3.5818,-3.5489,-3.5489,-3.5489,-3.5489,-3.5489,-3.5489,-3.5145,-3.4474,-3.329,-3.2333,-3.1705,-3.1555,-3.1241,-3.0717,-3.0687,-3.0627,-3.0507,-2.949,-2.9146,-2.9577,-2.8543,-2.7959,-2.7944,-2.7944,-2.7944,-2.7959,-2.7944,-2.7959,-2.7974,-2.8457,-2.8771,-2.8786,-2.9307,-3.0053,-3.1097,-3.1673,-3.1574,-3.0522,-3.0918,-3.119,-3.119,-3.119,-3.119,-3.119,-3.119,-3.119,-3.119,-3.119,-3.119,-3.119,-3.119,-3.119,-3.119,-3.119,-3.119,-3.119,-3.119,-3.119,-3.1106,-3.0531,-2.9786,-2.8873,-2.7605,-2.6708,-2.6708,-2.6708,-2.6708,-2.6708,-2.6708,-2.6708,-2.6708,-2.6708,-2.6708,-2.6708,-2.6708,-2.6708,-2.6708,-2.6623,-2.5913,-2.4862,-2.5056,-2.5431,-2.4749,-2.4344,-2.4088,-2.403,-2.3872,-2.3853,-4.3529,-4.3424,-4.3334,-4.3305,-4.3305,-4.3305,-4.2641,-4.1474,-4.0831,-4.0427,-4.0232,-3.9664,-3.9388,-3.9409,-3.932,-3.929,-3.923,-3.8646,-3.8377,0.0,-3.8377,-3.8093,-3.7539,-3.736,-3.7,-3.6495,-3.5833,-3.5489,-3.5489,-3.5489,-3.5489,-3.5489,-3.5489,-3.516,-3.4472,-3.3724,-3.3036,-3.2348,-3.1795,-3.1466,-3.1361,-3.1361,-3.1062,-3.0537,-3.0328,-3.0013,-2.9606,-2.9412,-2.9322,-2.9322,-2.9322,-2.9322,-2.9322,-2.9292,-2.9337,-2.9322,-2.9412,-2.9457,-2.9472,-2.9562,-2.9672,-2.9872,-3.0397,-3.0822,-3.1069,-3.1151,-3.119,-3.119,-3.1224,-3.119,-3.119,-3.119,-3.119,-3.119,-3.119,-3.119,-3.119,-3.119,-3.119,-3.119,-3.119,-3.119,-3.119,-3.119,-3.119,-3.1089,-3.048,-2.9668,-2.8569,-2.7402,-2.6776,-2.6708,-2.6708,-2.6708,-2.6708,-2.6708,-2.6708,-2.6708,-2.6708,-2.6708,-2.6708,-2.664,-2.6607,-2.6657,-2.6201,-2.5456,-2.4575,-2.4064,-2.3796,-2.3178,-2.2978,-2.3024,-2.2849,-2.2835,-2.292,-4.4182,-4.3783,-4.3439,-4.3305,-4.3275,-4.2955,-4.2476,-4.1901,-4.1205,-4.0516,-3.9903,-3.9918,-3.9753,-3.9403,-3.9388,-3.9388,-3.9409,-3.9095,-3.896,-3.8945,-3.8945,-3.8781,-3.8402,-3.7764,-3.7255,-3.6941,-3.5968,-3.5489,-3.5489,-3.5489,-3.5489,-3.5489,-3.5489,-3.516,-3.4533,-3.4173,-3.3529,-3.2497,-3.1839,-3.1496,-3.1496,-3.1496,-3.1346,-3.1032,-3.0717,-3.0387,-3.0088,-2.9786,-2.9621,-2.9621,-2.9621,-2.9621,-2.9621,-2.9621,-2.9621,-2.9621,-2.9894,-3.0073,-3.0073,-3.0788,-3.1036,-3.0643,-3.1213,-3.1476,-3.1324,-3.1648,-3.1838,-3.1813,-3.1802,-3.1633,-3.1241,-3.119,-3.119,-3.119,-3.119,-3.119,-3.119,-3.119,-3.119,-3.119,-3.119,-3.119,-3.119,-3.119,-3.119,-3.1106,-3.026,-2.9262,-2.867,-2.7503,-2.6708,-2.6708,-2.6708,-2.6708,-2.6708,-2.6708,-2.6708,-2.6708,-2.6708,-2.6708,-2.6657,-2.642,-2.6082,-2.5914,-2.5677,-2.4967,-2.3765,-2.4118,-2.3833,-2.2646,-2.2748,-2.2841,-2.2502,-2.2415,-2.2477,-4.4781,-4.4272,-4.3574,-4.3305,-4.323,-4.2641,-4.2396,-4.2351,-4.1841,-4.0861,-3.9813,-4.0187,-4.0038,-3.9418,-3.9388,-3.9388,-3.9388,-3.9388,-3.9388,-3.9388,-3.9388,-3.9388,-3.9239,-3.8033,-3.7404,-3.7255,-3.6118,-3.5489,-3.5489,-3.5489,-3.5489,-3.5489,-3.5489,-3.5235,-3.4726,-3.4593,-3.4009,-3.2976,-3.2138,-3.166,-3.1511,-3.1496,-3.1496,-3.1466,-3.0987,-3.0731,-3.0717,-3.0283,-3.0013,-3.0028,-3.0028,-3.0028,-3.0013,-3.0028,-3.0013,-3.0073,-3.0477,-3.0731,-3.079,-3.1716,-3.2081,-3.1489,-3.2092,-3.2333,-3.2013,-3.251,-3.2701,-3.2391,-3.2296,-3.2039,-3.1546,-3.1275,-3.119,-3.119,-3.119,-3.119,-3.119,-3.119,-3.119,-3.119,-3.119,-3.119,-3.119,-3.119,-3.119,-3.1021,-2.9941,-2.9044,-2.884,-2.769,-2.6776,-2.6708,-2.6708,-2.6708,-2.6708,-2.6708,-2.6708,-2.6708,-2.6708,-2.6708,-2.659,-2.6099,-2.5474,-2.5204,-2.5035,-2.4781,-2.368,-2.4052,-2.4291,-2.319,-2.3202,-2.3134,-2.2462,-2.231,-2.231,-4.4377,-4.4212,-4.3574,-4.3305,-4.323,-4.2656,-4.241,-4.241,-4.2336,-4.1572,-4.0427,-4.0382,-4.0068,-3.9448,-3.9403,-3.9418,-3.9388,-3.9388,-3.9388,-3.9388,-3.9388,-3.9388,-3.9284,-3.8048,-3.7404,-3.7285,-3.6163,-3.5594,-3.5564,-3.5519,-3.5489,-3.5489,-3.5489,-3.5474,-3.534,-3.4786,-3.4444,-3.4309,-3.3066,-3.2108,-3.154,-3.1496,-3.1496,-3.1496,-3.1436,-3.1421,-3.1361,-3.1361,-3.1316,-3.1316,-3.1286,-3.1301,-3.1301,-3.1301,-3.1301,-3.1286,-3.1361,-3.1406,-3.1406,-3.1523,-3.161,-3.1549,-3.2133,-3.275,-3.3224,-3.3933,-3.3801,-3.2761,-3.2366,-3.229,-3.2158,-3.1616,-3.1207,-3.119,-3.119,-3.119,-3.119,-3.119,-3.119,-3.119,-3.119,-3.119,-3.119,-3.119,-3.119,-3.1173,-3.0006,-2.9077,-2.8891,-2.7774,-2.6759,-2.6725,-2.6708,-2.6708,-2.6708,-2.6708,-2.6708,-2.6708,-2.6708,-2.6708,-2.6556,-2.6099,-2.5406,-2.5,-2.4305,-2.4425,-2.5017,-2.5118,-2.3983,-2.4002,-2.3663,-2.319,-2.2533,-2.2313,-2.2313,-4.4885,-4.4796,-4.3723,-4.3305,-4.326,-4.303,-4.294,-4.294,-4.294,-4.2417,-4.1662,-4.1602,-4.0771,-3.9469,-3.9777,-3.9762,-3.9439,-3.9388,-3.9388,-3.9388,-3.9388,-3.9388,-3.9269,-3.8452,-3.7988,-3.7928,-3.706,-3.6432,-3.6073,-3.5699,-3.5489,-3.5489,-3.5489,-3.5489,-3.5474,-3.522,-3.4891,-3.4503,-3.3948,-3.317,-3.2168,-3.1705,-3.1496,-3.1496,-3.1496,-3.1496,-3.1496,-3.1496,-3.1496,-3.1496,-3.1496,-3.1496,-3.1496,-3.1496,-3.1496,-3.1496,-3.1496,-3.1496,-3.1496,-3.1496,-3.1496,-3.1496,-3.1768,-3.2076,-3.2351,-3.2997,-3.33,-3.317,-3.3012,-3.2797,-3.2361,-3.1647,-3.119,-3.119,-3.119,-3.119,-3.119,-3.119,-3.119,-3.119,-3.119,-3.119,-3.119,-3.119,-3.119,-3.1089,-3.0243,-2.9533,-2.9061,-2.8044,-2.7249,-2.681,-2.6708,-2.6708,-2.6708,-2.6708,-2.6708,-2.6708,-2.6708,-2.6708,-2.6607,-2.6099,-2.5473,-2.5169,-2.4763,-2.4609,-2.5066,-2.5675,-2.532,-2.4897,-2.3932,-2.319,-2.2448,-2.2313,-2.2313,-4.517,-4.487,-4.3753,-4.3305,-4.3305,-4.3305,-4.3305,-4.3305,-4.3305,-4.297,-4.244,-4.259,-4.1534,-3.9933,-4.0187,-4.0038,-3.9448,-3.9388,-3.9388,-3.9388,-3.9388,-3.9388,-3.9313,-3.8706,-3.8377,-3.8287,-3.7704,-3.7165,-3.6701,-3.6088,-3.5774,-3.5759,-3.5594,-3.5489,-3.5489,-3.5489,-3.5265,-3.4801,-3.4608,-3.4039,-3.311,-3.2392,-3.1869,-3.157,-3.169,-3.1705,-3.1511,-3.1675,-3.169,-3.1525,-3.1496,-3.1496,-3.1496,-3.1496,-3.1496,-3.1496,-3.1496,-3.1496,-3.1496,-3.1496,-3.1496,-3.1524,-3.1668,-3.1796,-3.1951,-3.2625,-3.3339,-3.3774,-3.3748,-3.3457,-3.2953,-3.2056,-3.1549,-3.1515,-3.1343,-3.119,-3.119,-3.119,-3.119,-3.119,-3.119,-3.119,-3.119,-3.119,-3.119,-3.1106,-3.0565,-3.0091,-2.9501,-2.8636,-2.7587,-2.7165,-2.6928,-2.6708,-2.6708,-2.6708,-2.6708,-2.6708,-2.6708,-2.6708,-2.664,-2.6065,-2.5828,-2.5727,-2.5575,-2.5558,-2.5676,-2.615,-2.6065,-2.4897,-2.4051,-2.3359,-2.2465,-2.2347,-2.2313,-4.493,-4.4287,-4.3589,-4.3305,-4.3305,-4.3305,-4.3305,-4.3305,-4.3305,-4.297,-4.256,-4.3,-4.2192,-4.0442,-4.0502,-4.0083,-3.9463,-3.9448,-3.9478,-3.9493,-3.9418,-3.9388,-3.9328,-3.8721,-3.8407,-3.8437,-3.7913,-3.7494,-3.7345,-3.6731,-3.6432,-3.6402,-3.5804,-3.5489,-3.5489,-3.5489,-3.5474,-3.534,-3.4846,-3.4474,-3.4309,-3.3694,-3.2796,-3.1795,-3.2123,-3.2168,-3.172,-3.2123,-3.2168,-3.1525,-3.154,-3.1525,-3.1496,-3.1496,-3.1496,-3.1496,-3.1496,-3.1496,-3.1496,-3.1496,-3.1496,-3.1582,-3.2092,-3.252,-3.2394,-3.3427,-3.4161,-3.4503,-3.4305,-3.424,-3.4201,-3.2953,-3.2192,-3.2124,-3.1582,-3.1241,-3.119,-3.119,-3.119,-3.119,-3.119,-3.119,-3.119,-3.119,-3.119,-3.1072,-3.0581,-3.0294,-3.0514,-2.9159,-2.8145,-2.7807,-2.7317,-2.6708,-2.6708,-2.6708,-2.6708,-2.6708,-2.6708,-2.6708,-2.6454,-2.6234,-2.6285,-2.6133,-2.5591,-2.5574,-2.6167,-2.6133,-2.5592,-2.4931,-2.4558,-2.3848,-2.2784,-2.2415,-2.2313,-4.4661,-4.3633,-4.3394,-4.3305,-4.3305,-4.3305,-4.3305,-4.3305,-4.3305,-4.3185,-4.306,-4.32,-4.2716,-4.1654,-4.1707,-4.107,-4.0113,-4.0053,-4.0262,-4.0531,-3.9813,-3.9634,-3.9963,-3.9364,-3.905,-3.9005,-3.8811,-3.8467,-3.7928,-3.7,-3.6492,-3.6387,-3.5818,-3.5489,-3.5489,-3.5489,-3.5489,-3.5474,-3.5235,-3.4936,-3.4548,-3.4264,-3.3679,-3.2841,-3.3006,-3.3036,-3.2796,-3.3021,-3.2841,-3.2153,-3.2138,-3.1944,-3.1555,-3.1496,-3.1496,-3.1496,-3.1496,-3.1496,-3.1496,-3.1496,-3.1496,-3.1553,-3.2203,-3.2382,-3.2148,-3.2745,-3.3495,-3.3864,-3.3958,-3.4213,-3.465,-3.3457,-3.2293,-3.2192,-3.1647,-3.119,-3.119,-3.119,-3.119,-3.119,-3.119,-3.119,-3.119,-3.119,-3.119,-3.1157,-3.0954,-3.0937,-3.0886,-2.9871,-2.8805,-2.818,-2.7385,-2.6708,-2.6708,-2.6708,-2.6708,-2.6708,-2.6708,-2.6708,-2.6539,-2.6505,-2.6522,-2.6505,-2.5879,-2.5862,-2.6573,-2.6505,-2.5828,-2.5203,-2.4847,-2.4118,-2.3207,-2.26,-2.2364,-4.4272,-4.3618,-4.3394,-4.3424,-4.3614,-4.3379,-4.3305,-4.3305,-4.3305,-4.3305,-4.3305,-4.3305,-4.297,-4.253,-4.262,-4.2102,-4.107,-4.0846,-4.095,-4.1265,-4.0457,-4.0187,-4.0292,-3.9948,-3.9619,-3.9403,-3.9388,-3.9155,-3.8661,-3.7629,-3.7015,-3.6776,-3.6133,-3.5699,-3.5549,-3.5489,-3.5489,-3.5489,-3.5489,-3.5265,-3.4893,-3.4801,-3.4607,-3.4203,-3.4158,-3.3918,-3.3544,-3.3694,-3.3514,-3.2916,-3.2632,-3.2183,-3.16,-3.1496,-3.1496,-3.1496,-3.1496,-3.1496,-3.1496,-3.1496,-3.1496,-3.1496,-3.1938,-3.2007,-3.1611,-3.2176,-3.2868,-3.3427,-3.3836,-3.4406,-3.4935,-3.4032,-3.2936,-3.2598,-3.1782,-3.1207,-3.119,-3.119,-3.119,-3.119,-3.119,-3.119,-3.119,-3.119,-3.119,-3.119,-3.119,-3.119,-3.1072,-3.033,-2.9433,-2.8535,-2.7435,-2.6843,-2.6708,-2.6708,-2.6708,-2.6708,-2.6708,-2.6708,-2.6708,-2.6708,-2.6708,-2.6708,-2.6708,-2.6708,-2.6708,-2.6691,-2.6218,-2.549,-2.4814,-2.4118,-2.3342,-2.2617,-2.2415,-4.3708,-4.4137,-4.3629,-4.3723,-4.4142,-4.3513,-4.3295,-4.3379,-4.3225,-4.317,-4.3305,-4.3305,-4.3015,-4.2641,-4.3,-4.291,-4.2321,-4.1728,-4.1534,-4.1549,-4.1324,-4.0965,-4.0576,-4.0382,-3.9963,-3.9403,-3.9388,-3.9373,-3.9254,-3.8556,-3.7913,-3.7345,-3.6701,-3.6058,-3.5504,-3.5489,-3.5489,-3.5489,-3.5489,-3.5474,-3.5489,-3.5415,-3.5385,-3.5355,-3.534,-3.4801,-3.3679,-3.4204,-3.4188,-3.3529,-3.2961,-3.2243,-3.1795,-3.1615,-3.1555,-3.1585,-3.1525,-3.1496,-3.1496,-3.1496,-3.1496,-3.1524,-3.1582,-3.1668,-3.164,-3.216,-3.2868,-3.3531,-3.4112,-3.4783,-3.5284,-3.4793,-3.4032,-3.3406,-3.2188,-3.136,-3.1275,-3.1207,-3.119,-3.119,-3.119,-3.119,-3.119,-3.119,-3.119,-3.119,-3.119,-3.119,-3.114,-3.0465,-2.967,-2.8857,-2.7723,-2.6759,-2.6708,-2.6708,-2.6708,-2.6708,-2.6708,-2.6708,-2.6708,-2.6708,-2.6708,-2.6708,-2.6708,-2.6691,-2.6623,-2.6573,-2.6133,-2.5456,-2.4812,-2.4203,-2.3594,-2.2953,-2.2448,-4.3663,-4.4272,-4.4107,-4.4392,-4.4732,-4.3434,-4.321,-4.3767,-4.2713,-4.2603,-4.321,-4.3305,-4.317,-4.3105,-4.3215,-4.3185,-4.3015,-4.2806,-4.2716,-4.2551,-4.1818,-4.1534,-4.1557,-4.0801,-4.0068,-3.9514,-3.9388,-3.9388,-3.9305,-3.8721,-3.8063,-3.7404,-3.6791,-3.6148,-3.5534,-3.5489,-3.5489,-3.5489,-3.5489,-3.5489,-3.5489,-3.5489,-3.5489,-3.5489,-3.5489,-3.5265,-3.4921,-3.5085,-3.4846,-3.4234,-3.3978,-3.3574,-3.2946,-3.2452,-3.2228,-3.2138,-3.1735,-3.1496,-3.1496,-3.1511,-3.1525,-3.1582,-3.1923,-3.1966,-3.1668,-3.2148,-3.2841,-3.3495,-3.3811,-3.4333,-3.5199,-3.4945,-3.4438,-3.4167,-3.2848,-3.1904,-3.1836,-3.1515,-3.1224,-3.119,-3.119,-3.119,-3.119,-3.119,-3.119,-3.119,-3.119,-3.119,-3.1106,-3.0886,-3.0194,-2.9162,-2.7841,-2.6725,-2.6708,-2.6708,-2.6708,-2.6708,-2.6708,-2.6708,-2.6708,-2.6708,-2.6708,-2.6708,-2.6708,-2.6674,-2.6623,-2.6319,-2.5862,-2.5422,-2.4778,-2.4271,-2.3831,-2.3224,-2.2564,-4.4451,-4.5005,-4.4781,-4.476,-4.484,-4.3472,-4.3011,-4.3137,-4.2347,-4.2322,-4.2913,-4.3205,-4.3305,-4.3305,-4.3305,-4.3305,-4.3305,-4.3305,-4.3305,-4.3215,-4.2581,-4.2132,-4.1916,-4.0651,-3.9858,-3.9463,-3.9388,-3.9388,-3.9358,-3.8975,-3.8317,-3.7464,-3.7015,-3.6372,-3.5594,-3.5489,-3.5489,-3.5489,-3.5489,-3.5489,-3.5489,-3.5489,-3.5489,-3.5489,-3.5489,-3.5489,-3.5489,-3.5489,-3.531,-3.4863,-3.4444,-3.3934,-3.3469,-3.2662,-3.2258,-3.2378,-3.2123,-3.1795,-3.1585,-3.175,-3.1735,-3.1686,-3.1938,-3.2007,-3.1668,-3.1979,-3.2544,-3.3417,-3.3633,-3.4137,-3.5209,-3.5228,-3.4928,-3.4895,-3.3305,-3.2395,-3.2192,-3.165,-3.141,-3.1461,-3.1393,-3.1241,-3.119,-3.119,-3.119,-3.119,-3.119,-3.119,-3.119,-3.1173,-3.0311,-2.9213,-2.774,-2.7013,-2.6742,-2.6708,-2.6708,-2.6708,-2.6708,-2.6708,-2.6708,-2.6708,-2.6708,-2.6708,-2.6708,-2.6708,-2.6623,-2.6082,-2.5609,-2.5118,-2.466,-2.3833,-2.3207,-2.2852,-2.233,-4.5678,-4.616,-4.5535,-4.4917,-4.4425,-4.3497,-4.2521,-4.18,-4.2005,-4.2195,-4.2447,-4.3027,-4.3305,-4.3305,-4.3305,-4.3305,-4.3305,-4.3305,-4.3305,-4.3305,-4.3065,-4.2626,-4.1429,-4.0277,-3.9634,-3.9403,-3.9388,-3.9388,-3.9388,-3.9298,-3.8715,-3.7644,-3.7389,-3.6806,-3.5848,-3.5549,-3.5489,-3.5489,-3.5489,-3.5489,-3.5489,-3.5489,-3.5489,-3.5489,-3.5489,-3.5489,-3.5489,-3.5489,-3.5489,-3.5325,-3.4397,-3.3844,-3.3395,-3.2318,-3.2198,-3.2527,-3.2512,-3.2079,-3.1795,-3.1914,-3.2034,-3.1555,-3.1553,-3.1496,-3.1524,-3.164,-3.2132,-3.3261,-3.3443,-3.4003,-3.5028,-3.5249,-3.5244,-3.5161,-3.3579,-3.256,-3.2327,-3.1749,-3.1647,-3.1972,-3.1681,-3.1224,-3.1241,-3.119,-3.119,-3.119,-3.119,-3.119,-3.119,-3.1021,-3.0482,-2.9331,-2.8011,-2.7368,-2.7148,-2.6725,-2.6725,-2.6708,-2.6708,-2.6708,-2.6708,-2.6708,-2.6708,-2.6708,-2.6708,-2.6708,-2.6522,-2.6015,-2.5541,-2.5118,-2.4357,-2.3308,-2.2835,-2.2665,-2.2462,-4.5693,-4.6135,-4.5097,-4.4849,-4.4743,-4.2606,-4.1587,-4.1594,-4.1255,-4.1437,-4.1931,-4.2839,-4.325,-4.3305,-4.3305,-4.3305,-4.3305,-4.3305,-4.3305,-4.3305,-4.3305,-4.2596,-4.1459,-4.0546,-3.9858,-3.9448,-3.9388,-3.9388,-3.9388,-3.9388,-3.8945,-3.8138,-3.7599,-3.703,-3.6282,-3.5744,-3.5519,-3.5489,-3.5489,-3.5489,-3.5489,-3.5489,-3.5489,-3.5489,-3.5489,-3.5489,-3.5489,-3.5489,-3.5489,-3.5489,-3.522,-3.4726,-3.4264,-3.3769,-3.3215,-3.2662,-3.2512,-3.2213,-3.1735,-3.1735,-3.1705,-3.154,-3.1525,-3.1496,-3.1496,-3.1496,-3.1951,-3.268,-3.2895,-3.3224,-3.3953,-3.4227,-3.4161,-3.3995,-3.3542,-3.3119,-3.2983,-3.2476,-3.2107,-3.2226,-3.2107,-3.1769,-3.1326,-3.119,-3.119,-3.119,-3.119,-3.119,-3.119,-3.114,-3.0717,-2.9905,-2.8822,-2.8095,-2.7503,-2.7012,-2.6742,-2.6708,-2.6708,-2.6708,-2.6708,-2.6708,-2.6708,-2.6708,-2.6708,-2.6708,-2.6454,-2.6082,-2.5625,-2.5015,-2.4086,-2.3122,-2.319,-2.3105,-2.2784,-4.6053,-4.5844,-4.5138,-4.4407,-4.3624,-4.1842,-4.1194,-4.1113,-4.0597,-4.0974,-4.1865,-4.2336,-4.2845,-4.3305,-4.3305,-4.3305,-4.3305,-4.3305,-4.3305,-4.3245,-4.303,-4.2327,-4.1414,-4.0696,-4.0053,-3.9448,-3.9388,-3.9388,-3.9388,-3.9388,-3.9035,-3.8377,-3.7734,-3.7105,-3.6462,-3.5848,-3.5489,-3.5489,-3.5489,-3.5489,-3.5489,-3.5489,-3.5489,-3.5489,-3.5489,-3.5489,-3.5489,-3.5489,-3.5489,-3.5444,-3.5235,-3.4996,-3.4891,-3.4337,-3.3709,-3.2946,-3.3155,-3.2961,-3.2213,-3.2153,-3.2333,-3.2198,-3.1914,-3.1705,-3.178,-3.1705,-3.1824,-3.2492,-3.2586,-3.2933,-3.3495,-3.3836,-3.4113,-3.4416,-3.4068,-3.388,-3.3846,-3.3203,-3.2831,-3.2716,-3.2462,-3.2022,-3.1292,-3.1207,-3.119,-3.119,-3.119,-3.119,-3.119,-3.1157,-3.0954,-3.0159,-2.955,-2.8856,-2.818,-2.7638,-2.7114,-2.7012,-2.6708,-2.6708,-2.6708,-2.6708,-2.6708,-2.6708,-2.6708,-2.664,-2.6454,-2.6015,-2.5202,-2.4475,-2.3646,-2.3156,-2.3071,-2.3241,-2.2953,-4.6255,-4.5192,-4.507,-4.3693,-4.1887,-4.1591,-4.1123,-4.0451,-4.0535,-4.0918,-4.1694,-4.1804,-4.2426,-4.313,-4.317,-4.3305,-4.3305,-4.3305,-4.3305,-4.3155,-4.2851,-4.2276,-4.1609,-4.0935,-4.0277,-3.9672,-3.9508,-3.9448,-3.9418,-3.9388,-3.9125,-3.8527,-3.7838,-3.718,-3.6611,-3.5908,-3.5534,-3.5489,-3.5489,-3.5489,-3.5489,-3.5489,-3.5489,-3.5489,-3.5489,-3.5489,-3.5489,-3.5489,-3.5489,-3.5489,-3.4938,-3.4936,-3.519,-3.4158,-3.3619,-3.3529,-3.3754,-3.3619,-3.2931,-3.3066,-3.3335,-3.308,-3.2258,-3.1899,-3.2258,-3.2019,-3.192,-3.2315,-3.2465,-3.2734,-3.3365,-3.4062,-3.4655,-3.4967,-3.4762,-3.4658,-3.4472,-3.3964,-3.3508,-3.3389,-3.2784,-3.2141,-3.1478,-3.119,-3.119,-3.119,-3.119,-3.119,-3.119,-3.1173,-3.0954,-3.0497,-2.9989,-2.9585,-2.8924,-2.8315,-2.7756,-2.735,-2.6877,-2.6708,-2.6708,-2.6708,-2.6708,-2.6708,-2.6708,-2.6691,-2.6623,-2.5963,-2.51,-2.4406,-2.3898,-2.3088,-2.2496,-2.2902,-2.2902,-4.4163,-4.3834,-4.2834,-4.2119,-4.1654,-4.1591,-4.0707,-3.9519,-4.1594,-4.1217,-4.0477,-4.1902,-4.2386,-4.2056,-4.278,-4.3305,-4.321,-4.321,-4.3305,-4.3275,-4.3185,-4.2746,-4.2186,-4.1504,-4.0831,-4.0292,-4.0172,-3.9903,-3.9523,-3.9373,-3.9364,-3.9065,-3.8048,-3.7345,-3.7075,-3.6118,-3.5504,-3.5489,-3.5489,-3.5489,-3.5489,-3.5489,-3.5489,-3.5489,-3.5489,-3.5489,-3.5489,-3.5489,-3.5489,-3.5459,-3.5355,-3.513,-3.4831,-3.4518,-3.4084,-3.3724,-3.3679,-3.3649,-3.3395,-3.3425,-3.3365,-3.317,-3.3036,-3.296,-3.2691,-3.2407,-3.2077,-3.1905,-3.1768,-3.2132,-3.2933,-3.3962,-3.4592,-3.4891,-3.5154,-3.5278,-3.5228,-3.4692,-3.4117,-3.3525,-3.322,-3.2662,-3.141,-3.1207,-3.119,-3.119,-3.119,-3.119,-3.119,-3.119,-3.1004,-3.0717,-3.0446,-3.0057,-2.9685,-2.889,-2.7943,-2.7401,-2.6945,-2.6708,-2.6708,-2.6708,-2.6708,-2.6708,-2.6708,-2.6691,-2.6674,-2.6319,-2.554,-2.4846,-2.4068,-2.3224,-2.2665,-2.2885,-2.2852,-4.317,-4.2558,-4.1887,-4.1269,-4.0743,-4.0667,-4.0179,-3.9605,-4.0313,-4.034,-3.9712,-4.0617,-4.107,-4.156,-4.1684,-4.1906,-4.2426,-4.2508,-4.282,-4.317,-4.3275,-4.3135,-4.288,-4.2357,-4.1728,-4.0651,-4.0397,-4.0038,-3.9553,-3.9403,-3.9388,-3.9328,-3.8347,-3.7719,-3.736,-3.6462,-3.5848,-3.5549,-3.5489,-3.5489,-3.5489,-3.5489,-3.5489,-3.5489,-3.5489,-3.5489,-3.5489,-3.5489,-3.5489,-3.5489,-3.5489,-3.537,-3.5055,-3.4936,-3.4607,-3.4128,-3.4307,-3.4203,-3.4083,-3.3994,-3.4023,-3.4007,-3.3529,-3.317,-3.2841,-3.2497,-3.1914,-3.16,-3.1611,-3.1894,-3.296,-3.3896,-3.4503,-3.4712,-3.5184,-3.543,-3.5186,-3.5037,-3.4556,-3.3744,-3.3355,-3.256,-3.1816,-3.1404,-3.1188,-3.1168,-3.1224,-3.1224,-3.119,-3.119,-3.119,-3.0987,-3.0818,-3.0565,-3.0328,-2.9448,-2.8044,-2.7402,-2.681,-2.6708,-2.6708,-2.6708,-2.6708,-2.6708,-2.6708,-2.6708,-2.6623,-2.6285,-2.5709,-2.4762,-2.3915,-2.3207,-2.2767,-2.2649,-2.2533,-4.2315,-4.1319,-4.1306,-4.0654,-3.9726,-3.9829,-3.9735,-3.9323,-3.8791,-3.9176,-3.9276,-3.8581,-3.977,-4.0547,-4.0347,-4.0618,-4.1378,-4.1726,-4.229,-4.321,-4.3305,-4.326,-4.317,-4.2976,-4.2387,-4.0831,-4.0846,-4.0412,-3.9679,-3.9478,-3.9553,-3.9313,-3.8721,-3.8123,-3.7539,-3.6941,-3.6342,-3.5848,-3.5759,-3.5624,-3.5519,-3.5489,-3.5489,-3.5489,-3.5489,-3.5489,-3.5489,-3.5489,-3.5489,-3.5489,-3.5489,-3.5489,-3.5474,-3.5325,-3.5235,-3.4638,-3.4936,-3.4891,-3.4711,-3.4698,-3.4846,-3.54,-3.4128,-3.332,-3.335,-3.2766,-3.2108,-3.1837,-3.1846,-3.2188,-3.3329,-3.3962,-3.4309,-3.4496,-3.4958,-3.5005,-3.4823,-3.5035,-3.4459,-3.3981,-3.3639,-3.3098,-3.2191,-3.1557,-3.1345,-3.1182,-3.1255,-3.1258,-3.1207,-3.119,-3.119,-3.119,-3.1004,-3.0615,-3.0345,-2.9753,-2.84,-2.7588,-2.6928,-2.6759,-2.6742,-2.6708,-2.6708,-2.6708,-2.6708,-2.6708,-2.6454,-2.5964,-2.5303,-2.4457,-2.3763,-2.3105,-2.2682,-2.2364,-2.2398,-4.0224,-4.0032,-4.0032,-3.9625,-3.9285,-4.0132,-3.9659,-3.8687,-3.9568,-3.9203,-3.7921,-3.8966,-3.9006,-3.9067,-3.9697,-4.049,-4.1197,-4.1545,-4.2193,-4.3155,-4.3305,-4.3305,-4.3305,-4.3275,-4.2776,-4.2336,-4.1961,-4.113,-3.9963,-3.9903,-3.9843,-3.9379,-3.8781,-3.8332,-3.8048,-3.7584,-3.6911,-3.6297,-3.6193,-3.5998,-3.5594,-3.5489,-3.5489,-3.5489,-3.5489,-3.5489,-3.5489,-3.5489,-3.5489,-3.5489,-3.5489,-3.5489,-3.5415,-3.504,-3.5013,-3.513,-3.4966,-3.4966,-3.516,-3.528,-3.5355,-3.5415,-3.4951,-3.4532,-3.4203,-3.3544,-3.2766,-3.2375,-3.2296,-3.2532,-3.2749,-3.3469,-3.3726,-3.3811,-3.3937,-3.4103,-3.4202,-3.4195,-3.4216,-3.4002,-3.3911,-3.3547,-3.241,-3.1629,-3.15,-3.1368,-3.1375,-3.132,-3.1224,-3.119,-3.119,-3.119,-3.1173,-3.0717,-3.0241,-2.96,-2.8705,-2.796,-2.7351,-2.6928,-2.686,-2.6742,-2.6708,-2.6708,-2.6708,-2.6708,-2.6302,-2.5778,-2.5169,-2.4558,-2.3782,-2.3054,-2.2733,-2.2499,-2.2835,-3.9697,-3.9697,-3.9697,-3.9371,-3.907,-3.952,-3.8973,-3.7832,-3.8514,-3.8135,-3.7386,-3.7683,-3.8166,-3.8075,-3.7952,-3.9006,-4.0518,-4.142,-4.2193,-4.309,-4.3305,-4.3305,-4.3305,-4.3305,-4.294,-4.265,-4.2566,-4.1833,-4.0127,-4.0217,-4.0038,-3.9499,-3.905,-3.8766,-3.8422,-3.8078,-3.7375,-3.6776,-3.6477,-3.6178,-3.5564,-3.5489,-3.5489,-3.5489,-3.5489,-3.5489,-3.5489,-3.5489,-3.5489,-3.5489,-3.5489,-3.5489,-3.54,-3.528,-3.5145,-3.537,-3.5175,-3.51,-3.5429,-3.5489,-3.5489,-3.5444,-3.5235,-3.4893,-3.4459,-3.3874,-3.326,-3.272,-3.256,-3.2586,-3.2641,-3.3214,-3.3365,-3.3224,-3.3339,-3.3453,-3.3469,-3.3505,-3.3695,-3.3857,-3.3425,-3.2798,-3.2014,-3.152,-3.1566,-3.1553,-3.1515,-3.1406,-3.1269,-3.1112,-3.1055,-3.1114,-3.1098,-3.0852,-3.034,-2.9726,-2.9227,-2.8535,-2.7943,-2.752,-2.7012,-2.691,-2.6759,-2.6708,-2.6708,-2.659,-2.6437,-2.5998,-2.5321,-2.4728,-2.422,-2.363,-2.2987,-2.2736,-2.3139,-3.9697,-3.9697,-3.9572,-3.9207,-3.873,-3.8617,-3.7989,-3.7197,-3.7107,-3.6902,-3.6455,-3.6499,-3.7023,-3.7402,-3.7461,-3.8088,-4.0202,-4.1295,-4.2208,-4.313,-4.3305,-4.3305,-4.3305,-4.3245,-4.3075,-4.2836,-4.297,-4.2312,-4.0711,-4.0576,-4.0157,-3.9604,-3.9409,-3.92,-3.8721,-3.8631,-3.7793,-3.721,-3.6686,-3.6312,-3.5699,-3.5489,-3.5489,-3.5489,-3.5489,-3.5489,-3.5489,-3.5489,-3.5489,-3.5489,-3.5489,-3.5489,-3.5489,-3.5489,-3.5489,-3.5489,-3.5489,-3.5489,-3.5489,-3.5489,-3.5489,-3.5474,-3.4996,-3.4803,-3.4593,-3.4188,-3.3484,-3.2886,-3.2757,-3.2714,-3.268,-3.3049,-3.2939,-3.2625,-3.2772,-3.3024,-3.2707,-3.268,-3.2837,-3.2856,-3.2633,-3.226,-3.1667,-3.2087,-3.2264,-3.1704,-3.1622,-3.1558,-3.1372,-3.0925,-3.0858,-3.0938,-3.0951,-3.0881,-3.0504,-2.9978,-2.9604,-2.9277,-2.8789,-2.8383,-2.7685,-2.7057,-2.684,-2.6521,-2.6384,-2.6264,-2.6236,-2.6167,-2.5541,-2.5033,-2.4711,-2.4271,-2.3663,-2.3427,-2.3646,-3.9697,-3.9647,-3.9157,-3.863,-3.809,-3.7638,-3.7121,-3.6593,-3.6556,-3.648,-3.6417,-3.6417,-3.6499,-3.693,-3.7723,-3.92,-4.0817,-4.1684,-4.2316,-4.321,-4.3305,-4.3305,-4.3305,-4.3305,-4.317,-4.297,-4.311,-4.2192,-4.0935,-4.092,-4.0531,-3.9679,-3.9388,-3.9349,-3.92,-3.914,-3.8901,-3.8153,-3.7539,-3.6671,-3.5714,-3.5489,-3.5489,-3.5489,-3.5489,-3.5489,-3.5489,-3.5489,-3.5489,-3.5489,-3.5489,-3.5489,-3.5489,-3.5489,-3.5489,-3.5489,-3.5489,-3.5489,-3.5489,-3.5489,-3.5489,-3.5489,-3.534,-3.537,-3.5085,-3.4562,-3.3903,-3.3469,-3.3322,-3.3035,-3.2612,-3.2626,-3.2297,-3.2007,-3.1908,-3.1964,-3.1796,-3.2064,-3.2228,-3.2269,-3.2153,-3.2035,-3.1664,-3.2383,-3.2922,-3.2272,-3.1737,-3.1591,-3.1316,-3.0775,-3.0576,-3.0679,-3.0559,-3.0475,-3.0476,-2.9969,-2.9908,-2.9804,-2.9383,-2.8998,-2.833,-2.7478,-2.6473,-2.6188,-2.6049,-2.6158,-2.6421,-2.6234,-2.5727,-2.5406,-2.5169,-2.4846,-2.4423,-2.4338,-2.4408,-3.873,-3.8718,-3.8467,-3.8052,-3.7538,-3.7274,-3.692,-3.6493,-3.6417,-3.6417,-3.6417,-3.6405,-3.6709,-3.7415,-3.8617,-4.0002,-4.1476,-4.2193,-4.2765,-4.3126,-4.3275,-4.3275,-4.3305,-4.326,-4.317,-4.2806,-4.2626,-4.1923,-4.104,-4.0861,-4.0711,-3.9604,-3.9388,-3.9388,-3.9388,-3.9388,-3.899,-3.8272,-3.7404,-3.6432,-3.5744,-3.5489,-3.5489,-3.5489,-3.5489,-3.5489,-3.5489,-3.5489,-3.5489,-3.5489,-3.5489,-3.5489,-3.5489,-3.5489,-3.5489,-3.5489,-3.5489,-3.5489,-3.5489,-3.5489,-3.5489,-3.5489,-3.5489,-3.5474,-3.5295,-3.4622,-3.4159,-3.4083,-3.332,-3.2871,-3.2617,-3.2497,-3.2108,-3.175,-3.1511,-3.1496,-3.1496,-3.1496,-3.1653,-3.1697,-3.1781,-3.1802,-3.1867,-3.2335,-3.2684,-3.2256,-3.148,-3.092,-3.063,-3.0184,-3.0168,-3.0356,-3.0187,-2.9989,-3.0046,-2.9882,-3.0059,-2.9925,-2.9423,-2.9059,-2.8743,-2.7949,-2.6803,-2.5991,-2.5777,-2.6016,-2.6522,-2.6471,-2.6116,-2.5896,-2.5693,-2.5371,-2.5117,-2.5591,-2.5625,-3.7726,-3.7613,-3.7751,-3.7563,-3.7161,-3.7048,-3.6747,-3.6443,-3.6417,-3.6417,-3.6417,-3.6452,-3.7023,-3.803,-3.9006,-4.0045,-4.1601,-4.2508,-4.2902,-4.3031,-4.3075,-4.2925,-4.2746,-4.2716,-4.2521,-4.2156,-4.2156,-4.1497,-4.092,-4.0696,-4.0487,-3.9454,-3.9388,-3.9388,-3.9388,-3.9313,-3.902,-3.8048,-3.727,-3.6402,-3.5684,-3.5504,-3.5489,-3.5489,-3.5489,-3.5489,-3.5489,-3.5489,-3.5489,-3.5489,-3.5489,-3.5489,-3.5489,-3.5489,-3.5489,-3.5489,-3.5489,-3.5489,-3.5489,-3.5489,-3.5489,-3.5489,-3.5489,-3.5489,-3.54,-3.4487,-3.4128,-3.4711,-3.3844,-3.32,-3.2766,-3.2677,-3.2138,-3.178,-3.1496,-3.1496,-3.1496,-3.1496,-3.1524,-3.164,-3.1796,-3.1979,-3.2105,-3.231,-3.2361,-3.2114,-3.1395,-3.0442,-2.9901,-2.9512,-2.9521,-2.9673,-2.9783,-2.9585,-2.9635,-2.9729,-2.9957,-2.9902,-2.9407,-2.9184,-2.8897,-2.8025,-2.6832,-2.6169,-2.5663,-2.5961,-2.6471,-2.6522,-2.6573,-2.6352,-2.6132,-2.5929,-2.5912,-2.6386,-2.642,-3.6983,-3.6568,-3.7036,-3.7199,-3.7111,-3.6681,-3.6455,-3.6417,-3.6417,-3.6417,-3.6417,-3.6452,-3.701,-3.7984,-3.8604,-3.9727,-4.1601,-4.167,-4.2184,-4.2445,-4.244,-4.2207,-4.1983,-4.1773,-4.1609,-4.1512,-4.1482,-4.104,-4.0531,-4.0322,-4.0038,-3.9514,-3.9403,-3.9388,-3.9388,-3.9343,-3.8736,-3.7898,-3.727,-3.6611,-3.5848,-3.5489,-3.5489,-3.5489,-3.5489,-3.5489,-3.5489,-3.5489,-3.5489,-3.5489,-3.5489,-3.5489,-3.5489,-3.5489,-3.5489,-3.5489,-3.5489,-3.5489,-3.5489,-3.5489,-3.5489,-3.5489,-3.5489,-3.5489,-3.5444,-3.5444,-3.537,-3.5205,-3.4412,-3.3858,-3.3365,-3.2901,-3.2407,-3.175,-3.1496,-3.1496,-3.1496,-3.1496,-3.1553,-3.1625,-3.1768,-3.1894,-3.1992,-3.2117,-3.2324,-3.2154,-3.0976,-3.0,-2.9201,-2.8779,-2.874,-2.885,-2.918,-2.9225,-2.9248,-2.9316,-2.9293,-2.9293,-2.9016,-2.9067,-2.9112,-2.8027,-2.6471,-2.6271,-2.5823,-2.612,-2.628,-2.6213,-2.6265,-2.6573,-2.6556,-2.6319,-2.6268,-2.6522,-2.6353,-3.6606,-3.643,-3.6631,-3.6732,-3.6707,-3.6493,-3.6417,-3.6417,-3.6417,-3.6417,-3.6417,-3.6452,-3.7023,-3.7984,-3.905,-4.0031,-4.1587,-4.2426,-4.2471,-4.2419,-4.2321,-4.1991,-4.1632,-4.125,-4.122,-4.0876,-4.0756,-4.0457,-3.9843,-3.9873,-3.9723,-3.9469,-3.9388,-3.9388,-3.9388,-3.9313,-3.8631,-3.7793,-3.7315,-3.6776,-3.5789,-3.5489,-3.5489,-3.5489,-3.5489,-3.5489,-3.5489,-3.5489,-3.5489,-3.5489,-3.5489,-3.5489,-3.5489,-3.5489,-3.5489,-3.5489,-3.5489,-3.5489,-3.5489,-3.5489,-3.5489,-3.5489,-3.5489,-3.5489,-3.5459,-3.5175,-3.5205,-3.51,-3.4891,-3.4203,-3.3574,-3.323,-3.2811,-3.1914,-3.1496,-3.1496,-3.1496,-3.1496,-3.1496,-3.1582,-3.164,-3.1726,-3.1768,-3.1836,-3.2048,-3.2102,-3.0803,-2.9617,-2.8885,-2.8299,-2.833,-2.8253,-2.8519,-2.8519,-2.8504,-2.8519,-2.8559,-2.8567,-2.8614,-2.8709,-2.867,-2.7157,-2.5932,-2.5861,-2.5722,-2.5552,-2.5535,-2.5707,-2.5964,-2.6402,-2.6624,-2.664,-2.6657,-2.6708,-2.6454,-3.6417,-3.6417,-3.6417,-3.6417,-3.6417,-3.6417,-3.6417,-3.6417,-3.6417,-3.6417,-3.6417,-3.6465,-3.7023,-3.8107,-3.8872,-4.0218,-4.1378,-4.2231,-4.2322,-4.2195,-4.1976,-4.1587,-4.107,-4.0711,-4.0427,-4.0172,-4.0083,-3.9813,-3.9514,-3.9403,-3.9403,-3.9403,-3.9388,-3.9388,-3.9388,-3.9313,-3.8826,-3.7958,-3.7375,-3.6941,-3.5923,-3.5594,-3.5504,-3.5489,-3.5489,-3.5489,-3.5489,-3.5489,-3.5489,-3.5489,-3.5489,-3.5489,-3.5489,-3.5489,-3.5489,-3.5489,-3.5489,-3.5489,-3.5489,-3.5489,-3.5489,-3.5489,-3.5489,-3.5489,-3.5355,-3.504,-3.522,-3.5355,-3.4891,-3.4309,-3.3724,-3.3395,-3.3125,-3.2347,-3.1615,-3.1496,-3.1496,-3.1496,-3.1496,-3.1524,-3.1553,-3.1597,-3.1611,-3.1652,-3.1552,-3.15,-3.0532,-2.9518,-2.885,-2.8359,-2.8157,-2.8036,-2.7959,-2.7835,-2.7635,-2.7894,-2.814,-2.8091,-2.814,-2.8165,-2.7731,-2.6438,-2.5689,-2.5682,-2.5437,-2.488,-2.4922,-2.5256,-2.5764,-2.6315,-2.647,-2.659,-2.6708,-2.6708,-2.6708,-3.6405,-3.6417,-3.6417,-3.6417,-3.6417,-3.6417,-3.6417,-3.6417,-3.6417,-3.6417,-3.6417,-3.6417,-3.6972,-3.7873,-3.8246,-3.9488,-4.1095,-4.155,-4.1598,-4.1575,-4.1452,-4.0651,-4.0038,-3.9657,-3.9777,-3.9493,-3.9508,-3.9538,-3.9388,-3.9388,-3.9388,-3.9388,-3.9388,-3.9328,-3.9373,-3.9373,-3.902,-3.8347,-3.7644,-3.6956,-3.6402,-3.5804,-3.5534,-3.5489,-3.5489,-3.5489,-3.5489,-3.5489,-3.5489,-3.5489,-3.5489,-3.5489,-3.5489,-3.5489,-3.5489,-3.5489,-3.5489,-3.5489,-3.5489,-3.5489,-3.5489,-3.5489,-3.5489,-3.5489,-3.5489,-3.5429,-3.537,-3.5459,-3.4981,-3.4577,-3.4038,-3.3529,-3.3305,-3.2781,-3.2034,-3.169,-3.172,-3.2108,-3.2228,-3.175,-3.1555,-3.1525,-3.1511,-3.145,-3.115,-3.0786,-3.0068,-2.9409,-2.8888,-2.8673,-2.8527,-2.8347,-2.8192,-2.7976,-2.7899,-2.7675,-2.77,-2.765,-2.7725,-2.781,-2.7614,-2.684,-2.6222,-2.5811,-2.5417,-2.5096,-2.4958,-2.4922,-2.5335,-2.5728,-2.6263,-2.6453,-2.6607,-2.6657,-2.6607,-3.6031,-3.6417,-3.6417,-3.6417,-3.6417,-3.6417,-3.6417,-3.6417,-3.6417,-3.6417,-3.6417,-3.6417,-3.6734,-3.7312,-3.7807,-3.8863,-4.0567,-4.0501,-4.0534,-4.1338,-4.101,-4.0247,-3.9612,-3.9463,-3.9433,-3.9388,-3.9388,-3.9433,-3.9388,-3.9388,-3.9388,-3.9388,-3.9358,-3.914,-3.8856,-3.8691,-3.8377,-3.7734,-3.7135,-3.6656,-3.6432,-3.5893,-3.5489,-3.5489,-3.5489,-3.5489,-3.5489,-3.5489,-3.5489,-3.5489,-3.5489,-3.5489,-3.5489,-3.5489,-3.5489,-3.5489,-3.5489,-3.5489,-3.5489,-3.5489,-3.5489,-3.5489,-3.5489,-3.5489,-3.5489,-3.5489,-3.5489,-3.5489,-3.525,-3.4906,-3.4382,-3.4234,-3.3904,-3.308,-3.2467,-3.2288,-3.2363,-3.305,-3.3305,-3.2243,-3.1735,-3.1645,-3.16,-3.1525,-3.1256,-3.1062,-3.0537,-2.9996,-2.945,-2.9345,-2.9214,-2.9004,-2.8809,-2.8483,-2.8203,-2.7884,-2.7645,-2.7625,-2.7625,-2.766,-2.7355,-2.7021,-2.6956,-2.6626,-2.5995,-2.5364,-2.5099,-2.4865,-2.4766,-2.5051,-2.5489,-2.5819,-2.5892,-2.6105,-2.6349,-3.5466,-3.5827,-3.5793,-3.5906,-3.6094,-3.6329,-3.6417,-3.6417,-3.6417,-3.6417,-3.638,-3.6216,-3.6504,-3.7067,-3.7595,-3.8431,-4.0236,-4.049,-4.0519,-4.128,-4.0711,-4.0232,-3.9918,-3.9717,-3.9843,-3.9717,-3.9717,-3.9747,-3.9798,-3.9529,-3.9403,-3.9388,-3.9373,-3.9035,-3.8721,-3.8571,-3.8527,-3.7913,-3.7345,-3.6941,-3.6611,-3.6103,-3.5504,-3.5489,-3.5489,-3.5489,-3.5489,-3.5489,-3.5489,-3.5489,-3.5489,-3.5489,-3.5489,-3.5489,-3.5489,-3.5489,-3.5489,-3.5489,-3.5489,-3.5489,-3.5489,-3.5489,-3.5489,-3.5489,-3.5489,-3.5489,-3.5489,-3.5489,-3.5489,-3.5265,-3.4906,-3.4803,-3.4324,-3.3499,-3.3215,-3.3035,-3.311,-3.3769,-3.344,-3.2422,-3.1765,-3.1705,-3.1645,-3.157,-3.1421,-3.1271,-3.1092,-3.0552,-3.0056,-2.9968,-2.9819,-2.9564,-2.919,-2.8742,-2.8338,-2.7944,-2.7735,-2.7615,-2.7585,-2.7585,-2.7525,-2.7315,-2.7405,-2.736,-2.654,-2.5793,-2.5174,-2.4851,-2.4518,-2.4389,-2.4552,-2.4871,-2.5109,-2.5486,-2.5872,-3.4668,-3.468,-3.4693,-3.5019,-3.5508,-3.5994,-3.6292,-3.6367,-3.6367,-3.6355,-3.6329,-3.573,-3.618,-3.7241,-3.775,-3.8625,-3.9654,-4.0589,-4.1037,-4.1122,-4.0696,-4.0457,-4.0442,-4.0427,-4.0322,-4.0337,-4.0277,-4.0098,-4.0232,-3.9709,-3.9388,-3.9388,-3.9388,-3.9005,-3.8781,-3.8706,-3.8631,-3.7988,-3.7375,-3.7045,-3.6791,-3.6073,-3.5609,-3.5489,-3.5489,-3.5489,-3.5489,-3.5489,-3.5489,-3.5489,-3.5489,-3.5489,-3.5489,-3.5489,-3.5489,-3.5489,-3.5489,-3.5489,-3.5489,-3.5489,-3.5489,-3.5489,-3.5489,-3.5489,-3.5489,-3.5489,-3.5489,-3.5489,-3.5489,-3.5489,-3.54,-3.51,-3.4818,-3.4367,-3.4098,-3.3948,-3.3858,-3.3739,-3.32,-3.2512,-3.1869,-3.163,-3.157,-3.1496,-3.1496,-3.1436,-3.1286,-3.1092,-3.0702,-3.0612,-3.0417,-3.0028,-2.9579,-2.8936,-2.8532,-2.8248,-2.7809,-2.7675,-2.76,-2.7585,-2.7555,-2.7555,-2.7525,-2.7345,-2.6856,-2.6234,-2.5455,-2.4691,-2.4006,-2.397,-2.4069,-2.4199,-2.4552,-2.493,-2.5316,-3.4361,-3.4668,-3.468,-3.4813,-3.4964,-3.514,-3.5416,-3.5755,-3.5793,-3.578,-3.5755,-3.5157,-3.5845,-3.7582,-3.6745,-3.8036,-3.8919,-3.9627,-4.0208,-4.0464,-4.0689,-4.0816,-4.0935,-4.101,-4.0801,-4.0531,-4.0367,-4.0217,-3.9798,-3.9403,-3.9388,-3.9388,-3.9388,-3.9005,-3.8736,-3.8601,-3.8242,-3.7764,-3.715,-3.6926,-3.6656,-3.5953,-3.5609,-3.5489,-3.5489,-3.5489,-3.5489,-3.5489,-3.5489,-3.5489,-3.5489,-3.5489,-3.5489,-3.5489,-3.5489,-3.5489,-3.5489,-3.5489,-3.5489,-3.5489,-3.5489,-3.5489,-3.5489,-3.5489,-3.5489,-3.5489,-3.5489,-3.5489,-3.5489,-3.5489,-3.5489,-3.5295,-3.5011,-3.4741,-3.4562,-3.4547,-3.4442,-3.4203,-3.3634,-3.2662,-3.2034,-3.1735,-3.1645,-3.1496,-3.1496,-3.1496,-3.1451,-3.1316,-3.1227,-3.1107,-3.0972,-3.0597,-3.0118,-2.9535,-2.9131,-2.8831,-2.8214,-2.775,-2.7764,-2.7735,-2.769,-2.7675,-2.7615,-2.7315,-2.6836,-2.6276,-2.5641,-2.4837,-2.3986,-2.3717,-2.3752,-2.3858,-2.4027,-2.4405,-2.4812,-3.3771,-3.4048,-3.4073,-3.4198,-3.4412,-3.458,-3.4839,-3.4906,-3.5069,-3.5169,-3.5107,-3.465,-3.5089,-3.6042,-3.5987,-3.6657,-3.7767,-3.8762,-3.9519,-4.0176,-4.0547,-4.0868,-4.1175,-4.1377,-4.095,-4.0621,-4.0367,-4.0247,-3.9768,-3.9448,-3.9388,-3.9388,-3.9388,-3.9185,-3.8901,-3.8586,-3.8048,-3.7464,-3.6911,-3.6582,-3.6222,-3.5848,-3.5594,-3.5489,-3.5489,-3.5489,-3.5489,-3.5489,-3.5489,-3.5489,-3.5489,-3.5489,-3.5489,-3.5489,-3.5489,-3.5489,-3.5489,-3.5489,-3.5489,-3.5489,-3.5489,-3.5489,-3.5489,-3.5489,-3.5489,-3.5489,-3.5489,-3.5489,-3.5489,-3.5489,-3.5489,-3.5444,-3.5205,-3.4951,-3.4981,-3.504,-3.4936,-3.4816,-3.3978,-3.2916,-3.2363,-3.2034,-3.1809,-3.1615,-3.1496,-3.1496,-3.1496,-3.1451,-3.1406,-3.1361,-3.1316,-3.1137,-3.0702,-3.0193,-2.9804,-2.94,-2.8921,-2.8468,-2.8233,-2.8173,-2.7989,-2.7735,-2.7615,-2.724,-2.6761,-2.6216,-2.5646,-2.4844,-2.4096,-2.3834,-2.3595,-2.3681,-2.3788,-2.39,-2.4323,-3.3011,-3.3043,-3.3099,-3.3432,-3.3872,-3.4324,-3.4274,-3.3922,-3.4349,-3.4613,-3.4525,-3.4073,-3.4048,-3.4908,-3.542,-3.5696,-3.6903,-3.8028,-3.9192,-3.9836,-4.0291,-4.0771,-4.1205,-4.1377,-4.098,-4.0606,-4.0352,-4.0232,-4.0098,-3.9753,-3.9388,-3.9388,-3.9275,-3.9095,-3.8945,-3.8227,-3.7644,-3.7165,-3.6626,-3.6237,-3.6148,-3.5833,-3.5489,-3.5489,-3.5489,-3.5489,-3.5489,-3.5489,-3.5489,-3.5489,-3.5489,-3.5489,-3.5489,-3.5489,-3.5489,-3.5489,-3.5489,-3.5489,-3.5489,-3.5489,-3.5489,-3.5489,-3.5489,-3.5489,-3.5489,-3.5489,-3.5489,-3.5489,-3.5489,-3.5489,-3.5489,-3.5489,-3.5325,-3.5235,-3.5265,-3.519,-3.504,-3.4846,-3.4337,-3.338,-3.2676,-3.2303,-3.1705,-3.1496,-3.1496,-3.1496,-3.1496,-3.1496,-3.1496,-3.1496,-3.1496,-3.1496,-3.1152,-3.0717,-3.0298,-2.9924,-2.9669,-2.9295,-2.8876,-2.8562,-2.8308,-2.7974,-2.76,-2.7195,-2.6737,-2.6213,-2.5615,-2.4762,-2.4073,-2.3774,-2.3595,-2.3595,-2.3616,-2.3681,-2.3991,-3.2039,-3.2453,-3.2893,-3.3199,-3.3269,-3.3407,-3.342,-3.3282,-3.3395,-3.3746,-3.3935,-3.367,-3.3989,-3.4969,-3.5136,-3.5615,-3.7074,-3.7872,-3.8969,-3.9814,-4.033,-4.0681,-4.1257,-4.1235,-4.092,-4.0606,-4.0337,-4.0113,-3.9768,-3.9478,-3.9343,-3.932,-3.899,-3.8646,-3.8571,-3.7689,-3.6985,-3.6776,-3.6222,-3.5878,-3.5774,-3.5699,-3.5489,-3.5489,-3.5489,-3.5489,-3.5489,-3.5489,-3.5489,-3.5489,-3.5489,-3.5489,-3.5489,-3.5489,-3.5489,-3.5489,-3.5489,-3.5489,-3.5489,-3.5489,-3.5489,-3.5489,-3.5489,-3.5489,-3.5489,-3.5489,-3.5489,-3.5489,-3.5489,-3.5489,-3.5489,-3.5489,-3.5489,-3.5489,-3.5489,-3.531,-3.513,-3.4861,-3.4562,-3.3888,-3.314,-3.2482,-3.1809,-3.1511,-3.1496,-3.1496,-3.1496,-3.1496,-3.1496,-3.1496,-3.1496,-3.1496,-3.1496,-3.1122,-3.0746,-3.0447,-3.0208,-2.9654,-2.9101,-2.8846,-2.8592,-2.8094,-2.7555,-2.7171,-2.6737,-2.6273,-2.5585,-2.4522,-2.3939,-2.3699,-2.3595,-2.3595,-2.3595,-2.3638,-2.3927,-3.1574,-3.1913,-3.2453,-3.2855,-3.3099,-3.3124,-3.3124,-3.3124,-3.3124,-3.3244,-3.347,-3.333,-3.3862,-3.5167,-3.5263,-3.5641,-3.7175,-3.8196,-3.8835,-3.9555,-4.0219,-4.0591,-4.0846,-4.092,-4.0457,-4.0113,-3.9978,-3.9723,-3.9358,-3.905,-3.8901,-3.8841,-3.8332,-3.7928,-3.7808,-3.7,-3.6462,-3.6477,-3.5804,-3.5549,-3.5489,-3.5489,-3.5489,-3.5489,-3.5489,-3.5489,-3.5489,-3.5489,-3.5489,-3.5489,-3.5489,-3.5489,-3.5489,-3.5489,-3.5489,-3.5489,-3.5489,-3.5489,-3.5489,-3.5489,-3.5489,-3.5489,-3.5489,-3.5489,-3.5489,-3.5489,-3.5489,-3.5489,-3.5489,-3.5489,-3.5489,-3.5489,-3.5489,-3.5489,-3.5489,-3.54,-3.534,-3.5235,-3.4816,-3.4247,-3.3529,-3.2886,-3.2213,-3.16,-3.1585,-3.1496,-3.1496,-3.1496,-3.1496,-3.1496,-3.1496,-3.1496,-3.1496,-3.1466,-3.1182,-3.0928,-3.0746,-3.0118,-2.937,-2.8798,-2.8349,-2.7929,-2.7495,-2.7285,-2.6931,-2.6452,-2.5659,-2.4702,-2.4014,-2.3729,-2.3655,-2.3595,-2.3595,-2.3595,-2.3794,-3.1198,-3.1361,-3.1876,-3.2378,-3.283,-3.2872,-3.2923,-3.2943,-3.2943,-3.2955,-3.2955,-3.2943,-3.3623,-3.454,-3.5319,-3.5694,-3.6408,-3.7496,-3.8332,-3.9011,-3.9773,-4.0092,-4.0217,-4.0232,-3.9918,-3.9657,-3.9523,-3.9394,-3.9155,-3.8781,-3.8452,-3.8197,-3.7749,-3.7285,-3.7105,-3.6716,-3.6267,-3.6133,-3.5774,-3.5534,-3.5489,-3.5489,-3.5489,-3.5489,-3.5489,-3.5489,-3.5489,-3.5489,-3.5489,-3.5489,-3.5489,-3.5489,-3.5489,-3.5489,-3.5489,-3.5489,-3.5489,-3.5489,-3.5489,-3.5489,-3.5489,-3.5489,-3.5489,-3.5489,-3.5489,-3.5489,-3.5489,-3.5489,-3.5489,-3.5489,-3.5489,-3.5489,-3.5489,-3.5489,-3.5489,-3.5489,-3.5489,-3.5474,-3.5026,-3.4533,-3.3858,-3.32,-3.2587,-3.1929,-3.1615,-3.1525,-3.1496,-3.1496,-3.1496,-3.1496,-3.1496,-3.1496,-3.1496,-3.1466,-3.1436,-3.1241,-3.0987,-3.0447,-2.9696,-2.8828,-2.8094,-2.7779,-2.7585,-2.757,-2.721,-2.6731,-2.6033,-2.5166,-2.4537,-2.3849,-2.367,-2.3595,-2.3595,-2.3595,-2.3595,-3.0369,-3.0809,-3.1323,-3.1625,-3.1779,-3.1738,-3.1951,-3.234,-3.2378,-3.2378,-3.2378,-3.2428,-3.2803,-3.3428,-3.3556,-3.4212,-3.562,-3.6761,-3.7468,-3.8077,-3.8988,-3.942,-3.9664,-3.9738,-3.9559,-3.9409,-3.9245,-3.908,-3.8751,-3.8452,-3.8078,-3.7584,-3.6985,-3.6641,-3.6537,-3.6148,-3.5774,-3.5714,-3.5714,-3.5489,-3.5489,-3.5489,-3.5489,-3.5489,-3.5489,-3.5489,-3.5489,-3.5489,-3.5489,-3.5489,-3.5489,-3.5489,-3.5489,-3.5489,-3.5489,-3.5489,-3.5489,-3.5489,-3.5489,-3.5489,-3.5489,-3.5489,-3.5489,-3.5489,-3.5489,-3.5489,-3.5489,-3.5489,-3.5489,-3.5489,-3.5489,-3.5489,-3.5489,-3.5489,-3.5489,-3.5489,-3.5489,-3.5429,-3.5205,-3.4592,-3.3933,-3.3305,-3.2706,-3.2079,-3.1555,-3.1496,-3.1496,-3.1496,-3.1496,-3.1496,-3.1496,-3.1496,-3.1496,-3.1496,-3.1481,-3.1316,-3.1032,-3.0537,-2.9846,-2.8753,-2.8004,-2.772,-2.7585,-2.7585,-2.742,-2.7016,-2.6273,-2.56,-2.4747,-2.4073,-2.3744,-2.3595,-2.3595,-2.3595,-2.3595]}]]